[[{"header":{"parameterUnit":"m.s-1","parameterCategory":1,"la1":30.6,"la2":29.2853,"lo1":-89.7004,"lo2":-87.6739,"dy":0.0162,"dx":0.0183,"nx":112,"ny":82,"refTime":"2024-07-13T00:00:00:Z","depth":0,"parameterNumber":2,"parameterNumberName":"U-component_of_WINDS"},"data":[0.0,0.0,0.0,0.0,0.0,0.0,0.0,0.0,0.0,0.0,0.0,0.0,0.0,0.0,0.0,0.0,0.0,0.0,0.0,0.0,0.0,0.0,0.0,0.0,0.0,0.0,0.0,0.0,0.0,0.0,0.0,0.0,0.0,0.0,0.0,0.0,0.0,0.0,0.0,0.0,0.0,0.0,0.0,0.0,0.0,0.0,0.0,0.0,0.0,0.0,0.0,0.0,0.0,0.0,0.0,0.0,0.0,0.0,0.0,0.0,0.0,0.0,0.0,0.0,0.0,0.0,0.0,0.0,0.0,0.0,0.0,0.0,0.0,0.0,0.0,0.0,0.0,0.0,0.0,0.0,0.0,0.0,0.0,0.0,0.0,0.0,0.0,0.0,0.0,0.0,-3.859,-4.0414,-4.1509,-4.2066,-4.1937,-4.0561,-3.9035,-3.7419,0.0,0.0,0.0,0.0,0.0,0.0,0.0,0.0,0.0,0.0,0.0,0.0,0.0,0.0,0.0,0.0,0.0,0.0,0.0,0.0,0.0,0.0,0.0,0.0,0.0,0.0,0.0,0.0,0.0,0.0,0.0,0.0,0.0,0.0,0.0,0.0,0.0,0.0,0.0,0.0,0.0,0.0,0.0,0.0,0.0,0.0,0.0,0.0,0.0,0.0,0.0,0.0,0.0,0.0,0.0,0.0,0.0,0.0,0.0,0.0,0.0,0.0,0.0,0.0,0.0,0.0,0.0,0.0,0.0,0.0,0.0,0.0,0.0,0.0,0.0,0.0,0.0,0.0,0.0,0.0,0.0,0.0,0.0,0.0,0.0,0.0,0.0,0.0,0.0,0.0,0.0,0.0,0.0,0.0,0.0,0.0,0.0,0.0,0.0,0.0,0.0,0.0,0.0,0.0,-3.8892,-4.1703,-4.1585,-4.102,-4.0322,-3.9405,-3.8193,-3.6578,0.0,0.0,0.0,0.0,0.0,0.0,0.0,0.0,0.0,0.0,0.0,0.0,0.0,0.0,0.0,0.0,0.0,0.0,0.0,0.0,0.0,0.0,0.0,0.0,0.0,0.0,0.0,0.0,0.0,0.0,0.0,0.0,0.0,0.0,0.0,0.0,0.0,0.0,0.0,0.0,0.0,0.0,0.0,0.0,0.0,0.0,0.0,0.0,0.0,0.0,0.0,0.0,0.0,0.0,0.0,0.0,0.0,0.0,0.0,0.0,0.0,0.0,0.0,0.0,0.0,0.0,0.0,0.0,0.0,0.0,0.0,0.0,0.0,0.0,0.0,0.0,0.0,0.0,0.0,0.0,0.0,0.0,0.0,0.0,0.0,0.0,0.0,0.0,0.0,0.0,0.0,0.0,0.0,0.0,0.0,0.0,0.0,0.0,0.0,0.0,0.0,0.0,0.0,-3.8253,-3.9798,-4.2064,-4.1572,-4.0781,-3.9955,-3.9166,-3.801,-3.6395,-3.4552,0.0,0.0,0.0,0.0,0.0,0.0,0.0,0.0,0.0,0.0,0.0,0.0,0.0,0.0,0.0,0.0,0.0,0.0,0.0,0.0,0.0,0.0,0.0,0.0,0.0,0.0,0.0,0.0,0.0,0.0,0.0,0.0,0.0,0.0,0.0,0.0,0.0,0.0,0.0,0.0,0.0,0.0,0.0,0.0,0.0,0.0,0.0,0.0,0.0,0.0,0.0,0.0,0.0,0.0,0.0,0.0,0.0,0.0,0.0,0.0,0.0,0.0,0.0,0.0,0.0,0.0,0.0,0.0,0.0,0.0,0.0,0.0,0.0,0.0,0.0,0.0,0.0,0.0,0.0,0.0,0.0,0.0,0.0,0.0,0.0,0.0,0.0,0.0,0.0,0.0,0.0,0.0,0.0,0.0,0.0,0.0,0.0,0.0,0.0,0.0,0.0,0.0,-3.9677,-4.0359,-4.1607,-4.1185,-4.0487,-3.968,-3.8707,-3.7514,-3.6083,-3.3935,0.0,0.0,0.0,0.0,0.0,0.0,0.0,0.0,0.0,0.0,0.0,0.0,0.0,0.0,0.0,0.0,0.0,0.0,0.0,0.0,0.0,0.0,0.0,0.0,0.0,0.0,0.0,0.0,0.0,0.0,0.0,0.0,0.0,0.0,0.0,0.0,0.0,0.0,0.0,0.0,0.0,0.0,0.0,0.0,0.0,0.0,0.0,0.0,0.0,0.0,0.0,0.0,0.0,0.0,0.0,0.0,0.0,0.0,0.0,0.0,0.0,0.0,0.0,0.0,0.0,0.0,0.0,0.0,0.0,0.0,0.0,0.0,0.0,0.0,0.0,0.0,0.0,0.0,0.0,0.0,0.0,0.0,0.0,0.0,0.0,0.0,0.0,0.0,0.0,0.0,0.0,0.0,0.0,0.0,0.0,0.0,0.0,0.0,0.0,0.0,0.0,0.0,-3.898,-3.9937,-4.0047,-4.001,-3.9662,-3.8854,-3.7367,-3.6083,-3.5151,-3.256,0.0,0.0,0.0,0.0,0.0,0.0,0.0,0.0,0.0,0.0,0.0,0.0,0.0,0.0,0.0,0.0,0.0,0.0,0.0,0.0,0.0,0.0,0.0,0.0,0.0,0.0,0.0,0.0,0.0,0.0,0.0,0.0,0.0,0.0,0.0,0.0,0.0,0.0,0.0,0.0,0.0,0.0,0.0,0.0,0.0,0.0,0.0,0.0,0.0,0.0,0.0,0.0,0.0,0.0,0.0,0.0,0.0,0.0,0.0,0.0,0.0,0.0,0.0,0.0,0.0,0.0,0.0,0.0,0.0,0.0,0.0,0.0,0.0,0.0,0.0,0.0,0.0,0.0,0.0,0.0,0.0,0.0,0.0,0.0,0.0,0.0,0.0,0.0,0.0,0.0,0.0,0.0,0.0,0.0,0.0,0.0,0.0,0.0,0.0,0.0,0.0,0.0,-3.8157,-3.9331,0.0,-3.99,-3.957,-3.8781,-3.7679,-3.645,-3.5096,0.0,0.0,0.0,0.0,0.0,0.0,0.0,0.0,0.0,0.0,0.0,0.0,0.0,0.0,0.0,0.0,0.0,0.0,0.0,0.0,0.0,0.0,0.0,0.0,0.0,0.0,0.0,0.0,0.0,0.0,0.0,0.0,0.0,0.0,0.0,0.0,0.0,0.0,0.0,0.0,0.0,0.0,0.0,0.0,0.0,0.0,0.0,0.0,0.0,0.0,0.0,0.0,0.0,0.0,0.0,0.0,0.0,0.0,0.0,0.0,0.0,0.0,0.0,0.0,0.0,0.0,0.0,0.0,0.0,0.0,0.0,0.0,0.0,0.0,0.0,0.0,0.0,0.0,0.0,0.0,0.0,0.0,0.0,0.0,0.0,0.0,0.0,0.0,0.0,0.0,0.0,0.0,0.0,0.0,0.0,0.0,0.0,0.0,0.0,0.0,0.0,0.0,-3.5642,-3.7533,-3.8909,0.0,-3.9515,-3.9184,-3.8395,-3.7331,-3.6009,-3.4344,0.0,0.0,0.0,0.0,0.0,0.0,0.0,0.0,0.0,0.0,0.0,0.0,0.0,0.0,0.0,0.0,0.0,0.0,0.0,0.0,0.0,0.0,0.0,0.0,0.0,0.0,0.0,0.0,0.0,0.0,0.0,0.0,0.0,0.0,0.0,0.0,0.0,0.0,0.0,0.0,0.0,0.0,0.0,0.0,0.0,0.0,0.0,0.0,0.0,0.0,0.0,0.0,0.0,0.0,0.0,0.0,0.0,0.0,0.0,0.0,0.0,0.0,0.0,0.0,0.0,0.0,0.0,0.0,0.0,0.0,0.0,0.0,0.0,0.0,0.0,0.0,0.0,0.0,0.0,0.0,0.0,0.0,0.0,0.0,0.0,0.0,0.0,0.0,0.0,0.0,0.0,0.0,0.0,0.0,0.0,0.0,0.0,0.0,0.0,0.0,0.0,0.0,-3.4876,-3.7132,-3.8689,-3.8689,-3.8689,-3.8358,-3.7566,-3.5973,-3.4325,0.0,0.0,0.0,0.0,0.0,0.0,0.0,0.0,0.0,0.0,0.0,0.0,0.0,0.0,0.0,0.0,0.0,0.0,0.0,0.0,0.0,0.0,0.0,0.0,0.0,0.0,0.0,0.0,0.0,0.0,0.0,0.0,0.0,0.0,0.0,0.0,0.0,0.0,0.0,0.0,0.0,0.0,0.0,0.0,0.0,0.0,0.0,0.0,0.0,0.0,0.0,0.0,0.0,0.0,0.0,0.0,0.0,0.0,0.0,0.0,0.0,0.0,0.0,0.0,0.0,0.0,0.0,0.0,0.0,0.0,0.0,0.0,0.0,0.0,0.0,0.0,0.0,0.0,0.0,0.0,0.0,0.0,0.0,0.0,0.0,0.0,0.0,0.0,0.0,0.0,0.0,0.0,0.0,0.0,0.0,0.0,0.0,0.0,0.0,0.0,0.0,0.0,0.0,-3.328,-3.5477,-3.7221,-3.7804,-3.786,-3.7768,-3.7529,-3.6523,-3.4981,-3.2729,0.0,0.0,0.0,0.0,0.0,0.0,0.0,0.0,0.0,0.0,0.0,0.0,0.0,0.0,0.0,0.0,0.0,0.0,0.0,0.0,0.0,0.0,0.0,0.0,0.0,0.0,0.0,0.0,0.0,0.0,0.0,0.0,0.0,0.0,0.0,0.0,0.0,0.0,0.0,0.0,0.0,0.0,0.0,0.0,0.0,0.0,0.0,0.0,0.0,0.0,0.0,0.0,0.0,0.0,0.0,0.0,0.0,0.0,0.0,0.0,0.0,0.0,0.0,0.0,0.0,0.0,0.0,0.0,0.0,0.0,0.0,0.0,0.0,0.0,0.0,0.0,0.0,0.0,0.0,0.0,0.0,0.0,0.0,0.0,0.0,0.0,0.0,0.0,0.0,0.0,0.0,0.0,0.0,0.0,0.0,0.0,0.0,0.0,0.0,0.0,0.0,0.0,-3.2601,-3.478,-3.6486,-3.6978,-3.7015,-3.6886,-3.6523,-3.6064,-3.4687,-3.21,0.0,0.0,0.0,0.0,0.0,0.0,0.0,0.0,0.0,0.0,0.0,0.0,0.0,0.0,0.0,0.0,0.0,0.0,0.0,0.0,0.0,0.0,0.0,0.0,0.0,0.0,0.0,0.0,0.0,0.0,0.0,0.0,0.0,0.0,0.0,0.0,0.0,0.0,0.0,0.0,0.0,0.0,0.0,0.0,0.0,0.0,0.0,0.0,0.0,0.0,0.0,0.0,0.0,0.0,0.0,0.0,0.0,0.0,0.0,0.0,0.0,0.0,0.0,0.0,0.0,0.0,0.0,0.0,0.0,0.0,0.0,0.0,0.0,0.0,0.0,0.0,0.0,0.0,0.0,0.0,0.0,0.0,0.0,0.0,0.0,0.0,0.0,0.0,0.0,0.0,0.0,0.0,0.0,0.0,0.0,0.0,0.0,0.0,0.0,0.0,0.0,0.0,-3.2491,-3.4578,-3.6101,-3.6174,-3.6174,-3.5862,-3.5078,-3.5004,-3.3821,-3.1074,0.0,0.0,0.0,0.0,0.0,0.0,0.0,0.0,0.0,0.0,0.0,0.0,0.0,0.0,0.0,0.0,0.0,0.0,0.0,0.0,0.0,0.0,0.0,0.0,0.0,0.0,0.0,0.0,0.0,0.0,0.0,0.0,0.0,0.0,0.0,0.0,0.0,0.0,0.0,0.0,0.0,0.0,0.0,0.0,0.0,0.0,0.0,0.0,0.0,0.0,0.0,0.0,0.0,0.0,0.0,0.0,0.0,0.0,0.0,0.0,-3.3506,0.0,0.0,0.0,0.0,0.0,0.0,0.0,0.0,0.0,0.0,0.0,0.0,0.0,0.0,0.0,0.0,0.0,0.0,0.0,0.0,0.0,0.0,0.0,0.0,0.0,0.0,0.0,0.0,0.0,0.0,0.0,0.0,0.0,0.0,0.0,0.0,0.0,0.0,0.0,0.0,0.0,-3.1659,-3.322,-3.4578,-3.5206,-3.5279,-3.5206,-3.5023,-3.5004,-3.3821,-3.1074,-3.0898,0.0,0.0,0.0,0.0,0.0,0.0,0.0,0.0,0.0,0.0,0.0,0.0,0.0,0.0,0.0,0.0,0.0,0.0,0.0,0.0,0.0,0.0,0.0,0.0,0.0,0.0,0.0,0.0,0.0,0.0,0.0,0.0,0.0,0.0,0.0,0.0,0.0,0.0,0.0,0.0,0.0,0.0,0.0,0.0,0.0,0.0,0.0,0.0,0.0,0.0,0.0,0.0,0.0,0.0,0.0,0.0,0.0,0.0,0.0,0.0,-3.4507,0.0,0.0,0.0,0.0,0.0,0.0,0.0,0.0,0.0,0.0,0.0,0.0,0.0,0.0,0.0,0.0,0.0,0.0,0.0,0.0,0.0,0.0,0.0,0.0,0.0,0.0,0.0,0.0,0.0,0.0,0.0,0.0,0.0,0.0,0.0,0.0,0.0,0.0,0.0,0.0,-3.1397,-3.2797,-3.3972,-3.438,-3.4417,-3.4417,-3.4417,-3.4417,-3.3327,-3.0761,-3.0607,0.0,0.0,0.0,0.0,0.0,0.0,0.0,0.0,0.0,0.0,0.0,0.0,0.0,0.0,0.0,0.0,0.0,0.0,0.0,0.0,0.0,0.0,0.0,0.0,0.0,0.0,0.0,0.0,0.0,0.0,0.0,0.0,0.0,0.0,0.0,0.0,0.0,0.0,0.0,0.0,0.0,0.0,0.0,0.0,0.0,0.0,0.0,0.0,0.0,0.0,0.0,0.0,0.0,0.0,-3.843,-3.843,-3.843,-3.843,-3.8392,-3.768,-3.6731,-3.5692,0.0,0.0,0.0,0.0,0.0,0.0,0.0,0.0,0.0,0.0,0.0,0.0,0.0,0.0,0.0,0.0,0.0,0.0,0.0,0.0,0.0,0.0,0.0,0.0,0.0,-3.2834,-3.344,0.0,0.0,0.0,0.0,0.0,0.0,0.0,0.0,0.0,0.0,0.0,0.0,-3.1195,-3.2467,-3.344,-3.3587,-3.3587,-3.3642,-3.3788,-3.3807,-3.2802,-3.0442,-3.0308,-2.9232,0.0,0.0,0.0,0.0,0.0,0.0,0.0,0.0,0.0,0.0,0.0,0.0,0.0,0.0,0.0,0.0,0.0,0.0,0.0,0.0,0.0,0.0,0.0,0.0,0.0,0.0,0.0,0.0,0.0,0.0,0.0,0.0,-3.2663,-3.1843,0.0,0.0,0.0,0.0,0.0,0.0,0.0,0.0,0.0,0.0,0.0,0.0,0.0,0.0,-3.7661,-3.9219,-3.965,-3.8977,-3.9785,-4.0169,-4.0169,-4.0169,-4.0169,-4.0169,-4.0054,0.0,-3.6481,-3.5788,0.0,0.0,0.0,0.0,0.0,0.0,0.0,0.0,0.0,0.0,0.0,0.0,0.0,0.0,0.0,0.0,0.0,0.0,0.0,0.0,0.0,0.0,-3.3623,-3.3513,-3.3642,-3.3733,0.0,-3.3018,-3.2326,-3.1421,0.0,0.0,0.0,0.0,0.0,0.0,0.0,0.0,-3.0356,-3.1146,-3.1971,-3.2674,-3.2748,-3.3041,-3.3733,-3.3807,-3.2802,-3.0442,-3.0308,-2.9232,-2.6809,-2.6691,0.0,0.0,0.0,0.0,0.0,0.0,0.0,0.0,0.0,0.0,0.0,0.0,0.0,0.0,0.0,0.0,0.0,0.0,0.0,0.0,0.0,0.0,0.0,0.0,0.0,0.0,0.0,0.0,0.0,-3.2556,-3.3113,-3.2789,-3.3423,-3.3541,0.0,0.0,0.0,0.0,0.0,0.0,0.0,0.0,0.0,-3.8777,-3.9681,-4.0142,-4.0142,-4.0854,-4.0816,-3.9977,-4.0323,-4.0496,-4.0496,-4.0496,-4.0496,-4.0496,-4.0496,-3.9611,-3.8123,-3.7777,-3.7123,-3.6199,0.0,0.0,0.0,0.0,0.0,-3.3482,-3.3979,0.0,0.0,0.0,0.0,0.0,0.0,0.0,0.0,0.0,0.0,0.0,0.0,0.0,0.0,-3.3807,-3.4156,-3.4344,-3.3899,-3.3867,-3.3573,0.0,-3.243,-3.221,-3.0485,0.0,0.0,0.0,0.0,0.0,-3.021,-3.0889,-3.1531,-3.188,-3.2326,-3.2729,-3.3096,-3.3532,-3.2802,-3.0442,-3.0308,-2.9232,-2.6809,-2.6691,-2.6691,0.0,0.0,0.0,0.0,0.0,0.0,0.0,0.0,0.0,0.0,0.0,0.0,0.0,0.0,0.0,0.0,0.0,0.0,0.0,0.0,0.0,0.0,0.0,0.0,0.0,0.0,0.0,0.0,-3.3183,-3.3867,-3.3726,-3.4786,-3.5098,0.0,0.0,0.0,0.0,0.0,0.0,-3.7276,-3.818,-3.9315,-4.0785,-4.1873,-4.2335,-4.2143,-4.2143,-4.17,-4.0843,-4.0612,-4.0496,-4.0496,-4.0496,-4.0496,-4.0496,-4.0496,-4.0169,-3.9592,-3.9381,-3.8796,-3.7853,-3.6385,-3.5808,-3.5692,-3.4853,-3.4405,-3.4327,-3.4977,-3.4906,-3.4411,-3.3746,0.0,-3.2569,-3.1905,0.0,0.0,0.0,0.0,-3.3041,-3.3642,0.0,-3.3807,-3.3807,-3.4266,-3.4527,-3.3935,-3.427,-3.4344,0.0,-3.3385,-3.3164,-3.1164,0.0,0.0,0.0,0.0,-2.9886,-2.9886,-3.0411,-3.0852,-3.1072,-3.1641,-3.2142,-3.2564,-3.2963,-3.2393,-3.0576,-3.0246,-2.9173,-2.7086,-2.6906,-2.6857,-2.6857,0.0,0.0,0.0,0.0,0.0,0.0,0.0,0.0,0.0,0.0,0.0,0.0,0.0,0.0,0.0,0.0,0.0,0.0,0.0,0.0,0.0,0.0,0.0,0.0,0.0,0.0,0.0,0.0,0.0,-3.464,-3.6768,0.0,0.0,0.0,0.0,-3.6705,-3.6646,-3.7334,-3.9092,-3.9938,-4.0796,-4.172,-4.3316,-4.3816,-4.3047,-4.3028,-4.2604,-4.1712,-4.0893,-4.0496,-4.0496,-4.0496,-4.0496,-4.0496,-4.0496,-4.0477,-4.0381,-3.9631,-3.8796,-3.7911,-3.7,-3.6635,-3.6538,-3.5731,-3.5435,-3.5429,-3.5467,-3.5453,-3.5391,-3.51,-3.4081,-3.2927,-3.263,-3.2528,0.0,0.0,-3.3146,-3.3752,-3.3788,-3.3807,-3.3807,-3.3807,-3.3825,-3.3844,-3.3807,-3.3825,-3.3844,0.0,-3.377,-3.3532,-3.2619,0.0,-3.1072,-3.0265,-2.9519,-2.906,-2.906,-2.9097,-2.9409,-3.0173,-3.0301,-3.0944,-3.2472,-3.1935,-3.1318,-3.0898,-3.008,-2.9093,-2.789,-2.747,-2.7272,-2.7272,-2.689,0.0,0.0,0.0,0.0,0.0,0.0,0.0,0.0,0.0,0.0,0.0,0.0,0.0,0.0,0.0,0.0,0.0,0.0,0.0,0.0,0.0,0.0,0.0,0.0,0.0,0.0,0.0,0.0,-3.7145,-3.8421,0.0,-3.7583,-3.7381,-3.7664,-3.844,-3.8456,-3.9161,-4.0823,-4.17,-4.2547,-4.3374,-4.4528,-4.472,-4.3874,-4.3874,-4.3162,-4.1788,-4.1489,-4.1046,-4.0496,-4.0496,-4.0496,-4.0496,-4.0496,-4.0208,-3.9708,-3.9419,-3.913,-3.8738,-3.7873,-3.7199,-3.6596,-3.5808,-3.55,-3.55,-3.55,-3.5383,-3.5155,-3.4676,-3.406,-3.3504,-3.3406,-3.3366,-3.3366,-3.3366,-3.3587,-3.3807,-3.3807,-3.3807,-3.3807,-3.3807,-3.3807,-3.3807,-3.3807,-3.3807,-3.3807,-3.3807,-3.3807,-3.3532,-3.2729,-3.1935,-3.114,-3.032,-2.9519,-2.9005,-2.9005,-2.9445,-2.9879,-3.0173,-3.065,-3.1201,-3.177,-3.1549,-3.102,-3.0134,-2.9578,-2.8749,-2.7565,-2.7131,-2.6923,-2.6923,-2.6758,-2.6691,0.0,0.0,0.0,0.0,0.0,0.0,0.0,0.0,0.0,0.0,0.0,0.0,0.0,0.0,0.0,0.0,0.0,0.0,0.0,0.0,0.0,0.0,0.0,0.0,0.0,0.0,-3.7949,-3.8473,-3.9522,-3.9845,-3.8933,-3.9056,-3.9416,-3.9904,-3.9878,-4.0423,-4.1781,-4.2637,-4.347,-4.4278,-4.5152,-4.5325,-4.4739,-4.4182,-4.3335,-4.2239,-4.1643,-4.1066,-4.0496,-4.0496,-4.0496,-4.0496,-4.0496,-4.0035,-3.9304,-3.9304,-3.895,-3.8373,-3.7796,-3.7219,-3.6596,-3.5808,-3.55,-3.5493,-3.541,-3.519,-3.4879,-3.436,-3.4018,-3.3807,-3.3807,-3.3807,-3.3807,-3.3807,-3.3807,-3.3807,-3.3807,-3.3807,-3.3807,-3.3807,-3.3807,-3.3807,-3.3807,-3.3807,-3.3715,-3.3458,-3.3605,-3.3532,-3.2729,-3.1935,-3.114,-3.032,-2.9519,-2.9005,-2.9005,-2.9464,-2.9898,-3.0173,-3.0687,-3.1121,-3.1378,-3.1146,-3.06,-2.9651,-2.9138,-2.8436,-2.7532,-2.7115,-2.6906,-2.6906,-2.6995,-2.708,-2.708,0.0,0.0,0.0,0.0,0.0,0.0,0.0,0.0,0.0,0.0,0.0,0.0,0.0,0.0,0.0,0.0,0.0,0.0,0.0,0.0,0.0,0.0,0.0,-3.6074,-3.7559,-3.8592,-3.8509,-4.0093,-4.0818,-3.9837,-4.0512,-4.0998,-4.0996,-4.0818,-4.1091,-4.1995,-4.2714,-4.347,-4.4316,-4.5171,-4.5594,-4.5594,-4.3951,-4.3124,-4.3085,-4.1362,-4.0535,-4.0496,-4.0496,-4.0496,-4.0496,-4.0496,-4.0035,-3.9265,-3.9265,-3.8238,-3.6673,-3.6692,-3.6673,-3.6577,-3.5788,-3.55,-3.5453,-3.5198,-3.4926,-3.4643,-3.4311,-3.4018,-3.3807,-3.3807,-3.3807,-3.3807,-3.3807,-3.3807,-3.3807,-3.3807,-3.3807,-3.3807,-3.3807,-3.377,-3.3752,-3.3752,-3.3733,-3.3495,-3.2711,-3.3201,-3.3476,-3.2693,-3.1898,-3.1103,-3.032,-2.9519,0.0,-2.9005,-2.9023,-2.9335,-3.0118,-3.021,-3.0522,-3.1305,-3.0632,-3.0002,-2.961,-2.8835,-2.825,-2.7911,-2.7535,-2.7338,-2.7322,-2.7657,-2.7824,-2.7807,0.0,0.0,0.0,0.0,0.0,0.0,0.0,0.0,0.0,0.0,0.0,0.0,0.0,0.0,0.0,0.0,0.0,0.0,0.0,0.0,0.0,0.0,-3.7168,-3.7793,-3.8848,-3.9765,-4.0369,-4.0898,-4.1093,-4.0818,-4.0993,-4.1104,-4.1017,-4.087,-4.1388,-4.2789,-4.3023,-4.3758,-4.521,-4.5479,-4.5594,-4.5594,-4.4509,-4.3682,-4.3085,-4.197,-4.1104,-4.0496,-4.0496,-4.0496,-4.0496,-4.0496,-3.9688,-3.8354,-3.8354,-3.7353,-3.5885,-3.6462,-3.6346,-3.5808,-3.5577,-3.55,-3.5453,-3.5198,-3.4926,-3.4643,-3.4311,-3.4018,-3.3807,-3.3807,-3.3807,-3.3807,-3.3807,-3.3807,-3.3807,-3.3807,-3.3807,-3.3807,-3.3807,-3.3348,-3.2931,-3.2931,-3.2467,-3.199,-3.177,-3.1898,-3.2003,-3.177,-3.1054,-3.0448,-3.0228,0.0,0.0,-2.9005,-2.95,-2.9941,-3.0173,-3.021,-3.0283,-3.0503,-2.9787,-2.9282,-2.918,-2.8674,-2.825,-2.7911,-2.8026,-2.7957,-2.7675,-2.8335,-2.8383,0.0,0.0,0.0,0.0,0.0,0.0,0.0,0.0,0.0,0.0,0.0,0.0,0.0,0.0,0.0,0.0,0.0,0.0,0.0,0.0,0.0,0.0,-3.6953,-3.8144,-3.9023,-3.957,-4.0215,-4.1094,-4.0879,-4.0801,-4.1152,-4.1191,-4.1171,-4.1082,-4.0959,-4.1454,-4.2747,-4.3034,-4.3771,-4.5102,-4.5445,-4.5421,-4.5056,-4.422,-4.3374,-4.2547,-4.1662,-4.0989,-4.0496,-4.0496,-4.0496,0.0,-4.015,-3.9246,-3.7969,-3.7603,-3.6673,0.0,0.0,0.0,0.0,0.0,-3.55,-3.5453,-3.5198,-3.4926,-3.4643,-3.4311,-3.4018,-3.3807,-3.3807,-3.3807,-3.3807,-3.3807,-3.3807,-3.3807,-3.3807,-3.3807,-3.3715,-3.3385,-3.2931,-3.2509,-3.2173,-3.1733,-3.1305,-3.0962,0.0,0.0,-3.0448,-3.0283,-3.0099,-2.9739,-2.9299,-2.9005,0.0,-2.9409,-2.9831,-3.0173,-3.021,-3.021,-3.021,-2.9757,0.0,0.0,0.0,-2.8309,-2.8107,-2.8124,0.0,0.0,0.0,0.0,0.0,0.0,0.0,0.0,-2.9922,-2.9973,0.0,0.0,0.0,0.0,0.0,0.0,0.0,0.0,0.0,0.0,0.0,0.0,0.0,0.0,0.0,0.0,-3.8027,-3.8906,-3.9785,-3.9726,-3.9961,-4.0937,-4.0371,-4.0234,-4.1113,-4.1191,-4.1191,-4.1191,-4.1078,-4.1384,-4.2258,0.0,0.0,0.0,0.0,-4.4996,-4.4316,-4.3393,-4.2566,-4.1788,-4.0912,-4.0496,-4.0496,-4.0496,-4.0496,-4.0458,-3.965,-3.8815,-3.793,-3.7065,-3.6231,-3.55,-3.55,-3.55,-3.55,-3.55,-3.55,0.0,0.0,0.0,0.0,-3.4277,-3.3981,-3.3807,-3.3807,-3.3807,-3.3807,-3.3807,-3.3807,-3.3807,-3.3807,-3.3807,-3.3605,-3.2784,-3.2528,-3.2247,-3.1439,-3.1195,-3.0907,-3.021,-3.0063,-2.9831,-2.9115,-2.9592,-2.9824,-2.9115,-2.9005,0.0,-2.9005,-2.9005,-2.9262,-2.9989,0.0,0.0,-3.0063,-3.0063,-2.9613,-2.8538,-2.8394,-2.8393,-2.8517,-2.8152,-2.8315,-2.9111,-2.9854,-3.0173,-3.0108,-3.0835,-3.119,-3.1157,-2.9873,-2.9991,0.0,0.0,0.0,0.0,0.0,0.0,0.0,0.0,0.0,0.0,0.0,0.0,0.0,0.0,0.0,-3.7109,-3.8027,-3.8906,-3.9785,-3.8691,-3.8398,-3.9961,-4.0,-4.0234,-4.1113,-4.1191,-4.1191,-4.1191,-4.1078,-4.1384,-4.2258,-4.2307,0.0,-4.4447,-4.3969,-4.3858,-4.4297,-4.2797,-4.1962,-4.1788,0.0,0.0,-4.0496,-4.0496,-4.0496,-4.0458,-3.965,-3.8815,-3.793,-3.7065,-3.6231,-3.55,-3.55,-3.55,-3.55,-3.55,-3.55,-3.5432,-3.4944,-3.4734,-3.4612,-3.4049,-3.3842,-3.3807,-3.3807,-3.3807,0.0,-3.3807,-3.3807,-3.3807,-3.3807,-3.3807,-3.3605,-3.2784,-3.21,-3.1403,-3.0613,-2.9922,-2.9427,-2.9262,-2.9225,-2.9189,-2.9023,-2.9133,-2.9189,-2.9023,-2.9005,-2.9005,-2.9005,-2.9005,-2.906,-2.9225,-2.9225,-2.9225,-2.9225,-2.9225,-2.9129,-2.8893,-2.8321,-2.8382,-2.9245,-2.8953,-2.911,-2.9871,-3.0615,-3.0683,-3.0108,-3.0835,-3.119,-3.119,-3.0903,-3.1261,0.0,0.0,0.0,0.0,0.0,0.0,0.0,0.0,0.0,0.0,0.0,-3.293,-3.3379,0.0,-3.6426,-3.7734,-3.832,-3.875,-3.9199,-3.8125,-3.7773,-3.9082,-3.8867,-3.9101,-4.043,-4.0547,-4.0723,-4.1172,-4.1149,-4.1298,-4.1726,-4.2032,-4.2571,-4.3372,-4.3266,-4.3189,-4.3156,-4.2248,-4.1585,-4.1143,-4.0708,-4.0285,-3.99,-3.99,-3.99,-3.9823,-3.8546,-3.8007,-3.7892,-3.6615,-3.5865,-3.55,-3.55,-3.55,-3.55,-3.55,-3.55,-3.5453,-3.5198,-3.4926,-3.4653,-3.436,-3.4055,-3.3807,-3.3807,-3.3807,-3.3807,-3.3807,-3.3807,-3.3807,-3.3807,-3.3495,-3.2999,-3.2192,-3.1384,-3.0577,-2.9757,-2.928,-2.9005,-2.9005,-2.9005,-2.9005,-2.9005,-2.9005,-2.9005,-2.9005,-2.9005,-2.9005,-2.9005,-2.9005,-2.9005,-2.9005,-2.9005,-2.9005,-2.9005,-2.9005,-2.9005,-2.9005,-2.8313,-2.847,-2.975,-2.9281,-2.9534,-3.0632,-3.1004,-3.1021,-3.0649,-3.1021,-3.119,-3.119,-3.119,-3.1616,0.0,0.0,0.0,0.0,0.0,0.0,0.0,0.0,-3.1992,-3.2168,-3.2832,-3.3711,-3.4766,-3.5801,-3.7012,-3.8594,-3.8711,-3.8594,-3.8594,-3.7695,-3.7305,-3.8008,-3.7617,-3.7988,-3.9726,-3.9902,-4.0254,-4.1133,-4.1191,-4.1191,-4.1191,-4.1765,-4.2151,-4.2297,-4.2609,-4.2513,-4.2014,-4.1714,-4.122,-4.0496,-4.0496,-4.0073,-3.9304,-3.9304,-3.9207,-3.895,-3.7392,-3.7,-3.7411,-3.6058,-3.55,-3.55,-3.55,-3.55,-3.55,-3.55,-3.55,-3.5493,-3.5439,-3.5105,-3.4684,-3.4614,-3.4244,-3.3807,-3.3807,-3.3807,-3.3807,-3.3807,-3.3697,-3.3605,-3.3752,-3.3091,-3.221,-3.1562,-3.0797,-2.9989,-2.917,-2.9005,-2.9005,-2.9005,-2.9005,-2.9005,-2.9005,-2.9005,-2.9005,-2.9005,-2.9005,-2.9005,-2.9005,-2.9005,-2.9005,-2.9005,-2.9005,-2.9005,-2.9005,-2.9005,-2.897,-2.8893,-2.8255,-2.8458,-2.9714,-2.9128,-2.9416,-3.0753,-3.0903,-3.0987,-3.0987,-3.1123,-3.119,-3.119,-3.119,-3.1616,-3.0507,-3.0684,-3.0625,-3.0723,-3.082,-3.0898,0.0,0.0,-3.1269,-3.2031,-3.2832,-3.3906,-3.5547,-3.7207,-3.8633,-3.9609,-3.9101,-3.8594,-3.8594,-3.7187,-3.6172,-3.6289,-3.6894,-3.7988,-3.9726,-3.9902,-4.0254,-4.1133,-4.1191,-4.1191,-4.1191,-4.1289,-4.1614,-4.2278,-4.1603,-4.1489,-4.1995,-4.1221,-4.0713,-4.0496,-4.0496,-4.0073,-3.9304,-3.9304,-3.8873,-3.8084,-3.7123,-3.6346,-3.5769,-3.5577,-3.55,-3.55,-3.55,-3.55,-3.55,-3.55,-3.55,-3.5479,-3.5223,-3.4954,-3.4653,-3.4357,-3.4043,-3.3807,-3.3807,-3.3807,-3.3807,-3.3807,-3.3293,-3.2894,-3.3605,-3.2669,-3.1513,-3.1415,-3.0797,-2.9989,-2.917,-2.9005,-2.9005,-2.9005,-2.9005,-2.9005,-2.9005,-2.9005,-2.9005,-2.9005,-2.9005,-2.9005,-2.9005,-2.9005,-2.9005,-2.9005,-2.9005,-2.9005,-2.9005,-2.9005,-2.8851,-2.8484,-2.8102,-2.8112,-2.8566,-2.8169,-2.8349,-2.923,-2.9888,-3.0207,-3.0207,-3.0886,-3.119,-3.119,-3.119,-3.1616,-2.9004,-2.9766,-3.0137,0.0,-3.0527,-3.0898,-3.0898,-3.1289,-3.1758,-3.2129,-3.3219,-3.4323,-3.5047,-3.6555,-3.7973,0.0,-3.8329,-3.7982,-3.8515,-3.7109,-3.5996,-3.5996,-3.6777,-3.7793,-3.9023,-3.8672,-3.8965,-4.0332,-4.0449,-4.0449,-4.0449,-4.0918,-4.1347,-4.1652,-4.1223,-4.1128,-4.1423,-4.0941,-4.0667,-4.0616,-4.0068,-3.9361,-3.8527,-3.8027,-3.7334,-3.6538,-3.6654,-3.6231,-3.55,-3.55,-3.55,-3.55,-3.55,-3.55,-3.55,-3.55,-3.5391,-3.5239,-3.513,-3.4794,-3.439,-3.4253,-3.4018,-3.3807,-3.3807,-3.3807,-3.3807,-3.3807,-3.322,-3.2674,-3.3005,-3.1916,-3.0705,-3.0705,-3.0099,-2.9409,-2.9078,-2.9005,-2.9005,-2.9005,-2.9005,-2.9005,-2.9005,-2.9005,-2.9005,-2.9005,-2.9005,-2.9005,-2.9005,-2.9005,-2.9005,-2.9005,-2.9005,-2.8917,-2.867,-2.8658,-2.8502,-2.8129,-2.7765,-2.782,-2.838,-2.7998,-2.8197,-2.8976,-2.9314,-2.9668,-3.0108,-3.0412,-3.0784,-3.119,-3.119,-3.136,-2.8242,-2.9121,0.0,-2.9902,-3.043,-3.0898,-3.0898,-3.1387,-3.1894,-3.2108,-3.3072,-3.4025,-3.4482,-3.5711,-3.6965,-3.7873,-3.7524,-3.7406,-3.8101,-3.6911,-3.6073,-3.6328,-3.6914,-3.7734,-3.8848,-3.8164,-3.8281,-3.9785,-3.9687,-3.9648,-3.9883,-4.0508,-4.0957,-4.1191,-4.087,-4.0794,-4.0996,-4.0626,-4.0523,-4.0697,-3.9773,-3.8854,-3.7969,-3.6865,-3.6058,-3.5538,-3.6115,-3.6038,-3.55,-3.55,-3.55,-3.55,-3.55,-3.55,-3.55,-3.55,-3.5376,-3.5198,-3.5122,-3.4765,-3.4334,-3.4223,-3.4018,-3.3807,-3.3807,-3.3807,-3.3752,-3.3532,-3.2889,-3.2284,-3.2284,-3.1091,-2.9922,-3.0155,-2.9592,-2.9005,-2.9005,-2.9005,-2.9005,-2.9005,-2.9005,-2.9005,-2.9005,-2.9005,-2.9005,-2.9005,-2.9005,-2.9005,-2.9005,-2.9005,-2.9005,-2.9005,-2.9005,-2.8875,-2.859,-2.8565,-2.8464,-2.8215,-2.7837,-2.7805,-2.8242,-2.7892,-2.7878,-2.8367,-2.857,-2.8924,-2.9463,-2.9702,-3.0176,-3.0903,-3.0903,-3.1004,-2.9296,-2.957,-2.9805,-3.0644,-3.0879,-3.0898,-3.0898,-3.0918,-3.1132,-3.1857,-3.2044,-3.2578,-3.4205,-3.522,-3.6096,-3.6901,-3.7031,-3.7069,-3.7226,-3.6471,-3.6232,-3.7148,-3.7285,-3.7969,0.0,-3.9062,-3.8926,-3.9824,-3.9121,-3.9004,-3.9844,-3.9922,-4.0332,-4.1172,-4.0371,-4.0288,-4.0996,-4.0151,-4.0059,-4.0697,-3.9813,-3.8903,-3.795,-3.6288,-3.5519,-3.55,-3.5538,-3.5519,-3.55,-3.55,-3.55,-3.55,-3.55,-3.55,-3.55,-3.55,-3.5493,-3.5446,-3.519,-3.4926,-3.4632,-3.4311,-3.4018,-3.3807,-3.3807,-3.3807,-3.3642,-3.2858,-3.2063,-3.1452,-3.1452,-3.0246,-2.9225,-3.0008,-2.9592,-2.9005,-2.9005,-2.9005,-2.9005,-2.9005,-2.9005,-2.9005,-2.9005,-2.9005,-2.9005,-2.9005,-2.9005,-2.9005,-2.9005,-2.9005,-2.9005,-2.9005,-2.9005,-2.8994,-2.8975,-2.8982,-2.8982,-2.897,-2.8577,-2.8224,-2.7933,-2.7519,-2.7151,-2.6776,-2.7469,-2.7858,-2.7874,-2.8653,-2.9397,-3.0123,-3.0123,-3.0531,-2.7566,-2.8259,-2.8945,-2.9824,-3.0407,-3.0769,-3.0769,-3.0732,-3.0763,-3.1018,-3.1501,-3.2034,-3.259,-3.3819,-3.5034,-3.5924,-3.608,-3.6308,-3.6968,-3.6815,-3.6779,-3.7187,-3.8226,0.0,0.0,0.0,0.0,-3.9785,-3.9082,-3.873,-3.9023,-3.959,-3.9766,-3.9473,-3.9199,-3.9159,-3.9409,-3.9037,-3.8941,-3.916,-3.819,-3.7255,-3.6327,-3.575,-3.55,-3.55,-3.55,-3.55,-3.55,-3.55,-3.55,-3.55,-3.55,-3.55,-3.55,-3.55,-3.55,-3.5453,-3.5198,-3.4926,-3.4643,-3.4311,-3.4147,-3.4031,-3.3855,-3.3807,-3.3623,-3.2821,-3.2027,-3.1286,-3.0742,-2.9812,-2.9078,-2.9335,-2.9207,-2.9005,-2.9005,-2.9005,-2.9005,-2.9005,-2.9005,-2.9005,-2.9005,-2.9005,-2.9005,-2.9005,-2.9005,-2.9005,-2.9005,-2.9005,-2.9005,-2.9005,-2.9005,-2.8803,-2.8308,-2.8268,-2.8034,-2.7512,-2.7346,-2.7224,-2.7115,-2.6971,-2.6841,-2.6708,-2.6945,-2.73,-2.7807,-2.806,-2.8602,-2.9364,-2.9364,-2.977,-2.6614,-2.7301,-2.7977,-2.8856,-2.9428,-2.9858,-3.0166,-3.0193,-3.0247,-3.0506,-3.0975,-3.1337,-3.1308,-3.2399,-3.3608,-3.4491,-3.4908,-3.5532,-3.6789,-3.6968,-3.7234,-3.7968,-3.9009,-3.9806,0.0,0.0,0.0,-3.9805,-3.9082,-3.8594,-3.8594,-3.9121,-3.918,-3.8613,-3.8301,-3.8281,-3.8594,-3.8215,-3.7983,-3.7968,-3.724,-3.6427,-3.5534,-3.5508,-3.55,-3.55,-3.55,-3.55,-3.55,-3.55,-3.55,-3.55,-3.55,-3.55,-3.55,-3.55,-3.55,-3.5453,-3.5198,-3.4981,-3.4793,-3.4478,-3.4379,-3.4323,-3.4018,-3.3935,-3.3688,-3.2524,-3.1806,-3.1146,-3.0063,-2.939,-2.9005,-2.9005,-2.9005,-2.9005,-2.9005,-2.9005,-2.9005,-2.9005,-2.9005,-2.9005,-2.9005,-2.9005,-2.9005,-2.9005,-2.9005,-2.9005,-2.9005,-2.9005,-2.9005,-2.9005,-2.9005,-2.8803,-2.8321,-2.8281,-2.8075,-2.7557,-2.7391,-2.7253,-2.7131,-2.7004,-2.6841,-2.6708,-2.6691,-2.6928,-2.7401,-2.7401,-2.7824,-2.8569,-2.8569,-2.8975,-2.649,-2.6763,-2.6999,-2.7824,-2.8055,-2.8323,-2.9188,-2.9397,-2.9603,-3.0341,-3.049,-3.0472,-3.0414,0.0,-3.2006,-3.2776,-3.366,-3.4879,-3.6643,-3.6931,-3.7603,0.0,0.0,0.0,0.0,0.0,0.0,-3.9941,0.0,-3.8652,-3.8594,-3.8594,-3.8555,-3.8476,-3.7656,-3.7637,-3.8457,-3.7656,-3.7203,-3.7133,-3.6942,-3.6415,-3.5605,-3.5496,-3.543,-3.5423,-3.5423,-3.5423,-3.5442,-3.5481,-3.55,-3.55,-3.55,-3.55,-3.5481,-3.5442,-3.5423,-3.5395,-3.5092,-3.5045,-3.5079,-3.4822,-3.4714,-3.4663,-3.4334,-3.4193,-3.3768,-3.1931,-3.1391,-3.098,-2.9409,-2.9005,-2.9005,-2.9005,-2.9005,-2.9005,-2.9005,-2.9005,-2.9005,-2.9005,-2.9005,-2.9005,-2.9005,-2.9005,-2.9005,-2.9005,-2.9005,-2.9005,-2.9005,-2.9005,-2.9005,-2.9005,-2.9005,-2.8994,-2.8964,-2.8964,-2.8952,-2.894,-2.8596,-2.8237,-2.7911,-2.753,-2.7147,-2.6775,-2.6758,-2.6758,-2.6725,-2.6725,-2.708,-2.7739,-2.7739,-2.818,-2.5696,-2.6276,-2.6843,-2.7079,-2.7581,-2.8248,-2.9055,-2.9203,-2.9414,-3.0241,-3.0422,-3.0411,-3.039,-3.1596,0.0,-3.2872,-3.418,0.0,-3.6607,-3.7307,0.0,-3.9314,0.0,-4.0524,-4.077,-4.0725,0.0,0.0,-3.9996,-3.9297,-3.8633,-3.8594,-3.8008,-3.6699,-3.6445,-3.6445,-3.666,-3.6445,-3.6304,-3.6233,-3.6185,-3.5969,-3.5586,-3.4916,-3.4587,-3.4526,-3.4526,-3.4526,-3.4584,-3.5231,-3.55,-3.55,-3.55,-3.55,-3.5423,-3.4776,-3.4526,-3.4423,-3.3703,-3.4316,-3.5361,-3.5088,-3.499,-3.4944,-3.4655,-3.3989,-3.3089,-3.1991,-3.1129,-3.0265,-2.9262,-2.9005,-2.9005,-2.9005,-2.9005,-2.9005,-2.9005,-2.9005,-2.9005,-2.9005,-2.9005,-2.9005,-2.9005,-2.9005,-2.9005,-2.9005,-2.9005,-2.9005,-2.9005,-2.9005,-2.9005,-2.9005,-2.9005,-2.8875,-2.8577,-2.8552,-2.8451,-2.8201,-2.8075,-2.7996,-2.7911,-2.7811,-2.7692,-2.7607,-2.7589,-2.7457,-2.7147,-2.7147,-2.7089,-2.6979,-2.6979,-2.7385,-2.5359,-2.5735,-2.6132,-2.6132,-2.6475,-2.7121,-2.8357,-2.8607,-2.8909,-3.0154,-3.0404,-3.0404,-3.0404,-3.1481,0.0,0.0,0.0,0.0,-3.7103,-3.8027,-3.8898,0.0,-4.0307,0.0,-4.0663,-4.0449,-4.0312,0.0,-4.0086,-3.9512,-3.8652,-3.8242,-3.7402,-3.6035,-3.5996,-3.5996,-3.5996,-3.5996,-3.5975,-3.5946,-3.5911,-3.5634,-3.513,-3.4559,-3.4074,-3.3676,0.0,-3.3622,-3.3699,-3.4564,-3.493,-3.493,-3.493,-3.493,-3.4814,-3.3949,-3.3622,-3.3564,-3.3064,-3.3545,-3.4333,-3.4189,-3.4079,-3.3946,-3.3687,-3.306,-3.227,-3.1366,-3.0658,-3.0008,-2.9207,-2.9005,-2.9005,-2.9005,-2.9005,-2.9005,-2.9005,-2.9005,-2.9005,-2.9005,-2.9005,-2.9005,-2.9005,-2.9005,-2.9005,-2.9005,-2.9005,-2.9005,-2.9005,-2.9005,-2.9005,-2.9005,-2.9005,-2.8917,-2.8682,-2.867,-2.8583,-2.8386,-2.8228,-2.8116,-2.8116,-2.7982,-2.7897,-2.7897,-2.7897,-2.7797,-2.756,-2.756,-2.7457,-2.7225,-2.7225,-2.745,-2.5308,-2.5308,-2.5308,-2.5308,-2.5308,-2.5769,-2.7505,-2.7895,-2.8371,-3.0058,0.0,-3.0404,-3.0404,-3.1115,-3.1968,-3.2776,0.0,-3.5942,-3.7757,-3.8546,-3.9304,-4.0227,-4.0246,-4.0169,-4.0169,-3.9612,-3.9291,-3.9403,-3.9481,-3.9218,-3.8476,-3.7715,-3.6894,-3.6035,-3.5996,-3.5996,-3.5996,-3.5898,-3.582,-3.582,-3.5652,-3.5165,-3.4413,-3.4135,-3.3562,-3.2837,0.0,0.0,-3.2814,-3.366,-3.4032,-3.4032,-3.4032,-3.4032,-3.3917,-3.3064,-3.2737,-3.2718,-3.2602,-3.2564,-3.2602,-3.2833,-3.2779,-3.2592,-3.2322,-3.2005,-3.1536,-3.0533,-3.0177,-2.9926,-2.92,-2.9005,-2.9005,-2.9005,-2.9005,-2.9005,-2.9005,-2.9005,-2.9005,-2.9005,-2.9005,-2.9005,-2.9005,-2.9005,-2.9005,-2.9005,-2.9005,-2.9005,-2.9005,-2.9005,-2.9005,-2.9005,-2.9005,-2.9005,-2.9005,-2.9005,-2.9005,-2.9005,-2.867,-2.8471,-2.8471,-2.8197,-2.8051,-2.8051,-2.8051,-2.8024,-2.7968,-2.7968,-2.794,-2.7897,-2.7897,-2.7897,-2.5308,-2.5308,-2.5308,-2.5308,-2.5308,-2.5769,-2.7505,-2.7895,0.0,0.0,-3.0404,-3.0404,-3.0404,-3.1115,-3.1968,-3.2776,-3.3757,-3.5257,-3.7661,-3.7507,-3.7738,0.0,-3.8873,-3.843,-3.843,0.0,0.0,0.0,0.0,-3.7625,-3.7539,-3.7383,-3.6894,-3.6035,-3.5996,-3.5996,-3.5996,-3.5293,-3.4922,-3.4922,-3.4179,-3.3722,-3.3496,-3.2744,-3.2269,-3.2004,0.0,0.0,-3.1968,-3.2795,-3.3122,-3.3122,-3.3122,-3.3122,-3.3026,-3.2218,-3.191,-3.1814,-3.1077,-3.0827,-3.1058,-3.2449,-3.2872,-3.2819,-3.26,-3.199,-3.1259,-3.0689,-3.0039,-2.9463,-2.9081,-2.9005,-2.9005,-2.9005,-2.9005,-2.9005,-2.9005,-2.9005,-2.9005,-2.9005,-2.9005,-2.9005,-2.9005,-2.9005,-2.9005,-2.9005,-2.9005,-2.9005,-2.9005,-2.9005,-2.9005,-2.9005,-2.9005,-2.9005,-2.9005,-2.9005,-2.9005,-2.9005,-2.8929,-2.8905,-2.8905,-2.8839,-2.8803,-2.8803,-2.8803,-2.8651,-2.8316,-2.8316,-2.817,-2.7897,-2.7897,-2.7897,-2.4678,-2.4981,-2.5192,-2.4774,-2.4981,-2.5769,-2.7505,0.0,0.0,0.0,-3.0404,-3.0404,-3.0404,-3.1115,0.0,-3.2218,-3.3737,-3.5449,-3.7084,-3.7353,-3.7853,-3.915,-3.8527,-3.8007,0.0,0.0,0.0,0.0,0.0,0.0,-3.7215,-3.6854,-3.6211,-3.5351,-3.5312,-3.5117,-3.4648,-3.4238,-3.4023,-3.4023,-3.3594,-3.3163,-3.2705,-3.2226,-3.1709,-3.1177,0.0,0.0,-3.1096,-3.1929,-3.2275,-3.2275,-3.2275,-3.2275,-3.2179,-3.1327,-3.1019,-3.0962,-3.0558,-3.0404,-3.0538,-3.1346,-3.1501,-3.1376,-3.129,-3.0879,-3.0419,-3.0199,-2.9783,-2.9372,-2.9235,-2.91,-2.9005,-2.9005,-2.9005,-2.9005,-2.9005,-2.9005,-2.9005,-2.9005,-2.9005,-2.9005,-2.9005,-2.9005,-2.9005,-2.9005,-2.9005,-2.9005,-2.9005,-2.9005,-2.9005,-2.9005,-2.9005,-2.9005,-2.9005,-2.9005,-2.9005,-2.9005,-2.9005,-2.9005,-2.9005,-2.9005,-2.9005,-2.9005,-2.9005,-2.8917,-2.8707,-2.8707,-2.862,-2.8469,-2.8469,-2.8469,-2.3879,-2.4409,-2.4889,-2.4259,-2.4851,-2.5971,-2.7462,-2.7984,0.0,-2.9966,-3.0286,-3.0311,-3.0311,-3.0842,-3.1353,0.0,-3.34,-3.5208,-3.6461,-3.7218,-3.7982,0.0,-3.8257,0.0,-3.7488,0.0,0.0,0.0,0.0,0.0,-3.66,-3.6069,-3.5312,-3.4453,-3.4414,-3.4082,-3.3418,-3.3223,-3.3144,-3.3144,-3.2949,-3.2539,-3.1914,-3.1809,-3.1349,-3.0625,0.0,0.0,0.0,-3.1133,-3.1429,-3.1429,-3.1429,-3.1429,-3.1346,-3.0654,-3.0404,-3.0404,-3.0404,-3.0404,-3.0404,-3.0404,-3.026,-3.0075,-3.0013,-2.9924,-2.9832,-2.9731,-2.9626,-2.9523,-2.9483,-2.9289,-2.9067,-2.9017,-2.9005,-2.9005,-2.9005,-2.9005,-2.9005,-2.9005,-2.9005,-2.9005,-2.9005,-2.9005,-2.9005,-2.9005,-2.9005,-2.9005,-2.9005,-2.9005,-2.9005,-2.9005,-2.9005,-2.9005,-2.9005,-2.9005,-2.9005,-2.9005,-2.9005,-2.9005,-2.9005,-2.9005,-2.9005,-2.9005,-2.9005,-2.9005,-2.9005,-2.9005,-2.9005,-2.9005,-2.9005,-2.9005,-2.3124,-2.3548,-2.4187,-2.4129,-2.5298,-2.668,-2.7383,0.0,-2.9135,-2.9658,-2.9901,-3.0047,-3.0047,-2.9961,-3.02,-3.1184,0.0,-3.3419,-3.6052,-3.6443,-3.6865,-3.7985,0.0,0.0,-3.5808,0.0,0.0,0.0,0.0,0.0,0.0,-3.4839,-3.4414,-3.3555,-3.3516,-3.3476,-3.3398,-3.2676,-3.2305,-3.2305,-3.1504,-3.1094,-3.1016,-3.1015,-3.0892,-3.0687,0.0,0.0,0.0,-3.0499,-3.0519,-3.0519,-3.0519,-3.0519,-3.0519,-3.0423,-3.0404,-3.0404,-3.0404,-3.0404,-3.0404,-3.0404,-3.0373,-3.0317,-3.0075,-3.0169,-3.0254,-2.9823,-2.9813,-2.9908,-2.9722,-2.9523,-2.9299,-2.9055,-2.9005,-2.9005,-2.9005,-2.9005,-2.9005,-2.9005,-2.9005,-2.9005,-2.9005,-2.9005,-2.9005,-2.9005,-2.9005,-2.9005,-2.9005,-2.9005,-2.9005,-2.9005,-2.9005,-2.9005,-2.9005,-2.9005,-2.9005,-2.9005,-2.9005,-2.9005,-2.9005,-2.9005,-2.9005,-2.9005,-2.9005,-2.9005,-2.9005,-2.9005,-2.9005,-2.9005,-2.9005,-2.9005,-2.3498,-2.4101,-2.4716,-2.4221,-2.5241,-2.6561,-2.7337,-2.8122,-2.8867,-2.9551,-2.9754,-2.9821,-2.9821,-2.9746,-2.9995,0.0,-3.1702,-3.293,-3.5069,-3.5483,-3.5921,-3.6881,-3.6396,0.0,0.0,0.0,0.0,0.0,0.0,0.0,0.0,-3.3968,-3.3954,-3.2607,-3.2569,-3.2339,-3.1894,-3.1582,-3.1426,-3.1406,-3.1074,-3.0898,-3.0898,-3.0898,-3.0836,-3.0695,0.0,0.0,0.0,-3.0495,-3.0462,-3.0452,-3.0419,-3.0404,-3.0404,-3.0404,-3.0404,-3.0404,-3.0404,-3.0404,-3.0404,-3.0404,-3.0404,-3.0373,-3.0267,-3.0311,-3.0355,-3.0162,-2.9985,-2.9796,-2.9731,-2.9426,-2.9134,-2.9028,-2.9005,-2.9005,-2.9005,-2.9005,-2.9005,-2.9005,-2.9005,-2.9005,-2.9005,-2.9005,-2.9005,-2.9005,-2.9005,-2.9005,-2.9005,-2.9005,-2.9005,-2.9005,-2.9005,-2.9005,-2.9005,-2.9005,-2.9005,-2.9005,-2.9005,-2.9005,-2.9005,-2.9005,-2.9005,-2.9005,-2.9005,-2.9005,-2.9005,-2.9005,-2.9005,-2.9005,-2.9005,-2.9005,-2.3481,-2.4118,-2.4786,-2.4455,-2.5442,-2.67,-2.7502,-2.8237,-2.8918,-2.9401,-2.9561,-2.9616,-2.9616,-2.9561,-2.9692,0.0,-3.1305,-3.2477,-3.4007,-3.499,-3.5809,0.0,0.0,0.0,0.0,0.0,0.0,0.0,0.0,0.0,0.0,-3.2975,-3.3041,-3.1631,-3.1594,-3.134,-3.0857,-3.0838,-3.0858,-3.0898,-3.0898,-3.0898,-3.0898,-3.0898,-3.0857,-3.0767,0.0,0.0,0.0,-3.0551,-3.0509,-3.0494,-3.0456,-3.0425,-3.0404,-3.0404,-3.0404,-3.0404,-3.0404,-3.0404,-3.0404,-3.0404,-3.0404,-3.0404,-3.0404,-3.0404,-3.0404,-3.0404,-3.0155,-2.9872,-2.9739,-2.9447,-2.9163,-2.9021,-2.9005,-2.9005,-2.9005,-2.9005,-2.9005,-2.9005,-2.9005,-2.9005,-2.9005,-2.9005,-2.9005,-2.9005,-2.9005,-2.9005,-2.9005,-2.9005,-2.9005,-2.9005,-2.9005,-2.9005,-2.9005,-2.9005,-2.9005,-2.9005,-2.9005,-2.9005,-2.9005,-2.9005,-2.9005,-2.9005,-2.9005,-2.9005,-2.9005,-2.9005,-2.9005,-2.9005,-2.9005,-2.9005,-2.2745,-2.3157,-2.3995,-2.4784,-2.6107,-2.7347,-2.7951,-2.8923,-2.957,-2.9093,-2.9214,-2.9412,-2.9412,-2.92,-2.9089,-2.9361,-3.0538,-3.1801,-3.297,-3.5172,-3.6788,0.0,0.0,0.0,0.0,0.0,0.0,0.0,0.0,0.0,0.0,-3.1718,-3.139,-3.0639,-3.0606,-3.0641,-3.0695,-3.0696,-3.077,-3.0898,-3.0898,-3.0898,-3.0898,-3.0898,-3.0898,0.0,0.0,0.0,0.0,-3.0633,-3.0554,-3.0498,-3.0498,-3.0457,-3.0404,-3.0404,-3.0404,-3.0404,-3.0404,-3.0404,-3.0404,-3.0404,-3.0404,-3.0404,-3.0404,-3.0404,-3.0404,-3.0404,-3.0398,-3.0286,-2.9823,-2.9696,-2.9579,-2.9104,-2.9005,-2.9005,-2.9005,-2.9005,-2.9005,-2.9005,-2.9005,-2.9005,-2.9005,-2.9005,-2.9005,-2.9005,-2.9005,-2.9005,-2.9005,-2.9005,-2.9005,-2.9005,-2.9005,-2.9005,-2.9005,-2.9005,-2.9005,-2.9005,-2.9005,-2.9005,-2.9005,-2.9005,-2.9005,-2.9005,-2.9005,-2.9005,-2.9005,-2.9005,-2.9005,-2.9005,-2.9005,-2.9005,-2.4601,-2.499,-2.5508,-2.6299,-2.7165,-2.7877,-2.8052,-2.8678,-2.9174,-2.9021,-2.9067,-2.9134,-2.9134,-2.9055,-2.9389,-3.0579,-3.1575,0.0,0.0,0.0,0.0,-3.6002,0.0,0.0,0.0,0.0,0.0,0.0,0.0,0.0,0.0,-3.0808,-3.0725,-3.0548,-3.0533,-3.0561,-3.0638,-3.068,-3.072,-3.0769,-3.0858,-3.0898,-3.0898,-3.0898,0.0,0.0,0.0,0.0,0.0,-3.0711,-3.0663,-3.0638,-3.0541,-3.0495,-3.0467,-3.0425,-3.0404,-3.0404,-3.0404,-3.0404,-3.0404,-3.0404,-3.0404,-3.0404,-3.0404,-3.0404,-3.0361,-3.0189,-3.0129,-3.0054,-2.9763,-2.9705,-2.9625,-2.9343,-2.9267,-2.9214,-2.9051,-2.9005,-2.9005,-2.9005,-2.9005,-2.9005,-2.9005,-2.9005,-2.9005,-2.9005,-2.9005,-2.9005,-2.9005,-2.9005,-2.9005,-2.9005,-2.9005,-2.9005,-2.9005,-2.9005,-2.9005,-2.9005,-2.9005,-2.9005,-2.9005,-2.9005,-2.9005,-2.9005,-2.9005,-2.9005,-2.9005,-2.9005,-2.9005,-2.9005,-2.9005,-2.9005,-2.5987,-2.6242,-2.6533,-2.733,-2.7773,-2.8059,-2.8373,-2.8743,-2.9005,-2.9005,-2.9005,-2.9005,-2.9005,-2.9005,-2.9427,-3.0742,-3.1623,0.0,0.0,0.0,0.0,-3.5303,0.0,0.0,0.0,0.0,0.0,0.0,0.0,0.0,0.0,0.0,-3.0431,-3.0462,-3.0467,-3.049,-3.0554,-3.0592,-3.0659,-3.0695,-3.0772,-3.0858,-3.0898,-3.0898,0.0,0.0,0.0,0.0,0.0,-3.0815,-3.0745,-3.069,-3.0617,-3.0554,-3.0529,-3.0467,-3.0436,-3.0425,-3.0402,-3.0404,-3.0404,-3.0404,-3.0404,-3.0404,-3.0404,-3.0404,-3.0361,-3.0202,-3.015,-3.0109,-2.9869,-2.9813,-2.9754,-2.9551,-2.9454,-2.9351,-2.92,-2.9067,-2.9005,-2.9005,-2.9005,-2.9005,-2.9005,-2.9005,-2.9005,-2.9005,-2.9005,-2.9005,-2.9005,-2.9005,-2.9005,-2.9005,-2.9005,-2.9005,-2.9005,-2.9005,-2.9005,-2.9005,-2.9005,-2.9005,-2.9005,-2.9005,-2.9005,-2.9005,-2.9005,-2.9005,-2.9005,-2.9005,-2.9005,-2.9005,-2.9005,-2.9005,0.0,-2.6916,-2.7102,-2.7947,-2.7988,-2.8007,-2.8822,-2.9005,0.0,-2.9005,-2.9005,-2.9023,-2.9078,-2.9097,-2.9372,-3.0228,-3.1091,0.0,0.0,-3.4069,0.0,0.0,0.0,0.0,0.0,0.0,0.0,0.0,0.0,0.0,0.0,0.0,-3.0404,-3.0404,-3.0404,-3.0433,-3.0485,-3.0494,-3.0561,-3.0686,-3.0692,-3.0769,-3.0898,-3.0898,0.0,0.0,0.0,0.0,0.0,-3.0898,-3.0836,-3.0718,-3.0696,-3.0667,-3.0603,-3.0533,-3.0511,-3.0494,-3.0433,-3.0402,-3.0416,-3.0404,-3.0404,-3.0404,-3.0404,-3.0404,-3.0404,-3.0404,-3.0404,-3.0349,-3.0089,-3.0013,-2.9954,-2.9756,-2.9551,-2.9402,-2.9382,-2.9178,-2.9005,-2.9005,-2.9005,-2.9005,-2.9005,-2.9005,-2.9005,-2.9005,-2.9005,-2.9005,-2.9005,-2.9005,-2.9005,-2.9005,-2.9005,-2.9005,-2.9005,-2.9005,-2.9005,-2.9005,-2.9005,-2.9005,-2.9005,-2.9005,-2.9005,-2.9005,-2.9005,-2.9005,-2.9005,-2.9005,-2.9005,-2.9005,-2.9005,-2.9005,-2.7403,0.0,-2.7009,-2.8434,-2.829,-2.8007,0.0,-2.9005,-2.9005,-2.9005,-2.9005,-2.9189,-2.9794,-2.9922,-3.0381,-3.1812,0.0,0.0,-3.4417,0.0,0.0,0.0,0.0,0.0,0.0,0.0,0.0,0.0,0.0,0.0,0.0,0.0,-3.0404,-3.0404,-3.0404,-3.0402,-3.0422,-3.0472,-3.0528,-3.0559,-3.0639,-3.0718,-3.0746,-3.0858,0.0,0.0,0.0,0.0,-3.0898,-3.0898,-3.0879,-3.0838,-3.0744,-3.0689,-3.0673,-3.0606,-3.0575,-3.0561,-3.0498,-3.0477,-3.0477,-3.0425,-3.0404,-3.0404,-3.0404,-3.0404,-3.0404,-3.0404,-3.0404,-3.0392,-3.0317,-3.015,-2.9954,-2.9756,-2.9551,-2.9341,-2.9145,-2.9033,-2.9005,-2.9005,-2.9005,-2.9005,-2.9005,-2.9005,-2.9005,-2.9005,-2.9005,-2.9005,-2.9005,-2.9005,-2.9005,-2.9005,-2.9005,-2.9005,-2.9005,-2.9005,-2.9005,-2.9005,-2.9005,-2.9005,-2.9005,-2.9005,-2.9005,-2.9005,-2.9005,-2.9005,-2.9005,-2.9005,-2.9005,-2.9005,-2.9005,-2.9005,-2.7126,-2.7475,-2.7904,-2.8785,-2.8675,-2.8455,-2.8895,-2.9005,-2.9005,-2.9005,-2.9005,-2.9244,-3.0063,-3.021,-3.0742,0.0,-3.3335,0.0,0.0,0.0,0.0,0.0,0.0,0.0,0.0,0.0,0.0,0.0,0.0,0.0,0.0,0.0,-3.0404,-3.0404,-3.0404,-3.0404,-3.0404,-3.0449,-3.0463,-3.0503,-3.0575,-3.0631,-3.0696,-3.0771,0.0,0.0,0.0,0.0,-3.0898,-3.0898,-3.0898,-3.0898,-3.0816,-3.0793,-3.0771,-3.0675,-3.0655,-3.0645,-3.0568,-3.0521,-3.05,-3.0417,-3.0404,-3.0404,-3.0404,-3.0404,-3.0404,-3.0404,-3.0404,-3.0404,-3.0404,-3.0299,-3.0162,-3.0044,-2.984,-2.9607,-2.9367,-2.9249,-2.9156,-2.901,-2.9005,-2.9005,-2.9005,-2.9005,-2.9005,-2.9005,-2.9005,-2.9005,-2.9005,-2.9005,-2.9005,-2.9005,-2.9005,-2.9005,-2.9005,-2.9005,-2.9005,-2.9005,-2.9005,-2.9005,-2.9005,-2.9005,-2.9005,-2.9005,-2.9005,-2.9005,-2.9005,-2.9005,-2.9005,-2.9005,-2.9005,-2.9005,-2.6576,-2.7684,-2.8858,-2.8968,-2.8913,-2.8858,-2.8968,-2.9005,-2.9005,-2.9005,-2.9005,-2.928,-3.021,-3.0375,0.0,0.0,0.0,0.0,0.0,0.0,0.0,0.0,0.0,0.0,0.0,0.0,0.0,0.0,0.0,0.0,0.0,0.0,0.0,-3.0349,-3.0373,-3.0404,-3.0404,-3.0404,-3.0433,-3.0472,-3.049,-3.0554,-3.0675,-3.0682,0.0,0.0,0.0,0.0,-3.0898,-3.0898,-3.0898,-3.0898,-3.0898,-3.0898,-3.0898,-3.077,-3.0722,-3.0717,-3.0645,-3.0568,-3.0507,-3.043,-3.0419,-3.0414,-3.039,-3.0404,-3.0404,-3.0404,-3.0404,-3.0404,-3.0404,-3.0367,-3.0349,-3.0349,-3.0136,-2.9908,-2.9748,-2.9561,-2.9373,-2.9149,-2.9104,-2.9104,-2.9104,-2.9104,-2.9104,-2.9104,-2.9078,-2.9055,-2.9055,-2.9028,-2.9005,-2.9005,-2.9005,-2.9005,-2.9005,-2.9005,-2.9005,-2.9005,-2.9005,-2.9005,-2.9005,-2.9005,-2.9005,-2.9005,-2.9005,-2.9005,-2.9005,-2.9005,-2.9005,-2.9005,-2.9005,-2.9005,-2.641,-2.7273,-2.8154,-2.8822,-2.8491,-2.8154,-2.884,-2.9005,-2.9005,0.0,0.0,0.0,0.0,-3.1231,-3.1733,0.0,0.0,0.0,0.0,0.0,0.0,0.0,0.0,0.0,0.0,0.0,0.0,0.0,0.0,0.0,0.0,0.0,0.0,-3.0068,-3.0273,-3.0404,-3.0404,-3.0404,-3.0416,-3.0419,-3.0467,-3.052,-3.0537,-3.0594,-3.0659,0.0,0.0,-3.0793,-3.0898,-3.0898,-3.0898,-3.0898,-3.0898,-3.0898,-3.0898,-3.0879,-3.0878,-3.0857,-3.0738,-3.065,-3.0571,-3.0511,-3.0472,-3.0472,-3.0425,-3.0404,-3.0404,-3.0404,-3.0404,-3.0404,-3.0404,-3.0222,-3.0068,-3.0068,-2.9893,-2.9748,-2.9713,-2.9678,-2.9634,-2.9598,-2.9588,-2.9588,-2.9588,-2.9588,-2.9588,-2.9588,-2.9445,-2.9341,-2.9341,-2.9145,-2.9005,-2.9005,-2.9005,-2.9005,-2.9005,-2.9005,-2.9005,-2.9005,-2.9005,-2.9005,-2.9005,-2.9005,-2.9005,-2.9005,-2.9005,-2.9005,-2.9005,-2.9005,-2.9005,-2.9005,-2.9005,-2.9005,-2.5742,-2.6539,-2.7346,-2.8154,-2.8411,-2.8546,-2.8913,-2.9005,-2.9005,0.0,0.0,0.0,0.0,0.0,-3.1929,-3.3532,0.0,0.0,0.0,0.0,0.0,0.0,0.0,0.0,0.0,0.0,0.0,0.0,0.0,0.0,0.0,0.0,0.0,0.0,-3.0054,-3.017,-3.017,-3.0323,-3.0404,-3.0404,-3.0439,-3.0453,-3.0503,-3.0533,-3.0584,-3.0655,0.0,-3.0703,-3.0793,-3.0793,-3.0837,-3.0898,-3.0898,-3.0898,-3.0898,-3.0898,-3.0898,-3.0879,-3.0745,-3.0682,-3.0631,-3.0575,-3.0544,-3.0545,-3.0467,-3.0447,-3.0451,-3.0408,-3.0404,-3.0404,-3.0404,-3.0311,-3.0209,-3.0209,-3.0148,-3.0037,-2.9885,-2.9861,-2.9829,-2.9731,-2.9705,-2.9705,-2.9705,-2.9616,-2.9542,-2.9542,-2.9343,-2.9171,-2.9171,-2.9078,-2.9005,-2.9005,-2.9005,-2.9005,-2.9005,-2.9134,-2.9156,-2.9017,-2.9005,-2.9005,-2.9005,-2.9005,-2.9005,-2.9005,-2.9005,-2.9067,-2.9232,-2.9232,-2.927,-2.9377,-2.9259,-2.9232,-2.5192,-2.5988,-2.6796,-2.7603,-2.8411,-2.906,-2.9244,-2.928,-2.928,0.0,0.0,0.0,0.0,-3.1268,0.0,-3.3293,0.0,0.0,0.0,0.0,0.0,0.0,0.0,0.0,0.0,0.0,0.0,0.0,0.0,0.0,0.0,0.0,0.0,0.0,-2.9821,-2.9954,-3.0006,-3.0202,-3.0349,-3.0404,-3.0404,-3.0428,-3.0477,-3.0477,-3.0501,-3.0575,-3.0575,-3.0603,-3.068,-3.069,-3.0768,-3.0858,-3.0898,-3.0898,-3.0898,-3.0898,-3.0898,-3.0898,-3.0771,-3.0745,-3.0721,-3.0652,-3.0611,-3.0617,-3.0533,-3.0501,-3.0481,-3.0436,-3.0414,-3.0404,-3.0404,-3.0404,-3.0404,-3.0404,-3.0404,-3.0329,-3.0143,-3.0089,-3.0047,-2.9896,-2.9864,-2.9864,-2.9864,-2.9741,-2.9635,-2.9635,-2.9415,-2.9241,-2.9241,-2.9195,-2.9152,-2.9152,-2.9152,-2.9152,-2.9152,-2.9353,-2.9394,-2.9174,-2.9152,-2.9152,-2.9152,-2.9152,-2.9152,-2.9152,-2.9152,-2.927,-2.9474,-2.9474,-2.9542,-2.9696,-2.9317,-2.9175,-2.5223,-2.5988,-2.6796,-2.7603,-2.8411,-2.9207,-2.9953,-3.0118,-3.0118,-3.0118,0.0,0.0,0.0,-3.0889,-3.1678,0.0,0.0,0.0,0.0,0.0,0.0,0.0,0.0,0.0,0.0,0.0,0.0,0.0,0.0,0.0,0.0,0.0,0.0,0.0,0.0,-2.9813,-2.9999,-3.0021,-3.015,-3.0404,-3.0404,-3.041,-3.0402,-3.0402,-3.0446,-3.0511,-3.0511,-3.0552,-3.0617,-3.0677,-3.0716,-3.0721,-3.0858,-3.0898,-3.0898,-3.0898,-3.0898,-3.0898,-3.0898,-3.0898,-3.0858,-3.0722,-3.069,-3.0682,-3.06,-3.0559,-3.0498,-3.049,-3.0456,-3.0404,-3.0404,-3.0404,-3.0404,-3.0404,-3.0404,-3.0379,-3.0386,-3.0367,-3.0361,-3.0349,-3.0349,-3.0349,-3.0349,-3.0343,-3.033,-3.033,-3.0102,-2.9939,-2.9939,-2.9763,-2.9652,-2.9652,-2.9652,-2.9652,-2.9652,-2.967,-2.967,-2.9652,-2.9652,-2.9652,-2.9652,-2.9652,-2.9652,-2.9652,-2.9652,-2.9661,-2.9678,-2.9678,-2.9687,-2.9686,-2.8868,-2.8474,-2.4634,-2.5603,-2.6657,-2.6979,-2.8033,-2.9078,-2.9372,-2.9831,-3.021,-3.021,-3.021,0.0,0.0,0.0,0.0,0.0,0.0,0.0,0.0,0.0,0.0,0.0,0.0,0.0,0.0,0.0,0.0,0.0,0.0,0.0,0.0,0.0,0.0,0.0,0.0,-2.9616,-2.9813,-2.9939,-2.9849,-2.9602,-3.0135,-3.0404,-3.0404,-3.0404,-3.0419,-3.0436,-3.0436,-3.0472,-3.0545,-3.0565,-3.0609,-3.0652,-3.0739,-3.0836,-3.0898,-3.0898,-3.0898,-3.0898,-3.0898,-3.0898,-3.0898,-3.0838,-3.0816,-3.0793,-3.0703,-3.0633,-3.0625,-3.0575,-3.0501,-3.0447,-3.0408,-3.0404,-3.0404,-3.0404,-3.0404,-3.0404,-3.0404,-3.0404,-3.0404,-3.0404,-3.0404,-3.0404,-3.0404,-3.026,-3.015,-3.015,-2.9966,-2.9813,-2.9813,-2.9756,-2.9705,-2.9705,-2.9705,-2.9738,-2.9877,-2.9893,-2.9966,-3.0128,-2.9856,-2.9705,-2.9705,-2.9705,-2.9705,-2.9705,-2.9705,-2.9754,-2.9893,-2.9893,-2.9688,-2.9313,-2.8869,-2.8366,-2.4579,-2.575,-2.6979,-2.6979,-2.7996,-2.9005,-2.9005,-2.961,-3.021,-3.021,-3.0008,-2.9824,-2.9824,0.0,0.0,0.0,0.0,0.0,0.0,0.0,0.0,0.0,0.0,0.0,0.0,0.0,0.0,0.0,0.0,0.0,0.0,0.0,0.0,0.0,0.0,0.0,-2.9607,-2.9473,-2.9247,-2.8906,-2.9251,-2.9628,-2.9981,-2.9981,-3.0135,-3.0404,-3.0404,-3.0428,-3.0463,-3.0485,-3.0545,-3.0611,-3.0677,-3.0767,-3.0838,-3.0879,-3.0898,-3.0898,-3.0898,-3.0898,-3.0898,-3.0898,-3.0898,-3.0879,-3.0793,-3.0723,-3.0686,-3.0625,-3.0544,-3.0472,-3.0425,-3.0404,-3.0404,-3.0404,-3.0404,-3.0404,-3.0404,-3.0404,-3.0404,-3.0404,-3.0404,-3.0404,-3.0404,-3.0254,-3.0129,-3.0129,-3.0003,-2.9912,-2.9912,-2.9912,-2.9912,-2.9912,-2.9912,-2.9992,-3.0103,-3.0129,-3.0202,-3.0398,-3.0099,-2.9912,-2.9912,-2.9912,-2.9912,-2.9912,-2.9912,-2.9981,-3.0129,-2.9843,-2.9487,-2.9083,-2.8414,-2.7797,-2.5281,-2.6586,-2.7798,-2.7798,-2.8411,-2.9005,-2.9005,-2.961,-3.0179,-3.0179,-2.9555,-2.9005,-2.9005,0.0,0.0,0.0,0.0,0.0,0.0,0.0,0.0,0.0,0.0,0.0,0.0,0.0,0.0,0.0,0.0,0.0,0.0,0.0,0.0,0.0,0.0,0.0,-2.9384,-2.8528,-2.8221,-2.8464,-2.7667,-2.7925,-2.9088,-2.9088,-2.9563,-3.0385,-3.0385,-3.0385,-3.0396,-3.0467,-3.0521,-3.0573,-3.0657,-3.0675,-3.0699,-3.0838,-3.0879,-3.0879,-3.0879,-3.0879,-3.0879,-3.0879,-3.0898,-3.0898,-3.0898,-3.0814,-3.0687,-3.0628,-3.0544,-3.0491,-3.0431,-3.0404,-3.0404,-3.0404,-3.0404,-3.0404,-3.0404,-3.0404,-3.0404,-3.0404,-3.0404,-3.0404,-3.0404,-3.0404,-3.0404,-3.0404,-3.0404,-3.0404,-3.0404,-3.0404,-3.0404,-3.0404,-3.0404,-3.0404,-3.0404,-3.0404,-3.0404,-3.0404,-3.0404,-3.0404,-3.0404,-3.0404,-3.0404,-3.0404,-3.0404,-3.0404,-3.0385,-2.9525,-2.9088,-2.905,-2.7371,-2.6601,-2.5763,-2.6673,-2.7798,-2.7798,-2.8411,0.0,0.0,-2.9405,0.0,0.0,-2.9813,-2.9666,-2.9097,0.0,0.0,0.0,0.0,0.0,0.0,0.0,0.0,0.0,0.0,0.0,0.0,0.0,0.0,0.0,0.0,0.0,0.0,0.0,0.0,0.0,0.0,0.0,-2.8491,-2.768,-2.7079,-2.6737,-2.6492,-2.6973,-2.8052,-2.8632,-2.8803,-2.8679,-2.9236,-2.9486,-2.9492,-2.9517,-2.9211,-2.8775,-2.8787,-2.8861,-2.8942,-2.8991,-2.904,-2.9062,-2.9062,-2.9062,-2.918,-2.9785,-2.998,-3.0098,-3.0703,-3.0878,-3.0837,-3.0812,-3.0683,-3.0561,-3.0552,-3.0477,-3.0404,-3.0404,-3.0404,-3.0404,-3.0404,-3.0404,-3.0404,-3.0404,-3.0404,-3.0404,-3.0404,-3.0404,-3.0404,-3.0404,-3.0404,-3.0404,-3.0404,-3.0404,-3.0404,-3.0404,-3.0404,-3.0404,-3.0404,-3.0404,-3.0404,-3.0404,-3.0404,-3.0404,-3.0404,-3.0404,-3.0404,-3.0404,-3.0404,-3.0096,-2.9486,-2.9223,-2.8492,-2.7332,-2.6832,-2.6269,-2.6664,-2.7454,-2.8282,-2.8282,-2.8638,-2.8917,-2.8626,0.0,0.0,0.0,-2.9315,-2.9226,-2.9032,0.0,0.0,0.0,0.0,0.0,0.0,0.0,0.0,0.0,0.0,0.0,0.0,0.0,0.0,0.0,0.0,0.0,0.0,0.0,0.0,0.0,0.0,0.0,-2.7497,-2.6709,-2.6117,-2.5755,-2.5437,-2.5681,-2.6396,-2.7368,-2.7803,-2.7817,-2.8374,-2.8626,-2.8626,-2.8626,-2.8371,-2.7965,-2.7992,-2.8045,-2.8132,-2.8171,-2.823,-2.8259,-2.8281,-2.8301,-2.8398,-2.8906,-2.9082,-2.918,-2.9707,-3.0117,-3.0371,-3.0348,-3.05,-3.0621,-3.0611,-3.0509,-3.0425,-3.0416,-3.0404,-3.0404,-3.0404,-3.0404,-3.0404,-3.0404,-3.0404,-3.0404,-3.0404,-3.0404,-3.0404,-3.0404,-3.0404,-3.0404,-3.0404,-3.0404,-3.0404,-3.0404,-3.0404,-3.0404,-3.0404,-3.0077,-2.989,-2.989,-2.9583,-2.9544,-2.9871,-3.0212,-3.0404,-3.0404,-3.0404,-2.9967,-2.9107,-2.878,-2.7928,-2.6601,-2.6231,-2.5808,-2.7783,-2.8558,-2.9005,-2.9005,-2.9005,0.0,-2.8106,-2.8156,-2.8446,-2.8791,0.0,-2.8106,0.0,0.0,0.0,0.0,0.0,0.0,0.0,0.0,0.0,0.0,0.0,0.0,0.0,0.0,0.0,0.0,0.0,0.0,0.0,0.0,0.0,0.0,0.0,0.0,-2.6502,-2.5686,-2.5283,0.0,-2.4548,-2.4294,-2.4505,-2.57,-2.6702,-2.7491,-2.77,-2.7741,-2.7659,-2.7761,-2.7736,-2.7675,-2.7722,-2.7749,-2.778,-2.7907,-2.7941,-2.7967,-2.8024,-2.8046,-2.8066,-2.8144,-2.8164,-2.8183,-2.8262,-2.8848,-2.9472,-2.9418,-2.9916,-3.0471,-3.0494,-3.0454,-3.0408,-3.04,-3.0402,-3.0404,-3.0404,-3.0404,-3.0404,-3.0404,-3.0404,-3.0404,-3.0404,-3.0404,-3.0404,-3.0404,-3.0404,-3.0404,-3.0404,-3.0404,-3.0404,-3.0404,-3.0404,-3.0404,-3.0404,-2.9679,-2.9184,-2.9107,-2.8492,-2.8415,-2.9069,-2.9794,-3.0212,-3.0288,-3.0212,-2.9737,-2.8876,-2.8145,-2.7332,-2.6467,-2.5673,-2.5308,-2.8449,-2.8663,-2.9005,-2.9005,-2.9005,-2.8881,-2.8394,-2.8143,-2.7936,-2.7704,-2.7779,0.0,0.0,0.0,0.0,0.0,0.0,0.0,0.0,0.0,0.0,0.0,0.0,0.0,0.0,0.0,0.0,0.0,0.0,0.0,0.0,0.0,0.0,0.0,0.0,-2.5668,-2.5668,-2.486,-2.4456,0.0,-2.4281,-2.4218,-2.4303,-2.5356,-2.6103,-2.6581,-2.6793,-2.6486,-2.5904,-2.6601,-2.6486,-2.587,-2.588,-2.591,-2.5952,-2.5981,-2.6037,-2.608,-2.6092,-2.6094,-2.6213,-2.6897,-2.7155,-2.733,-2.8014,-2.8395,-2.8574,-2.8554,-2.8642,-2.8894,-2.9569,-2.9657,-2.9729,-3.0395,-3.0492,-3.0404,-3.0404,-3.0404,-3.0404,-3.0404,-3.0404,-3.0404,-3.0404,-3.0404,-3.0404,-3.0404,-3.0404,-3.0404,-3.0404,-3.0404,-3.0404,-3.0404,-3.0404,-3.0404,-3.0404,-3.0231,-2.9833,-2.9146,-2.9583,-2.964,-2.9127,-2.8659,-2.8736,-2.9377,-2.8756,-2.8005,-2.714,-2.6967,-2.6428,-2.5577,-2.5385,-2.5308,-2.8439,-2.8801,0.0,-2.904,0.0,-2.8851,-2.8277,-2.7749,-2.7208,-2.6613,0.0,0.0,0.0,0.0,0.0,0.0,0.0,0.0,0.0,0.0,0.0,0.0,0.0,0.0,0.0,0.0,0.0,0.0,0.0,0.0,0.0,0.0,0.0,0.0,-2.5034,-2.4824,-2.4824,-2.441,-2.419,-2.419,-2.419,-2.419,-2.4218,-2.4845,-2.5333,-2.5678,-2.58,-2.5636,-2.5346,-2.5788,-2.5712,-2.5308,-2.5308,-2.5327,-2.537,-2.5391,-2.5421,-2.5465,-2.5481,-2.5491,-2.5569,-2.6021,-2.6197,-2.6321,-2.6809,-2.7272,-2.7633,-2.7676,-2.7947,-2.8351,-2.88,-2.9169,-2.95,-2.997,-3.0293,-3.0491,-3.0447,-3.0456,-3.0436,-3.0416,-3.0404,-3.0404,-3.0404,-3.0404,-3.0404,-3.0404,-3.0404,-3.0404,-3.0404,-3.0404,-3.0414,-3.0446,-3.0456,-3.0462,-3.0481,-2.9765,-2.9107,-2.8646,-2.8251,-2.8034,-2.7999,-2.7191,-2.7492,-2.9069,-2.8319,-2.7467,-2.6601,-2.6601,-2.6154,-2.5308,-2.5308,-2.5308,-2.8075,-2.8643,-2.9093,-2.9026,-2.9005,0.0,-2.7969,-2.7317,-2.6615,-2.569,0.0,0.0,0.0,0.0,0.0,0.0,0.0,0.0,0.0,0.0,0.0,0.0,0.0,0.0,0.0,0.0,0.0,0.0,0.0,0.0,0.0,0.0,-2.4103,-2.4103,-2.4042,-2.3988,-2.3988,-2.3859,-2.3786,-2.3786,-2.3933,-2.3988,-2.3997,-2.4319,-2.4628,-2.4924,-2.4955,-2.5071,-2.5253,-2.5253,-2.5269,-2.5308,-2.5308,-2.5308,-2.5303,-2.5367,-2.5383,-2.5395,-2.545,-2.5474,-2.5474,-2.5474,-2.5463,-2.5484,-2.5551,-2.608,-2.6682,-2.6736,-2.7285,-2.7891,-2.8047,-2.8686,-2.9335,-2.9473,-3.009,-3.0639,-3.0537,-3.0528,-3.0498,-3.0446,-3.0422,-3.0414,-3.041,-3.0408,-3.0425,-3.0425,-3.0428,-3.0425,-3.0425,-3.0425,-3.0472,-3.052,-3.0528,-3.0545,-3.06,-2.9183,-2.8246,-2.8112,-2.6889,-2.634,-2.6779,-2.6242,-2.6825,-2.8675,-2.7899,-2.7128,-2.6414,-2.6414,-2.6048,-2.5335,-2.5312,-2.5322,-2.7384,0.0,-2.8173,0.0,-2.9005,-2.8692,0.0,0.0,-2.6749,0.0,0.0,0.0,0.0,0.0,0.0,0.0,0.0,0.0,0.0,0.0,0.0,0.0,0.0,0.0,0.0,0.0,0.0,0.0,0.0,0.0,0.0,-2.3774,-2.3774,-2.3774,-2.3369,-2.3153,-2.3153,-2.2464,-2.2125,-2.2125,-2.2832,-2.3153,-2.3171,-2.3915,-2.4357,-2.4583,-2.4749,-2.4904,-2.5034,-2.5034,-2.5146,-2.5308,-2.5308,-2.5308,-2.5308,-2.5308,-2.5313,-2.5317,-2.5312,-2.534,-2.534,-2.534,-2.5371,-2.5415,-2.5425,-2.5595,-2.5779,-2.5782,-2.5913,-2.6211,-2.6973,-2.7812,-2.8652,-2.9414,-3.0233,-3.081,-3.0639,-3.0587,-3.0584,-3.0571,-3.0521,-3.0477,-3.0408,-3.0456,-3.0495,-3.0495,-3.0537,-3.0571,-3.0571,-3.0571,-3.0575,-3.0587,-3.0587,-3.0594,-3.0603,-2.9702,-2.8846,-2.8132,-2.8535,-2.8182,-2.6857,-2.7407,-2.7554,-2.7116,-2.6254,-2.5751,-2.5657,-2.5657,-2.5599,-2.546,-2.5408,-2.5391,-2.771,-2.8173,-2.8565,0.0,-2.9005,-2.865,-2.7294,0.0,-2.5887,0.0,0.0,0.0,0.0,0.0,0.0,0.0,0.0,0.0,0.0,0.0,0.0,0.0,0.0,0.0,0.0,0.0,0.0,0.0,0.0,0.0,-2.3403,-2.3033,-2.2876,-2.3022,-2.2432,0.0,-2.2336,-2.1978,-2.1794,-2.1794,-2.2161,-2.2336,-2.2336,-2.2694,-2.3453,-2.4503,-2.4583,-2.4727,-2.4884,-2.4884,-2.4949,-2.5037,-2.5107,-2.5122,-2.5152,-2.5259,-2.5308,-2.5308,-2.5308,-2.5308,-2.5308,-2.5308,-2.5327,-2.5346,-2.5395,-2.5444,-2.5491,-2.557,-2.561,-2.5737,-2.6152,-2.6914,-2.7793,-2.8652,-2.9531,-3.0272,-3.0687,-3.0702,-3.0633,-3.0611,-3.0575,-3.0397,-2.9876,-2.9808,-2.9822,-2.9822,-2.9464,-2.9543,-3.0486,-3.0172,-3.0072,-3.0601,-3.0663,-3.0498,-3.0073,-2.9234,-2.8374,-2.7536,-2.7358,-2.6948,-2.6207,-2.6559,-2.6579,-2.6188,-2.5736,-2.5491,-2.5491,-2.5491,-2.5491,-2.5491,-2.546,-2.5465,0.0,0.0,-2.8496,-2.8661,-2.8858,-2.8595,0.0,0.0,0.0,0.0,0.0,0.0,0.0,0.0,0.0,0.0,0.0,0.0,0.0,0.0,0.0,0.0,0.0,0.0,0.0,0.0,0.0,0.0,0.0,0.0,-2.25,-2.1994,-2.1817,-2.209,-2.1445,-2.1216,-2.1473,-2.1262,-2.1151,-2.117,-2.1372,-2.1482,-2.1482,-2.1702,-2.2541,-2.3805,-2.3805,-2.3918,-2.4117,-2.4335,-2.444,-2.4497,-2.4822,-2.4943,-2.4962,-2.5152,-2.5219,-2.5224,-2.5274,-2.5308,-2.5308,-2.5308,-2.5308,-2.5308,-2.5363,-2.5387,-2.5415,-2.5529,-2.5567,-2.5606,-2.5661,-2.6328,-2.7226,-2.8086,-2.8965,-2.9844,-3.0703,-3.064,-3.0463,-3.0606,-3.028,-2.9844,-2.9371,-2.913,-2.9026,-2.9026,-2.8513,-2.8602,-2.9853,-2.9442,-2.9402,-3.0313,-3.0414,-3.0207,-2.9648,-2.8809,-2.793,-2.7051,-2.6387,-2.5937,-2.5703,-2.5918,-2.5937,-2.5703,-2.5602,-2.5552,-2.5552,-2.5552,-2.5552,-2.5552,-2.5539,-2.5533,0.0,-2.6565,0.0,-2.7724,-2.8448,0.0,0.0,0.0,0.0,0.0,0.0,0.0,0.0,0.0,0.0,0.0,0.0,0.0,0.0,0.0,0.0,0.0,0.0,0.0,0.0,0.0,0.0,0.0,0.0,0.0,-2.0616,-2.0605,-2.0707,-2.0972,-2.0521,-2.0353,-2.0558,-1.9803,-1.9426,-1.9444,-2.0199,-2.0566,-2.0603,-2.1418,-2.1858,-2.1948,-2.1948,-2.2027,-2.22,-2.3044,-2.345,-2.364,-2.4478,-2.4818,-2.484,-2.4962,-2.5016,-2.504,-2.5224,-2.5308,-2.5308,-2.5308,-2.5308,-2.5308,-2.5293,-2.5346,-2.5394,-2.5404,-2.5493,-2.5602,-2.5603,-2.6303,-2.7226,-2.8086,-2.8965,-2.9844,-3.0703,-3.0254,-2.9861,-3.0562,-2.9401,-2.8526,-2.9185,-2.8721,-2.8267,-2.8267,-2.8273,-2.832,-2.8417,-2.8378,-2.8691,-2.9551,-2.9668,-2.9648,-2.9609,-2.8809,-2.793,-2.7051,-2.6953,-2.6562,-2.5723,-2.6484,-2.6543,-2.5723,-2.5683,-2.5683,-2.5683,-2.5683,-2.5683,-2.5683,-2.5611,-2.5599,0.0,0.0,0.0,-2.7163,-2.7335,-2.7109,-2.5819,0.0,0.0,0.0,0.0,0.0,0.0,0.0,0.0,0.0,0.0,0.0,0.0,0.0,0.0,0.0,0.0,0.0,0.0,0.0,0.0,0.0,0.0,0.0,-2.0167,-1.9735,-1.9596,-1.9859,-1.9418,-1.9291,-1.9528,-1.9083,-1.8939,-1.9119,-1.9409,-1.9593,-1.9748,-2.005,-2.0197,-2.0197,-2.0197,-2.0833,-2.1892,-2.2197,-2.2358,-2.2503,-2.3456,-2.3839,-2.3926,-2.4625,-2.4936,-2.5016,-2.5088,-2.5198,-2.5308,-2.5308,-2.5308,-2.5308,-2.5308,-2.5322,-2.5333,-2.5387,-2.5431,-2.5498,-2.5588,-2.5844,-2.6322,-2.7246,-2.8125,-2.8848,-2.916,-2.9434,-2.9511,-2.9216,-2.8668,-2.8177,-2.7876,-2.7608,-2.7437,-2.7437,-2.6972,-2.7031,-2.8164,-2.7812,-2.7793,-2.8672,-2.8769,-2.8535,-2.7988,-2.7656,-2.709,-2.6211,-2.6172,-2.6035,-2.5703,-2.5996,-2.6016,-2.5703,-2.5703,-2.5703,-2.5703,-2.5703,-2.5703,-2.5703,-2.5682,-2.5661,-2.5825,0.0,0.0,0.0,0.0,-2.6321,-2.5299,0.0,0.0,0.0,0.0,0.0,0.0,0.0,0.0,0.0,0.0,0.0,0.0,0.0,0.0,0.0,0.0,0.0,0.0,0.0,0.0,0.0,0.0,0.0,-1.927,-1.8797,-1.866,-1.892,-1.8713,-1.8697,-1.8852,-1.8697,-1.8734,-1.901,-1.901,-1.9077,-1.9206,-1.9206,-1.9206,-1.9206,-1.9206,-1.9876,-2.0986,-2.1262,-2.1363,-2.1454,-2.2424,-2.2963,-2.3285,-2.4031,-2.4525,-2.4852,-2.4968,-2.5088,-2.5214,-2.5274,-2.5308,-2.5308,-2.5308,-2.5308,-2.5303,-2.5346,-2.5372,-2.5431,-2.5517,-2.5779,-2.6195,-2.6855,-2.7676,-2.8223,-2.793,-2.832,-2.8633,-2.8359,-2.7832,-2.7344,-2.7051,-2.6758,-2.6562,-2.6562,-2.6074,-2.6113,-2.7285,-2.6914,-2.6894,-2.7732,-2.783,-2.7593,-2.6983,-2.6948,-2.6599,-2.572,-2.5683,-2.5703,-2.5703,-2.5703,-2.5703,-2.5703,-2.5703,-2.5703,-2.5703,-2.5703,-2.5703,-2.5703,-2.5703,-2.5703,0.0,0.0,0.0,0.0,0.0,0.0,0.0,0.0,0.0,0.0,0.0,0.0,0.0,0.0,0.0,0.0,0.0,0.0,0.0,0.0,0.0,0.0,0.0,0.0,0.0,0.0,0.0,0.0,0.0,-1.78,-1.78,-1.78,-1.7916,-1.8187,-1.844,-1.8576,-1.8585,-1.8576,-1.8715,-1.8984,-1.8984,-1.8975,-1.9002,-1.9002,-1.9002,-1.9002,-1.9002,-1.9101,-1.9344,-2.0144,-2.0448,-2.0548,-2.1427,-2.2244,-2.2941,-2.3165,-2.3758,-2.4468,-2.4821,-2.496,-2.4984,-2.5219,-2.5298,-2.5284,-2.5284,-2.5303,-2.5308,-2.5308,-2.5352,-2.5398,-2.5409,-2.6136,-2.6878,-2.6933,-2.7598,-2.7988,-2.7148,-2.6953,-2.7207,-2.8066,-2.6855,-2.5977,-2.6816,-2.6269,-2.5703,-2.5703,-2.5703,-2.5703,-2.5703,-2.5703,-2.5994,-2.6777,-2.6852,-2.6837,-2.677,-2.6811,-2.6499,-2.5659,-2.566,-2.5683,-2.5683,-2.5683,-2.5683,-2.5683,-2.5683,-2.5683,-2.5683,-2.5703,-2.5703,-2.5703,-2.5703,-2.5703,-2.5224,0.0,0.0,0.0,0.0,0.0,0.0,0.0,0.0,0.0,0.0,0.0,0.0,0.0,0.0,0.0,0.0,0.0,0.0,0.0,0.0,0.0,0.0,0.0,0.0,0.0,0.0,0.0,-1.78,-1.78,-1.78,-1.78,-1.7916,-1.8187,-1.8072,-1.8103,-1.831,-1.8114,-1.8156,-1.842,-1.842,-1.8518,-1.8715,-1.8715,-1.8715,-1.8715,-1.8715,-1.8852,-1.9102,-1.9483,-1.962,-1.9711,-2.0537,-2.1006,-2.1272,-2.1954,-2.2428,-2.2809,-2.3514,-2.3832,-2.4023,-2.4726,-2.4993,-2.5088,-2.5088,-2.5173,-2.5308,-2.5308,-2.5313,-2.5339,-2.5391,-2.5649,-2.5901,-2.5978,-2.6179,-2.6281,-2.6093,-2.6055,-2.6133,-2.6367,-2.6035,-2.5781,-2.6016,-2.5859,-2.5703,-2.5703,-2.5703,-2.5703,-2.5703,-2.566,-2.5708,-2.5935,-2.5928,-2.5881,-2.5865,-2.5879,-2.579,-2.5535,-2.5549,-2.5556,-2.5556,-2.5556,-2.5556,-2.5556,-2.5556,-2.5556,-2.5556,-2.5658,-2.5703,-2.5703,-2.5703,-2.5703,-2.5303,-2.5152,0.0,0.0,0.0,0.0,0.0,-2.3538,0.0,0.0,0.0,0.0,0.0,0.0,0.0,0.0,0.0,0.0,0.0,0.0,0.0,0.0,0.0,0.0,0.0,0.0,0.0,0.0,-1.78,-1.78,-1.78,-1.78,-1.7861,-1.8035,-1.7872,-1.7889,-1.8035,-1.7872,-1.7927,-1.8198,-1.8198,-1.8116,-1.7968,-1.7968,-1.7968,-1.7968,-1.7968,-1.8294,-1.8834,-1.8965,-1.9113,-1.9352,-1.9822,-2.0199,-2.0566,-2.107,-2.1537,-2.1999,-2.255,-2.2813,-2.3023,-2.3952,-2.4313,-2.4448,-2.4872,-2.5088,-2.5198,-2.5274,-2.5308,-2.5317,-2.5383,-2.5431,-2.5485,-2.5547,-2.5572,-2.5606,-2.5658,-2.5683,-2.5703,-2.5703,-2.5703,-2.5703,-2.5703,-2.5703,-2.5703,-2.5703,-2.5682,-2.566,-2.566,-2.5602,-2.5551,-2.5529,-2.5473,-2.5453,-2.5415,-2.5447,-2.5465,-2.5462,-2.5473,-2.5491,-2.5491,-2.5491,-2.5491,-2.5491,-2.5491,-2.5491,-2.5491,-2.557,-2.5633,-2.566,-2.5683,-2.5703,-2.536,-2.5179,-2.5003,-2.4897,0.0,0.0,-2.4116,-2.3613,0.0,0.0,0.0,0.0,0.0,0.0,0.0,0.0,0.0,0.0,0.0,0.0,0.0,0.0,0.0,0.0,0.0,0.0,-1.78,-1.78,-1.78,-1.78,-1.78,-1.78,-1.78,-1.78,-1.78,-1.7749,-1.7693,-1.7693,-1.7763,-1.7914,-1.7914,-1.7572,-1.6926,-1.6926,-1.6926,-1.6926,-1.6926,-1.7495,-1.8433,-1.8433,-1.8753,-1.9227,-1.9251,-1.969,-2.035,-2.0356,-2.0868,-2.1552,-2.1762,-2.1831,-2.1992,-2.299,-2.3316,-2.3496,-2.4423,-2.4783,-2.4925,-2.5215,-2.5308,-2.5313,-2.5368,-2.5395,-2.5417,-2.5463,-2.5545,-2.5597,-2.5601,-2.5658,-2.5703,-2.5703,-2.5703,-2.5703,-2.5703,-2.5703,-2.5703,-2.5683,-2.5636,-2.5601,-2.5597,-2.5537,-2.5474,-2.5401,-2.5383,-2.5352,-2.5317,-2.5354,-2.5391,-2.5383,-2.5447,-2.5488,-2.5488,-2.5488,-2.5488,-2.5488,-2.5488,-2.5488,-2.5488,-2.5484,-2.5537,-2.5597,-2.5658,-2.5682,-2.5561,-2.5315,-2.505,-2.4246,0.0,0.0,-2.2675,-2.2364,0.0,0.0,0.0,0.0,0.0,0.0,0.0,0.0,0.0,0.0,0.0,0.0,0.0,0.0,0.0,0.0,0.0,0.0,-1.78,-1.78,-1.78,-1.78,-1.78,-1.78,-1.78,-1.78,-1.78,-1.7507,-1.6925,-1.6908,-1.6652,-1.6108,-1.6108,-1.604,-1.5887,-1.5887,-1.5887,-1.5887,-1.5887,-1.6463,-1.7379,-1.7379,-1.7918,-1.8762,-1.8974,-1.9151,-1.9321,-1.9465,-1.9646,-1.9874,-2.0549,-2.0786,-2.0941,-2.1847,-2.2195,-2.2348,-2.2721,-2.3391,-2.4216,-2.5066,-2.5308,-2.5293,-2.5322,-2.5327,-2.5339,-2.5406,-2.5477,-2.5522,-2.5595,-2.5658,-2.5703,-2.5703,-2.5703,-2.5703,-2.5703,-2.5703,-2.5683,-2.5633,-2.5605,-2.5572,-2.5535,-2.5465,-2.5404,-2.5394,-2.535,-2.5317,-2.5308,-2.5313,-2.5327,-2.5322,-2.533,-2.5344,-2.5344,-2.5344,-2.5344,-2.5344,-2.5344,-2.5344,-2.5344,-2.545,-2.5517,-2.5529,-2.5539,-2.5545,-2.555,-2.5387,-2.5224,-2.4685,0.0,0.0,0.0,0.0,-2.1583,0.0,0.0,0.0,0.0,0.0,0.0,0.0,0.0,0.0,0.0,0.0,0.0,0.0,0.0,0.0,0.0,0.0,-1.8746,-1.8386,-1.8014,-1.78,-1.78,-1.78,-1.78,-1.78,-1.7439,-1.7077,-1.6699,-1.6333,-1.5977,-1.5595,-1.5595,-1.5409,-1.5044,-1.5044,-1.5044,-1.5044,-1.5044,-1.5751,-1.6897,-1.6897,-1.7414,-1.8239,-1.8632,-1.8887,-1.9001,-1.9109,-1.9204,-1.9352,-1.9767,-1.9895,-2.0042,-2.0886,-2.1207,-2.1368,-2.1971,-2.2912,-2.3935,-2.4534,-2.4981,-2.5308,-2.5308,-2.5308,-2.5303,-2.5344,-2.5406,-2.5479,-2.5541,-2.5603,-2.566,-2.5683,-2.5703,-2.5703,-2.5703,-2.5662,-2.5636,-2.5604,-2.5547,-2.5498,-2.5456,-2.5387,-2.5342,-2.5346,-2.5327,-2.5308,-2.5308,-2.5308,-2.5308,-2.5308,-2.5308,-2.5308,-2.5308,-2.5308,-2.5308,-2.5308,-2.5308,-2.5308,-2.5308,-2.5371,-2.5431,-2.5453,-2.5473,-2.5491,0.0,0.0,0.0,0.0,0.0,-2.3054,0.0,0.0,0.0,-2.1498,0.0,0.0,0.0,0.0,0.0,0.0,0.0,0.0,0.0,0.0,0.0,0.0,0.0,0.0,0.0,0.0,-1.9541,-1.8944,-1.8217,-1.785,-1.8003,-1.7884,-1.78,-1.78,-1.7219,-1.6773,-1.6485,-1.591,-1.546,-1.5182,-1.5182,-1.4868,-1.4284,-1.4284,-1.4284,-1.4284,-1.4284,-1.5037,-1.6282,-1.6434,-1.6925,-1.7652,-1.8288,-1.8669,-1.8843,-1.8905,-1.9034,-1.9162,-1.9219,-1.9235,-1.9371,-2.0044,-2.0296,-2.0515,-2.1481,-2.2495,-2.3414,-2.3919,-2.4548,-2.5096,-2.5269,-2.5308,-2.5308,-2.5308,-2.5346,-2.5411,-2.5479,-2.5547,-2.5628,-2.5662,-2.5683,-2.5703,-2.5683,-2.5635,-2.5597,-2.5561,-2.5479,-2.5402,-2.5372,-2.533,-2.5308,-2.5308,-2.5308,-2.5308,-2.5308,-2.5308,-2.5308,-2.5308,-2.5308,-2.5308,-2.5308,-2.5308,-2.5308,-2.5308,-2.5308,-2.5308,-2.5308,-2.5308,-2.534,-2.5372,-2.5434,-2.5468,0.0,0.0,0.0,0.0,-2.357,0.0,0.0,0.0,-2.1026,-2.0224,0.0,0.0,0.0,0.0,0.0,0.0,0.0,0.0,0.0,0.0,0.0,0.0,0.0,0.0,0.0,0.0,0.0,-1.8922,-1.8217,-1.8087,-1.8741,-1.8166,-1.78,-1.78,-1.7715,-1.705,-1.574,-1.5629,-1.4945,-1.365,-1.365,-1.3616,-1.3523,-1.3523,-1.3523,-1.3523,-1.3523,-1.3988,-1.4791,-1.546,-1.6164,-1.6923,-1.7876,-1.8259,-1.832,-1.8556,-1.8651,-1.8716,-1.894,-1.9026,-1.9087,-1.9345,-1.9557,-1.9866,-2.0686,-2.1236,-2.1906,-2.3408,-2.4033,-2.4394,-2.5115,-2.5308,-2.5308,-2.5308,-2.5342,-2.5406,-2.5404,-2.55,-2.5603,-2.5606,-2.566,-2.5683,-2.561,-2.5604,-2.5558,-2.5438,-2.5401,-2.5376,-2.5322,-2.5293,-2.5308,-2.5308,-2.5308,-2.5308,-2.5308,-2.5308,-2.5308,-2.5308,-2.5308,-2.5308,-2.5308,-2.5308,-2.5308,-2.5308,-2.5308,-2.5308,-2.5308,-2.5308,-2.5293,-2.5308,-2.5322,-2.5312,0.0,0.0,0.0,0.0,0.0,0.0,-2.1122,0.0,-2.056,0.0,0.0,0.0,0.0,0.0,0.0,0.0,0.0,0.0,0.0,0.0,0.0,0.0,0.0,0.0,0.0,0.0,0.0,0.0,0.0,-1.8572,-1.8877,-1.8606,-1.8251,-1.7817,-1.7388,-1.6671,-1.5612,-1.5189,-1.4445,-1.3396,-1.3396,-1.3396,-1.3396,-1.3396,-1.3396,-1.3396,-1.3396,-1.3828,-1.452,-1.4825,-1.5392,-1.614,-1.701,-1.7693,-1.8208,-1.833,-1.8469,-1.8631,-1.8734,-1.8878,-1.9026,-1.9227,-1.935,-1.9512,-1.9966,-2.0526,-2.1287,-2.2571,-2.3327,-2.3969,-2.4889,-2.5135,-2.5157,-2.5269,-2.5327,-2.5346,-2.5398,-2.5465,-2.5554,-2.5598,-2.5611,-2.563,-2.5554,-2.5547,-2.552,-2.5408,-2.5375,-2.533,-2.5293,-2.5308,-2.5308,-2.5308,-2.5308,-2.5308,-2.5308,-2.5179,-2.5135,-2.5135,-2.5049,-2.5019,-2.5019,-2.5019,-2.5019,-2.5019,-2.5019,-2.5019,-2.5019,-2.5019,-2.5019,-2.5006,-2.5217,-2.5248,-2.5636,0.0,0.0,0.0,0.0,0.0,0.0,0.0,0.0,0.0,0.0,0.0,0.0,0.0,0.0,0.0,0.0,0.0,0.0,0.0,0.0,0.0,0.0,0.0,0.0,0.0,0.0,0.0,0.0,0.0,-1.9515,-1.9142,-1.8657,-1.8115,-1.7196,-1.635,-1.5612,-1.4875,-1.4141,-1.3396,-1.3396,-1.3396,-1.3396,-1.3396,-1.3396,-1.3396,-1.332,-1.3632,-1.4216,-1.4338,-1.4761,-1.5392,-1.6333,-1.7154,-1.7817,-1.8013,-1.8208,-1.8391,-1.846,-1.8678,-1.894,-1.915,-1.9222,-1.9261,-1.9464,-1.9959,-2.0714,-2.1879,-2.2688,-2.3441,-2.4645,-2.4974,-2.5034,-2.5173,-2.5264,-2.5313,-2.5367,-2.5425,-2.5495,-2.5539,-2.5558,-2.5552,-2.5476,-2.5463,-2.5456,-2.5383,-2.533,-2.5308,-2.5308,-2.5259,-2.5214,-2.5214,-2.5182,-2.516,-2.516,-2.5024,-2.4962,-2.4962,-2.4855,-2.4804,-2.4804,-2.4804,-2.4804,-2.4804,-2.4804,-2.4804,-2.4804,-2.4804,-2.4775,-2.4723,-2.5018,-2.5084,0.0,0.0,0.0,-2.3453,0.0,0.0,0.0,0.0,-2.1246,0.0,0.0,0.0,0.0,0.0,0.0,0.0,0.0,0.0,0.0,0.0,0.0,0.0,0.0,0.0,0.0,0.0,0.0,0.0,0.0,0.0,-2.1038,-1.9718,-1.8888,-1.8872,-1.745,-1.635,-1.5612,-1.4875,-1.4141,-1.3396,-1.3396,-1.3396,-1.3396,-1.3396,-1.3396,-1.3379,-1.3129,-1.3173,-1.3481,-1.3929,-1.4274,-1.4673,-1.613,-1.6716,-1.6828,-1.7551,-1.7822,-1.785,-1.8114,-1.8391,-1.8669,-1.8923,-1.9001,-1.9043,-1.9261,-1.9456,-1.9968,-2.1551,-2.2178,-2.2714,-2.437,-2.4904,-2.501,-2.5016,-2.5157,-2.5308,-2.5293,-2.537,-2.5406,-2.5409,-2.5462,-2.5473,-2.5411,-2.5397,-2.5379,-2.5313,-2.5308,-2.5308,-2.5308,-2.5141,-2.5016,-2.5016,-2.4884,-2.4818,-2.4818,-2.4811,-2.4811,-2.4811,-2.4804,-2.4804,-2.4804,-2.4804,-2.4804,-2.4804,-2.4804,-2.4804,-2.4804,-2.4804,-2.47,-2.452,-2.4723,-2.4818,0.0,0.0,-2.3036,-2.3052,0.0,0.0,0.0,0.0,0.0,0.0,0.0,0.0,0.0,0.0,0.0,0.0,0.0,0.0,0.0,0.0,0.0,0.0,0.0,0.0,0.0,0.0,0.0,0.0,0.0,0.0,0.0,-2.0196,-1.9389,-1.891,-1.7946,-1.6847,-1.5612,-1.5185,-1.4362,-1.3129,-1.297,-1.2871,-1.2871,-1.2871,-1.2871,-1.2871,-1.2762,-1.2896,-1.3146,-1.3314,-1.3531,-1.3879,-1.4851,-1.5544,-1.613,-1.7343,-1.78,-1.7845,-1.8121,-1.8259,-1.841,-1.8861,-1.901,-1.9035,-1.9246,-1.9721,-2.0431,-2.1543,-2.2305,-2.3054,-2.4279,-2.4647,-2.473,-2.4955,-2.5046,-2.5146,-2.5269,-2.535,-2.5406,-2.5398,-2.5411,-2.5428,-2.5409,-2.5367,-2.5321,-2.5293,-2.5308,-2.5259,-2.5111,-2.504,-2.4968,-2.4889,-2.484,-2.4804,-2.4804,-2.4678,-2.4534,-2.4419,-2.441,-2.441,-2.441,-2.441,-2.441,-2.441,-2.441,-2.441,-2.441,-2.441,-2.4366,-2.4303,-2.4366,-2.4469,-2.3125,-2.2664,0.0,-2.2524,-2.1669,0.0,-2.1077,0.0,0.0,0.0,0.0,0.0,0.0,0.0,0.0,0.0,0.0,0.0,0.0,0.0,0.0,0.0,0.0,0.0,0.0,0.0,-1.8408,-1.9883,0.0,0.0,0.0,0.0,-2.0014,-1.914,-1.826,-1.7165,-1.5821,-1.5153,-1.4328,-1.3376,-1.2854,-1.2601,-1.2601,-1.2601,-1.2601,-1.2591,-1.2494,-1.2617,-1.286,-1.2741,-1.2862,-1.3196,-1.3927,-1.4509,-1.5131,-1.6783,-1.7563,-1.7822,-1.8003,-1.8068,-1.8125,-1.8566,-1.878,-1.8896,-1.9134,-1.9813,-2.0621,-2.118,-2.2134,-2.3079,-2.3459,-2.4016,-2.4482,-2.4472,-2.4739,-2.5065,-2.5259,-2.5335,-2.5352,-2.5363,-2.5367,-2.5352,-2.5363,-2.5269,-2.5179,-2.5179,-2.5179,-2.513,-2.4962,-2.4865,-2.4795,-2.4708,-2.4623,-2.4602,-2.4602,-2.4469,-2.4348,-2.4199,-2.419,-2.419,-2.419,-2.419,-2.419,-2.419,-2.419,-2.419,-2.419,-2.419,-2.419,-2.419,-2.419,-2.4266]},{"header":{"parameterUnit":"m.s-1","parameterCategory":1,"la1":30.6,"la2":29.2853,"lo1":-89.7004,"lo2":-87.6739,"dy":0.0162,"dx":0.0183,"nx":112,"ny":82,"refTime":"2024-07-13T00:00:00:Z","depth":0,"parameterNumber":3,"parameterNumberName":"V-component_of_WINDS"},"data":[0.0,0.0,0.0,0.0,0.0,0.0,0.0,0.0,0.0,0.0,0.0,0.0,0.0,0.0,0.0,0.0,0.0,0.0,0.0,0.0,0.0,0.0,0.0,0.0,0.0,0.0,0.0,0.0,0.0,0.0,0.0,0.0,0.0,0.0,0.0,0.0,0.0,0.0,0.0,0.0,0.0,0.0,0.0,0.0,0.0,0.0,0.0,0.0,0.0,0.0,0.0,0.0,0.0,0.0,0.0,0.0,0.0,0.0,0.0,0.0,0.0,0.0,0.0,0.0,0.0,0.0,0.0,0.0,0.0,0.0,0.0,0.0,0.0,0.0,0.0,0.0,0.0,0.0,0.0,0.0,0.0,0.0,0.0,0.0,0.0,0.0,0.0,0.0,0.0,0.0,-1.2445,-1.3278,-1.4546,-1.5311,-1.5264,-1.4763,-1.4159,-1.3573,0.0,0.0,0.0,0.0,0.0,0.0,0.0,0.0,0.0,0.0,0.0,0.0,0.0,0.0,0.0,0.0,0.0,0.0,0.0,0.0,0.0,0.0,0.0,0.0,0.0,0.0,0.0,0.0,0.0,0.0,0.0,0.0,0.0,0.0,0.0,0.0,0.0,0.0,0.0,0.0,0.0,0.0,0.0,0.0,0.0,0.0,0.0,0.0,0.0,0.0,0.0,0.0,0.0,0.0,0.0,0.0,0.0,0.0,0.0,0.0,0.0,0.0,0.0,0.0,0.0,0.0,0.0,0.0,0.0,0.0,0.0,0.0,0.0,0.0,0.0,0.0,0.0,0.0,0.0,0.0,0.0,0.0,0.0,0.0,0.0,0.0,0.0,0.0,0.0,0.0,0.0,0.0,0.0,0.0,0.0,0.0,0.0,0.0,0.0,0.0,0.0,0.0,0.0,0.0,-1.2966,-1.4819,-1.5033,-1.493,-1.4676,-1.4342,-1.3901,-1.3313,0.0,0.0,0.0,0.0,0.0,0.0,0.0,0.0,0.0,0.0,0.0,0.0,0.0,0.0,0.0,0.0,0.0,0.0,0.0,0.0,0.0,0.0,0.0,0.0,0.0,0.0,0.0,0.0,0.0,0.0,0.0,0.0,0.0,0.0,0.0,0.0,0.0,0.0,0.0,0.0,0.0,0.0,0.0,0.0,0.0,0.0,0.0,0.0,0.0,0.0,0.0,0.0,0.0,0.0,0.0,0.0,0.0,0.0,0.0,0.0,0.0,0.0,0.0,0.0,0.0,0.0,0.0,0.0,0.0,0.0,0.0,0.0,0.0,0.0,0.0,0.0,0.0,0.0,0.0,0.0,0.0,0.0,0.0,0.0,0.0,0.0,0.0,0.0,0.0,0.0,0.0,0.0,0.0,0.0,0.0,0.0,0.0,0.0,0.0,0.0,0.0,0.0,0.0,-1.3265,-1.3996,-1.5258,-1.5182,-1.4843,-1.4543,-1.4255,-1.3834,-1.3247,-1.3048,0.0,0.0,0.0,0.0,0.0,0.0,0.0,0.0,0.0,0.0,0.0,0.0,0.0,0.0,0.0,0.0,0.0,0.0,0.0,0.0,0.0,0.0,0.0,0.0,0.0,0.0,0.0,0.0,0.0,0.0,0.0,0.0,0.0,0.0,0.0,0.0,0.0,0.0,0.0,0.0,0.0,0.0,0.0,0.0,0.0,0.0,0.0,0.0,0.0,0.0,0.0,0.0,0.0,0.0,0.0,0.0,0.0,0.0,0.0,0.0,0.0,0.0,0.0,0.0,0.0,0.0,0.0,0.0,0.0,0.0,0.0,0.0,0.0,0.0,0.0,0.0,0.0,0.0,0.0,0.0,0.0,0.0,0.0,0.0,0.0,0.0,0.0,0.0,0.0,0.0,0.0,0.0,0.0,0.0,0.0,0.0,0.0,0.0,0.0,0.0,0.0,0.0,-1.4392,-1.4689,-1.5144,-1.499,-1.4736,-1.4442,-1.4088,-1.3654,-1.3133,-1.3239,0.0,0.0,0.0,0.0,0.0,0.0,0.0,0.0,0.0,0.0,0.0,0.0,0.0,0.0,0.0,0.0,0.0,0.0,0.0,0.0,0.0,0.0,0.0,0.0,0.0,0.0,0.0,0.0,0.0,0.0,0.0,0.0,0.0,0.0,0.0,0.0,0.0,0.0,0.0,0.0,0.0,0.0,0.0,0.0,0.0,0.0,0.0,0.0,0.0,0.0,0.0,0.0,0.0,0.0,0.0,0.0,0.0,0.0,0.0,0.0,0.0,0.0,0.0,0.0,0.0,0.0,0.0,0.0,0.0,0.0,0.0,0.0,0.0,0.0,0.0,0.0,0.0,0.0,0.0,0.0,0.0,0.0,0.0,0.0,0.0,0.0,0.0,0.0,0.0,0.0,0.0,0.0,0.0,0.0,0.0,0.0,0.0,0.0,0.0,0.0,0.0,0.0,-1.4139,-1.4536,-1.4576,-1.4563,-1.4436,-1.4142,-1.3601,-1.3133,-1.2837,-1.2785,0.0,0.0,0.0,0.0,0.0,0.0,0.0,0.0,0.0,0.0,0.0,0.0,0.0,0.0,0.0,0.0,0.0,0.0,0.0,0.0,0.0,0.0,0.0,0.0,0.0,0.0,0.0,0.0,0.0,0.0,0.0,0.0,0.0,0.0,0.0,0.0,0.0,0.0,0.0,0.0,0.0,0.0,0.0,0.0,0.0,0.0,0.0,0.0,0.0,0.0,0.0,0.0,0.0,0.0,0.0,0.0,0.0,0.0,0.0,0.0,0.0,0.0,0.0,0.0,0.0,0.0,0.0,0.0,0.0,0.0,0.0,0.0,0.0,0.0,0.0,0.0,0.0,0.0,0.0,0.0,0.0,0.0,0.0,0.0,0.0,0.0,0.0,0.0,0.0,0.0,0.0,0.0,0.0,0.0,0.0,0.0,0.0,0.0,0.0,0.0,0.0,0.0,-1.3888,-1.4315,0.0,-1.4522,-1.4402,-1.4115,-1.3714,-1.3267,-1.2817,0.0,0.0,0.0,0.0,0.0,0.0,0.0,0.0,0.0,0.0,0.0,0.0,0.0,0.0,0.0,0.0,0.0,0.0,0.0,0.0,0.0,0.0,0.0,0.0,0.0,0.0,0.0,0.0,0.0,0.0,0.0,0.0,0.0,0.0,0.0,0.0,0.0,0.0,0.0,0.0,0.0,0.0,0.0,0.0,0.0,0.0,0.0,0.0,0.0,0.0,0.0,0.0,0.0,0.0,0.0,0.0,0.0,0.0,0.0,0.0,0.0,0.0,0.0,0.0,0.0,0.0,0.0,0.0,0.0,0.0,0.0,0.0,0.0,0.0,0.0,0.0,0.0,0.0,0.0,0.0,0.0,0.0,0.0,0.0,0.0,0.0,0.0,0.0,0.0,0.0,0.0,0.0,0.0,0.0,0.0,0.0,0.0,0.0,0.0,0.0,0.0,0.0,-1.2973,-1.3661,-1.4162,0.0,-1.4382,-1.4262,-1.3975,-1.3587,-1.3106,-1.2543,0.0,0.0,0.0,0.0,0.0,0.0,0.0,0.0,0.0,0.0,0.0,0.0,0.0,0.0,0.0,0.0,0.0,0.0,0.0,0.0,0.0,0.0,0.0,0.0,0.0,0.0,0.0,0.0,0.0,0.0,0.0,0.0,0.0,0.0,0.0,0.0,0.0,0.0,0.0,0.0,0.0,0.0,0.0,0.0,0.0,0.0,0.0,0.0,0.0,0.0,0.0,0.0,0.0,0.0,0.0,0.0,0.0,0.0,0.0,0.0,0.0,0.0,0.0,0.0,0.0,0.0,0.0,0.0,0.0,0.0,0.0,0.0,0.0,0.0,0.0,0.0,0.0,0.0,0.0,0.0,0.0,0.0,0.0,0.0,0.0,0.0,0.0,0.0,0.0,0.0,0.0,0.0,0.0,0.0,0.0,0.0,0.0,0.0,0.0,0.0,0.0,0.0,-1.2737,-1.3561,-1.4082,-1.4082,-1.4082,-1.3961,-1.3626,-1.3093,-1.2536,0.0,0.0,0.0,0.0,0.0,0.0,0.0,0.0,0.0,0.0,0.0,0.0,0.0,0.0,0.0,0.0,0.0,0.0,0.0,0.0,0.0,0.0,0.0,0.0,0.0,0.0,0.0,0.0,0.0,0.0,0.0,0.0,0.0,0.0,0.0,0.0,0.0,0.0,0.0,0.0,0.0,0.0,0.0,0.0,0.0,0.0,0.0,0.0,0.0,0.0,0.0,0.0,0.0,0.0,0.0,0.0,0.0,0.0,0.0,0.0,0.0,0.0,0.0,0.0,0.0,0.0,0.0,0.0,0.0,0.0,0.0,0.0,0.0,0.0,0.0,0.0,0.0,0.0,0.0,0.0,0.0,0.0,0.0,0.0,0.0,0.0,0.0,0.0,0.0,0.0,0.0,0.0,0.0,0.0,0.0,0.0,0.0,0.0,0.0,0.0,0.0,0.0,0.0,-1.2154,-1.2913,-1.3547,-1.3713,-1.3733,-1.37,-1.3613,-1.3293,-1.2732,-1.1953,0.0,0.0,0.0,0.0,0.0,0.0,0.0,0.0,0.0,0.0,0.0,0.0,0.0,0.0,0.0,0.0,0.0,0.0,0.0,0.0,0.0,0.0,0.0,0.0,0.0,0.0,0.0,0.0,0.0,0.0,0.0,0.0,0.0,0.0,0.0,0.0,0.0,0.0,0.0,0.0,0.0,0.0,0.0,0.0,0.0,0.0,0.0,0.0,0.0,0.0,0.0,0.0,0.0,0.0,0.0,0.0,0.0,0.0,0.0,0.0,0.0,0.0,0.0,0.0,0.0,0.0,0.0,0.0,0.0,0.0,0.0,0.0,0.0,0.0,0.0,0.0,0.0,0.0,0.0,0.0,0.0,0.0,0.0,0.0,0.0,0.0,0.0,0.0,0.0,0.0,0.0,0.0,0.0,0.0,0.0,0.0,0.0,0.0,0.0,0.0,0.0,0.0,-1.1906,-1.2659,-1.328,-1.3413,-1.3427,-1.338,-1.3293,-1.3126,-1.2797,-1.2242,0.0,0.0,0.0,0.0,0.0,0.0,0.0,0.0,0.0,0.0,0.0,0.0,0.0,0.0,0.0,0.0,0.0,0.0,0.0,0.0,0.0,0.0,0.0,0.0,0.0,0.0,0.0,0.0,0.0,0.0,0.0,0.0,0.0,0.0,0.0,0.0,0.0,0.0,0.0,0.0,0.0,0.0,0.0,0.0,0.0,0.0,0.0,0.0,0.0,0.0,0.0,0.0,0.0,0.0,0.0,0.0,0.0,0.0,0.0,0.0,0.0,0.0,0.0,0.0,0.0,0.0,0.0,0.0,0.0,0.0,0.0,0.0,0.0,0.0,0.0,0.0,0.0,0.0,0.0,0.0,0.0,0.0,0.0,0.0,0.0,0.0,0.0,0.0,0.0,0.0,0.0,0.0,0.0,0.0,0.0,0.0,0.0,0.0,0.0,0.0,0.0,0.0,-1.1866,-1.2585,-1.314,-1.3166,-1.3166,-1.3053,-1.2811,-1.2784,-1.2772,-1.2713,0.0,0.0,0.0,0.0,0.0,0.0,0.0,0.0,0.0,0.0,0.0,0.0,0.0,0.0,0.0,0.0,0.0,0.0,0.0,0.0,0.0,0.0,0.0,0.0,0.0,0.0,0.0,0.0,0.0,0.0,0.0,0.0,0.0,0.0,0.0,0.0,0.0,0.0,0.0,0.0,0.0,0.0,0.0,0.0,0.0,0.0,0.0,0.0,0.0,0.0,0.0,0.0,0.0,0.0,0.0,0.0,0.0,0.0,0.0,0.0,-0.5908,0.0,0.0,0.0,0.0,0.0,0.0,0.0,0.0,0.0,0.0,0.0,0.0,0.0,0.0,0.0,0.0,0.0,0.0,0.0,0.0,0.0,0.0,0.0,0.0,0.0,0.0,0.0,0.0,0.0,0.0,0.0,0.0,0.0,0.0,0.0,0.0,0.0,0.0,0.0,0.0,0.0,-1.1523,-1.2091,-1.2585,-1.2857,-1.2884,-1.2857,-1.279,-1.2784,-1.2772,-1.2713,-1.268,0.0,0.0,0.0,0.0,0.0,0.0,0.0,0.0,0.0,0.0,0.0,0.0,0.0,0.0,0.0,0.0,0.0,0.0,0.0,0.0,0.0,0.0,0.0,0.0,0.0,0.0,0.0,0.0,0.0,0.0,0.0,0.0,0.0,0.0,0.0,0.0,0.0,0.0,0.0,0.0,0.0,0.0,0.0,0.0,0.0,0.0,0.0,0.0,0.0,0.0,0.0,0.0,0.0,0.0,0.0,0.0,0.0,0.0,0.0,0.0,-0.6084,0.0,0.0,0.0,0.0,0.0,0.0,0.0,0.0,0.0,0.0,0.0,0.0,0.0,0.0,0.0,0.0,0.0,0.0,0.0,0.0,0.0,0.0,0.0,0.0,0.0,0.0,0.0,0.0,0.0,0.0,0.0,0.0,0.0,0.0,0.0,0.0,0.0,0.0,0.0,0.0,-1.1389,-1.1937,-1.2365,-1.2556,-1.2569,-1.2569,-1.2569,-1.2569,-1.2751,-1.3256,-1.3269,0.0,0.0,0.0,0.0,0.0,0.0,0.0,0.0,0.0,0.0,0.0,0.0,0.0,0.0,0.0,0.0,0.0,0.0,0.0,0.0,0.0,0.0,0.0,0.0,0.0,0.0,0.0,0.0,0.0,0.0,0.0,0.0,0.0,0.0,0.0,0.0,0.0,0.0,0.0,0.0,0.0,0.0,0.0,0.0,0.0,0.0,0.0,0.0,0.0,0.0,0.0,0.0,0.0,0.0,-0.6776,-0.6776,-0.6776,-0.6776,-0.677,-0.6644,-0.6518,-0.6334,0.0,0.0,0.0,0.0,0.0,0.0,0.0,0.0,0.0,0.0,0.0,0.0,0.0,0.0,0.0,0.0,0.0,0.0,0.0,0.0,0.0,0.0,0.0,0.0,0.0,-1.1951,-1.2171,0.0,0.0,0.0,0.0,0.0,0.0,0.0,0.0,0.0,0.0,0.0,0.0,-1.1315,-1.1817,-1.2171,-1.2225,-1.2225,-1.2245,-1.2298,-1.2305,-1.2756,-1.3833,-1.3892,-1.4337,0.0,0.0,0.0,0.0,0.0,0.0,0.0,0.0,0.0,0.0,0.0,0.0,0.0,0.0,0.0,0.0,0.0,0.0,0.0,0.0,0.0,0.0,0.0,0.0,0.0,0.0,0.0,0.0,0.0,0.0,0.0,0.0,-0.1462,-0.2401,0.0,0.0,0.0,0.0,0.0,0.0,0.0,0.0,0.0,0.0,0.0,0.0,0.0,0.0,-0.6641,-0.6915,-0.6947,-0.6829,-0.697,-0.7038,-0.7038,-0.7038,-0.7038,-0.7038,-0.7018,0.0,-0.6474,-0.6351,0.0,0.0,0.0,0.0,0.0,0.0,0.0,0.0,0.0,0.0,0.0,0.0,0.0,0.0,0.0,0.0,0.0,0.0,0.0,0.0,0.0,0.0,-1.2238,-1.2198,-1.2245,-1.2278,0.0,-1.2017,-1.1806,-1.1436,0.0,0.0,0.0,0.0,0.0,0.0,0.0,0.0,-1.1049,-1.1336,-1.1637,-1.1933,-1.196,-1.2067,-1.2278,-1.2305,-1.2756,-1.3833,-1.3892,-1.4337,-1.5362,-1.541,0.0,0.0,0.0,0.0,0.0,0.0,0.0,0.0,0.0,0.0,0.0,0.0,0.0,0.0,0.0,0.0,0.0,0.0,0.0,0.0,0.0,0.0,0.0,0.0,0.0,0.0,0.0,0.0,0.0,-0.1208,-0.1844,-0.1252,-0.2484,-0.3377,0.0,0.0,0.0,0.0,0.0,0.0,0.0,0.0,0.0,-0.6837,-0.6997,-0.7078,-0.7078,-0.7204,-0.7197,-0.7004,-0.7065,-0.7095,-0.7095,-0.7095,-0.7095,-0.7095,-0.7095,-0.694,-0.6722,-0.6661,-0.6546,-0.6383,0.0,0.0,0.0,0.0,0.0,-0.6774,-0.6875,0.0,0.0,0.0,0.0,0.0,0.0,0.0,0.0,0.0,0.0,0.0,0.0,0.0,0.0,-1.2305,-1.2432,-1.2543,-1.2338,-1.2368,-1.2261,0.0,-1.1804,-1.1724,-1.1096,0.0,0.0,0.0,0.0,0.0,-1.0995,-1.1243,-1.1476,-1.1603,-1.1806,-1.1953,-1.2087,-1.2204,-1.2756,-1.3833,-1.3892,-1.4337,-1.5362,-1.541,-1.541,0.0,0.0,0.0,0.0,0.0,0.0,0.0,0.0,0.0,0.0,0.0,0.0,0.0,0.0,0.0,0.0,0.0,0.0,0.0,0.0,0.0,0.0,0.0,0.0,0.0,0.0,0.0,0.0,-0.1159,-0.1627,-0.0552,-0.1633,-0.2608,0.0,0.0,0.0,0.0,0.0,0.0,-0.6573,-0.6732,-0.6932,-0.7146,-0.7383,-0.7465,-0.7431,-0.7431,-0.7353,-0.7156,-0.7115,-0.7095,-0.7095,-0.7095,-0.7095,-0.7095,-0.7095,-0.7038,-0.6937,-0.69,-0.6841,-0.6675,-0.6457,-0.6354,-0.6334,-0.6146,-0.6532,-0.7218,-0.7355,-0.838,-0.9664,-0.9716,0.0,-1.1533,-1.1534,0.0,0.0,0.0,0.0,-1.2067,-1.2245,0.0,-1.2305,-1.2305,-1.2472,-1.261,-1.2351,-1.2516,-1.2543,0.0,-1.2151,-1.2071,-1.1343,0.0,0.0,0.0,0.0,-1.0914,-1.0914,-1.1069,-1.1229,-1.1309,-1.1516,-1.1739,-1.1893,-1.1997,-1.2516,-1.3534,-1.3506,-1.3876,-1.4745,-1.4991,-1.5079,-1.5079,0.0,0.0,0.0,0.0,0.0,0.0,0.0,0.0,0.0,0.0,0.0,0.0,0.0,0.0,0.0,0.0,0.0,0.0,0.0,0.0,0.0,0.0,0.0,0.0,0.0,0.0,0.0,0.0,0.0,-0.1399,-0.1445,0.0,0.0,0.0,0.0,-0.4751,-0.5845,-0.6583,-0.6849,-0.6997,-0.7193,-0.7356,-0.7638,-0.7726,-0.759,-0.7587,-0.7512,-0.7402,-0.721,-0.7095,-0.7095,-0.7095,-0.7095,-0.7095,-0.7095,-0.7092,-0.7075,-0.6943,-0.6841,-0.6685,-0.6566,-0.6501,-0.6484,-0.634,-0.6328,-0.6367,-0.6374,-0.6451,-0.6679,-0.7621,-0.9092,-1.0659,-1.1595,-1.1879,0.0,0.0,-1.2064,-1.2285,-1.2298,-1.2305,-1.2305,-1.2305,-1.2311,-1.2318,-1.2305,-1.2311,-1.2318,0.0,-1.2291,-1.2204,-1.1913,0.0,-1.1309,-1.1015,-1.078,-1.0613,-1.0613,-1.0626,-1.074,-1.0982,-1.1029,-1.1263,-1.1859,-1.1623,-1.1826,-1.268,-1.246,-1.2537,-1.3117,-1.3846,-1.4273,-1.4273,-1.5021,0.0,0.0,0.0,0.0,0.0,0.0,0.0,0.0,0.0,0.0,0.0,0.0,0.0,0.0,0.0,0.0,0.0,0.0,0.0,0.0,0.0,0.0,0.0,0.0,0.0,0.0,0.0,0.0,-0.0527,-0.1132,0.0,-0.2011,-0.2983,-0.3959,-0.489,-0.5362,-0.6071,-0.7152,-0.7353,-0.7502,-0.7648,-0.7851,-0.7885,-0.7736,-0.7736,-0.7611,-0.7415,-0.7316,-0.7238,-0.7095,-0.7095,-0.7095,-0.7095,-0.7095,-0.7045,-0.6957,-0.6906,-0.6856,-0.6831,-0.6678,-0.6559,-0.6494,-0.6354,-0.63,-0.63,-0.63,-0.6718,-0.7553,-0.921,-1.0576,-1.17,-1.2035,-1.2144,-1.2144,-1.2144,-1.2225,-1.2305,-1.2305,-1.2305,-1.2305,-1.2305,-1.2305,-1.2305,-1.2305,-1.2305,-1.2305,-1.2305,-1.2305,-1.2204,-1.1953,-1.1623,-1.1295,-1.1035,-1.078,-1.0593,-1.0593,-1.0754,-1.0875,-1.0982,-1.1156,-1.1356,-1.1563,-1.1483,-1.1675,-1.2328,-1.2746,-1.3215,-1.3743,-1.454,-1.4962,-1.4962,-1.5255,-1.541,0.0,0.0,0.0,0.0,0.0,0.0,0.0,0.0,0.0,0.0,0.0,0.0,0.0,0.0,0.0,0.0,0.0,0.0,0.0,0.0,0.0,0.0,0.0,0.0,0.0,0.0,-0.0124,-0.0504,-0.0862,-0.1217,-0.1572,-0.226,-0.3016,-0.393,-0.472,-0.5681,-0.6758,-0.7326,-0.7665,-0.7807,-0.7911,-0.7941,-0.7889,-0.779,-0.7641,-0.7448,-0.7343,-0.7241,-0.7095,-0.7095,-0.7095,-0.7095,-0.7095,-0.7014,-0.6886,-0.6886,-0.6868,-0.6766,-0.6664,-0.6563,-0.6494,-0.6354,-0.63,-0.6338,-0.6683,-0.748,-0.8575,-1.026,-1.1465,-1.2305,-1.2305,-1.2305,-1.2305,-1.2305,-1.2305,-1.2305,-1.2305,-1.2305,-1.2305,-1.2305,-1.2305,-1.2305,-1.2305,-1.2305,-1.2271,-1.2178,-1.2231,-1.2204,-1.1953,-1.1623,-1.1295,-1.1035,-1.078,-1.0593,-1.0593,-1.076,-1.0882,-1.0982,-1.1169,-1.1289,-1.1382,-1.1336,-1.1517,-1.2168,-1.2632,-1.3147,-1.3765,-1.4569,-1.4991,-1.4991,-1.5429,-1.5635,-1.5635,0.0,0.0,0.0,0.0,0.0,0.0,0.0,0.0,0.0,0.0,0.0,0.0,0.0,0.0,0.0,0.0,0.0,0.0,0.0,0.0,0.0,0.0,0.0,0.0,0.0,-0.0379,-0.1429,-0.0612,-0.0401,-0.1435,-0.168,-0.1745,-0.179,-0.402,-0.541,-0.5575,-0.6861,-0.7665,-0.7814,-0.7914,-0.7988,-0.7988,-0.775,-0.7604,-0.7597,-0.7247,-0.7102,-0.7095,-0.7095,-0.7095,-0.7095,-0.7095,-0.7014,-0.6879,-0.6879,-0.6742,-0.6508,-0.6511,-0.6508,-0.6491,-0.6351,-0.63,-0.6451,-0.7442,-0.8466,-0.9485,-1.049,-1.1465,-1.2305,-1.2305,-1.2305,-1.2305,-1.2305,-1.2305,-1.2305,-1.2305,-1.2305,-1.2305,-1.2305,-1.2291,-1.2285,-1.2285,-1.2278,-1.2191,-1.1946,-1.2084,-1.2184,-1.194,-1.161,-1.1282,-1.1035,-1.078,0.0,-1.0593,-1.06,-1.0713,-1.0962,-1.0995,-1.1109,-1.1355,-1.1149,-1.1329,-1.2114,-1.1944,-1.2174,-1.2978,-1.3803,-1.4231,-1.4261,-1.5489,-1.6105,-1.6095,0.0,0.0,0.0,0.0,0.0,0.0,0.0,0.0,0.0,0.0,0.0,0.0,0.0,0.0,0.0,0.0,0.0,0.0,0.0,0.0,0.0,0.0,0.0,0.0,0.0,-0.013,-0.0396,-0.0178,-0.0134,-0.0401,-0.0492,-0.0852,-0.1746,-0.3217,-0.4578,-0.5681,-0.691,-0.7716,-0.7921,-0.7968,-0.7988,-0.7988,-0.7848,-0.7702,-0.7597,-0.74,-0.7248,-0.7095,-0.7095,-0.7095,-0.7095,-0.7095,-0.6953,-0.6763,-0.6763,-0.6586,-0.6368,-0.647,-0.645,-0.6354,-0.6313,-0.63,-0.6451,-0.7442,-0.8466,-0.9485,-1.049,-1.1465,-1.2305,-1.2305,-1.2305,-1.2305,-1.2305,-1.2305,-1.2305,-1.2305,-1.2305,-1.2305,-1.2305,-1.2138,-1.2027,-1.2027,-1.1817,-1.1643,-1.1563,-1.161,-1.1608,-1.1563,-1.1303,-1.1082,-1.1002,0.0,0.0,-1.0593,-1.0774,-1.0935,-1.0982,-1.0995,-1.1022,-1.1102,-1.0842,-1.0803,-1.1019,-1.1512,-1.2174,-1.2978,-1.4088,-1.4983,-1.5578,-1.6195,-1.6387,0.0,0.0,0.0,0.0,0.0,0.0,0.0,0.0,0.0,0.0,0.0,0.0,0.0,0.0,0.0,0.0,0.0,0.0,0.0,0.0,0.0,0.0,0.0,0.0,0.0,0.0,0.0,0.0,0.0,0.0,0.0,0.0,-0.0269,-0.0986,-0.2147,-0.3262,-0.4163,-0.5905,-0.6933,-0.7143,-0.7707,-0.7958,-0.7894,-0.7797,-0.7648,-0.7502,-0.7346,-0.7227,-0.7095,-0.7095,-0.7095,0.0,-0.7034,-0.6876,-0.6695,-0.663,-0.6508,0.0,0.0,0.0,0.0,0.0,-0.63,-0.6451,-0.7442,-0.8466,-0.9485,-1.049,-1.1465,-1.2305,-1.2305,-1.2305,-1.2305,-1.2305,-1.2305,-1.2305,-1.2305,-1.2305,-1.2271,-1.2151,-1.2027,-1.1873,-1.171,-1.155,-1.1355,-1.1269,0.0,0.0,-1.1082,-1.1022,-1.0955,-1.0861,-1.07,-1.0593,0.0,-1.074,-1.0894,-1.0982,-1.0995,-1.0995,-1.0995,-1.0868,0.0,0.0,0.0,-1.2382,-1.3747,-1.4836,0.0,0.0,0.0,0.0,0.0,0.0,0.0,0.0,-1.7275,-1.7305,0.0,0.0,0.0,0.0,0.0,0.0,0.0,0.0,0.0,0.0,0.0,0.0,0.0,0.0,0.0,0.0,0.0,0.0,0.0,0.0,0.0,0.0,0.0,0.0,0.0,0.0,0.0,0.0,-0.1121,-0.1852,-0.1984,0.0,0.0,0.0,0.0,-0.7782,-0.7814,-0.7651,-0.7506,-0.7415,-0.7214,-0.7095,-0.7095,-0.7095,-0.7095,-0.7088,-0.6947,-0.6844,-0.6688,-0.6536,-0.6429,-0.63,-0.63,-0.63,-0.63,-0.63,-0.63,0.0,0.0,0.0,0.0,-1.0602,-1.1576,-1.2305,-1.2305,-1.2305,-1.2305,-1.2305,-1.2305,-1.2305,-1.2305,-1.2305,-1.2231,-1.1973,-1.1879,-1.1737,-1.1443,-1.1315,-1.1249,-1.0995,-1.0942,-1.0894,-1.0633,-1.0807,-1.0855,-1.0633,-1.0593,0.0,-1.0593,-1.0593,-1.0687,-1.0915,0.0,0.0,-1.0942,-1.0942,-1.1145,-1.1639,-1.1834,-1.2865,-1.4885,-1.5725,-1.6348,-1.6765,-1.7236,-1.7465,-1.7383,-1.7803,-1.8008,-1.7988,-1.7204,-1.7272,0.0,0.0,0.0,0.0,0.0,0.0,0.0,0.0,0.0,0.0,0.0,0.0,0.0,0.0,0.0,0.0,0.0,0.0,0.0,0.0,0.0,0.0,0.0,0.0,0.0,0.0,0.0,0.0,-0.1121,-0.1852,-0.1984,-0.3376,0.0,-0.595,-0.6131,-0.675,-0.7811,-0.7546,-0.7446,-0.7415,0.0,0.0,-0.7095,-0.7095,-0.7095,-0.7088,-0.6947,-0.6844,-0.6688,-0.6536,-0.6429,-0.63,-0.63,-0.63,-0.63,-0.63,-0.63,-0.6567,-0.8389,-0.9145,-0.9599,-1.1434,-1.215,-1.2305,-1.2305,-1.2305,0.0,-1.2305,-1.2305,-1.2305,-1.2305,-1.2305,-1.2231,-1.1973,-1.1683,-1.143,-1.1142,-1.0928,-1.0747,-1.0687,-1.0673,-1.066,-1.06,-1.064,-1.066,-1.06,-1.0593,-1.0593,-1.0593,-1.0593,-1.0613,-1.0673,-1.0673,-1.0673,-1.0673,-1.0673,-1.071,-1.0839,-1.2058,-1.3538,-1.5305,-1.6173,-1.6807,-1.7246,-1.7676,-1.7715,-1.7383,-1.7803,-1.8008,-1.8008,-1.7842,-1.8003,0.0,0.0,0.0,0.0,0.0,0.0,0.0,0.0,0.0,0.0,0.0,0.0,0.0,0.0,0.0,0.0,0.0,0.0,0.0,0.0,0.0,0.0,0.0,0.0,0.0,0.0,0.0,0.0,-0.0539,-0.0946,-0.1002,-0.2203,-0.3257,-0.3985,-0.5169,-0.607,-0.6691,-0.7165,-0.7333,-0.7255,-0.7132,-0.7058,-0.6991,-0.6991,-0.6991,-0.6977,-0.6797,-0.6702,-0.6681,-0.6497,-0.6364,-0.63,-0.63,-0.63,-0.63,-0.63,-0.63,-0.6451,-0.7442,-0.8466,-0.9448,-1.0464,-1.1477,-1.2305,-1.2305,-1.2305,-1.2305,-1.2305,-1.2305,-1.2305,-1.2305,-1.2191,-1.2011,-1.1717,-1.1423,-1.1129,-1.0868,-1.0693,-1.0593,-1.0593,-1.0593,-1.0593,-1.0593,-1.0593,-1.0593,-1.0593,-1.0593,-1.0593,-1.0593,-1.0593,-1.0593,-1.0593,-1.0593,-1.0593,-1.0593,-1.0593,-1.0593,-1.0593,-1.2128,-1.358,-1.4833,-1.6064,-1.7009,-1.7686,-1.79,-1.791,-1.7695,-1.791,-1.8008,-1.8008,-1.8008,-1.8208,0.0,0.0,0.0,0.0,0.0,0.0,0.0,0.0,0.0,0.0,0.0,0.0,0.0,0.0,0.0,0.0,0.0,0.0,0.0,0.0,0.0,0.0,0.0,0.0,0.0,0.0,0.0,0.0,0.0,0.0,0.0,-0.1002,-0.1748,-0.1985,-0.3962,-0.522,-0.5578,-0.656,-0.7037,-0.7095,-0.7095,-0.7021,-0.6886,-0.6886,-0.6869,-0.6868,-0.6593,-0.6566,-0.6597,-0.6399,-0.63,-0.63,-0.63,-0.63,-0.63,-0.63,-0.63,-0.6338,-0.6528,-0.7783,-0.9334,-0.9518,-1.0838,-1.2305,-1.2305,-1.2305,-1.2305,-1.2305,-1.2265,-1.2231,-1.2285,-1.2044,-1.1724,-1.1449,-1.1209,-1.0915,-1.0653,-1.0593,-1.0593,-1.0593,-1.0593,-1.0593,-1.0593,-1.0593,-1.0593,-1.0593,-1.0593,-1.0593,-1.0593,-1.0593,-1.0593,-1.0593,-1.0593,-1.0593,-1.0593,-1.0593,-1.0688,-1.0839,-1.2212,-1.3422,-1.4372,-1.5815,-1.6941,-1.7711,-1.7842,-1.7891,-1.7891,-1.7969,-1.8008,-1.8008,-1.8008,-1.8208,-0.0233,0.0,0.0,0.0,0.0,0.0,0.0,0.0,0.0,0.0,0.0,0.0,0.0,0.0,0.0,0.0,0.0,0.0,0.0,0.0,0.0,0.0,0.0,0.0,0.0,0.0,0.0,0.0,0.0,0.0,0.0,-0.0135,-0.0772,-0.1985,-0.218,-0.3311,-0.5575,-0.561,-0.613,-0.7095,-0.7095,-0.7021,-0.6886,-0.6886,-0.6854,-0.6715,-0.6546,-0.645,-0.6347,-0.6313,-0.63,-0.63,-0.63,-0.63,-0.63,-0.63,-0.63,-0.6416,-0.7326,-0.8351,-0.9448,-1.034,-1.1391,-1.2305,-1.2305,-1.2305,-1.2305,-1.2305,-1.2118,-1.2013,-1.2231,-1.1891,-1.147,-1.1395,-1.1209,-1.0915,-1.0653,-1.0593,-1.0593,-1.0593,-1.0593,-1.0593,-1.0593,-1.0593,-1.0593,-1.0593,-1.0593,-1.0593,-1.0593,-1.0593,-1.0593,-1.0593,-1.0593,-1.0593,-1.0593,-1.0593,-1.0895,-1.1617,-1.2512,-1.3559,-1.4791,-1.5695,-1.6367,-1.6833,-1.7256,-1.7484,-1.7484,-1.7832,-1.8008,-1.8008,-1.8008,-1.8208,-0.0095,0.0,0.0,0.0,0.0,0.0,0.0,0.0,0.0,0.0,0.0507,0.0936,0.0918,0.1396,0.1616,0.0,0.092,0.0704,0.0084,0.0,0.0,0.0,0.0,0.0,0.0,0.0,0.0,0.0,0.0,0.0,0.0,0.0,-0.0271,-0.0818,-0.1485,-0.229,-0.3397,-0.471,-0.5625,-0.6115,-0.6705,-0.6896,-0.6793,-0.6705,-0.6583,-0.6484,-0.6504,-0.6429,-0.63,-0.63,-0.63,-0.63,-0.63,-0.63,-0.63,-0.63,-0.6679,-0.7249,-0.7668,-0.8836,-1.0228,-1.0677,-1.1465,-1.2305,-1.2305,-1.2305,-1.2305,-1.2305,-1.2091,-1.1933,-1.2053,-1.1617,-1.1176,-1.1176,-1.0955,-1.074,-1.062,-1.0593,-1.0593,-1.0593,-1.0593,-1.0593,-1.0593,-1.0593,-1.0593,-1.0593,-1.0593,-1.0593,-1.0593,-1.0593,-1.0593,-1.0593,-1.0593,-1.0776,-1.1257,-1.1288,-1.1624,-1.2451,-1.3243,-1.4061,-1.4852,-1.568,-1.6279,-1.6687,-1.6882,-1.7129,-1.7383,-1.7559,-1.7773,-1.8008,-1.8008,-1.8105,0.0062,0.0,0.0,0.0,0.0,0.0,0.0,0.0,0.007,0.0315,0.0974,0.1597,0.1845,0.2536,0.2788,0.2068,0.2008,0.1633,0.0582,0.0443,0.0315,0.004,0.0,0.0,0.0,0.0,0.0,0.0,0.0,0.0,0.0,0.0,0.0,0.0,-0.0847,-0.1469,-0.179,-0.3554,-0.4751,-0.5403,-0.6077,-0.6502,-0.6695,-0.6542,-0.6399,-0.6306,-0.6409,-0.6395,-0.63,-0.63,-0.63,-0.63,-0.63,-0.63,-0.63,-0.63,-0.6756,-0.7442,-0.7706,-0.895,-1.0415,-1.0708,-1.1465,-1.2305,-1.2305,-1.2305,-1.2285,-1.2204,-1.1971,-1.175,-1.175,-1.1316,-1.0928,-1.0975,-1.0807,-1.0593,-1.0593,-1.0593,-1.0593,-1.0593,-1.0593,-1.0593,-1.0593,-1.0593,-1.0593,-1.0593,-1.0593,-1.0593,-1.0593,-1.0593,-1.0593,-1.0593,-1.0593,-1.0832,-1.1406,-1.1469,-1.1717,-1.2305,-1.3092,-1.3787,-1.4351,-1.5144,-1.5813,-1.6336,-1.6453,-1.6699,-1.7054,-1.7148,-1.7422,-1.7842,-1.7842,-1.79,0.0192,0.0,0.0,0.0,0.0,0.0,0.0,0.0,0.0238,0.1078,0.1294,0.16,0.2504,0.2811,0.288,0.2864,0.2955,0.2714,0.1707,0.1552,0.1147,0.0122,0.0,0.0,0.0,0.0,0.0,0.0,0.0,0.0,0.0,0.0,0.0,0.0,-0.0044,-0.0615,-0.179,-0.1885,-0.3065,-0.5403,-0.5241,-0.5684,-0.6692,-0.6439,-0.6303,-0.63,-0.6306,-0.6303,-0.63,-0.63,-0.63,-0.63,-0.63,-0.63,-0.63,-0.63,-0.6338,-0.649,-0.748,-0.8466,-0.9523,-1.049,-1.1465,-1.2305,-1.2305,-1.2305,-1.2245,-1.2,-1.167,-1.1409,-1.1409,-1.1009,-1.0673,-1.0922,-1.0807,-1.0593,-1.0593,-1.0593,-1.0593,-1.0593,-1.0593,-1.0593,-1.0593,-1.0593,-1.0593,-1.0593,-1.0593,-1.0593,-1.0593,-1.0593,-1.0593,-1.0593,-1.0593,-1.0624,-1.0618,-1.0656,-1.0656,-1.0688,-1.1437,-1.2235,-1.3025,-1.3833,-1.4627,-1.542,-1.5899,-1.6124,-1.6134,-1.6543,-1.6973,-1.7435,-1.7435,-1.7627,0.0812,0.037,0.0,0.0,0.0431,0.0873,0.0873,0.1342,0.1882,0.2169,0.2756,0.3332,0.3641,0.4377,0.4729,0.4053,0.4071,0.3776,0.2747,0.2695,0.237,0.1217,0.1126,0.0,0.0,0.0,0.0,0.0,0.0,0.0,0.0,0.0,0.0,0.0,0.0,-0.0214,-0.0602,-0.1406,-0.2211,-0.3039,-0.4351,-0.5485,-0.6446,-0.6344,-0.63,-0.63,-0.63,-0.63,-0.63,-0.63,-0.63,-0.63,-0.63,-0.63,-0.63,-0.63,-0.63,-0.6451,-0.7442,-0.8466,-0.9485,-1.049,-1.1013,-1.1428,-1.2114,-1.2305,-1.2238,-1.1986,-1.1657,-1.1349,-1.1189,-1.0888,-1.062,-1.0713,-1.0667,-1.0593,-1.0593,-1.0593,-1.0593,-1.0593,-1.0593,-1.0593,-1.0593,-1.0593,-1.0593,-1.0593,-1.0593,-1.0593,-1.0593,-1.0593,-1.0593,-1.0593,-1.0593,-1.1021,-1.2089,-1.2182,-1.2665,-1.3717,-1.4046,-1.4323,-1.4569,-1.4835,-1.5108,-1.5381,-1.5557,-1.5801,-1.6095,-1.6242,-1.6514,-1.6953,-1.6953,-1.7187,0.157,0.1132,0.0794,0.0787,0.1221,0.163,0.1713,0.2211,0.2746,0.3105,0.3666,0.423,0.4574,0.5313,0.5662,0.5078,0.5061,0.4836,0.3867,0.3845,0.3544,0.2447,0.2386,0.213,0.0,0.0,0.0,0.0043,0.0,0.0,0.0,0.0,0.0,0.0,0.0,0.0,0.0,-0.075,-0.1368,-0.1741,-0.3873,-0.5201,-0.5747,-0.6141,-0.63,-0.63,-0.63,-0.63,-0.63,-0.63,-0.63,-0.63,-0.63,-0.63,-0.63,-0.63,-0.63,-0.6451,-0.7442,-0.8237,-0.8917,-0.9927,-1.0265,-1.0453,-1.1465,-1.1768,-1.1765,-1.1717,-1.1577,-1.1336,-1.0942,-1.0734,-1.0593,-1.0593,-1.0593,-1.0593,-1.0593,-1.0593,-1.0593,-1.0593,-1.0593,-1.0593,-1.0593,-1.0593,-1.0593,-1.0593,-1.0593,-1.0593,-1.0593,-1.0593,-1.0593,-1.0593,-1.0593,-1.1021,-1.2058,-1.2151,-1.2573,-1.3627,-1.3957,-1.4225,-1.454,-1.4815,-1.5108,-1.5381,-1.541,-1.5547,-1.586,-1.586,-1.6064,-1.6494,-1.6494,-1.6728,0.2434,0.2224,0.2214,0.219,0.2239,0.2322,0.2522,0.2604,0.2916,0.386,0.4082,0.435,0.5226,0.0,0.5644,0.5779,0.5935,0.5759,0.5068,0.4985,0.4659,0.0,0.0,0.0,0.0,0.0,0.0,0.0174,0.0,0.0,0.0,0.0,0.0,0.0,0.0,0.0,0.0,0.0,-0.0528,-0.1621,-0.372,-0.4713,-0.4727,-0.5741,-0.6247,-0.6286,-0.6286,-0.6286,-0.6289,-0.6296,-0.63,-0.63,-0.63,-0.63,-0.6296,-0.6289,-0.6286,-0.644,-0.7379,-0.7689,-0.7897,-0.8884,-0.9221,-0.941,-1.0415,-1.074,-1.085,-1.1229,-1.1348,-1.1276,-1.074,-1.0593,-1.0593,-1.0593,-1.0593,-1.0593,-1.0593,-1.0593,-1.0593,-1.0593,-1.0593,-1.0593,-1.0593,-1.0593,-1.0593,-1.0593,-1.0593,-1.0593,-1.0593,-1.0593,-1.0593,-1.0593,-1.0593,-1.0624,-1.0649,-1.0649,-1.0681,-1.0713,-1.1445,-1.2205,-1.2978,-1.3726,-1.451,-1.5264,-1.5294,-1.5294,-1.5352,-1.5352,-1.5595,-1.6056,-1.6056,-1.6269,0.307,0.2617,0.2201,0.2191,0.2717,0.3281,0.3439,0.3974,0.456,0.4959,0.5057,0.5123,0.5359,0.5607,0.0,0.5796,0.6027,0.0,0.6085,0.6159,0.0,0.4827,0.0,0.4572,0.3701,0.2491,0.0,0.0,0.0524,0.0,0.0,0.0,0.0,0.0,0.0,0.0,0.0,0.0,-0.0554,-0.1622,-0.2174,-0.3226,-0.4724,-0.4868,-0.5362,-0.6088,-0.6088,-0.6088,-0.6098,-0.6252,-0.63,-0.63,-0.63,-0.63,-0.6286,-0.6132,-0.6088,-0.6108,-0.6247,-0.6476,-0.6834,-0.7859,-0.8199,-0.8389,-0.9367,-1.0068,-1.0473,-1.0317,-1.0681,-1.1015,-1.0687,-1.0593,-1.0593,-1.0593,-1.0593,-1.0593,-1.0593,-1.0593,-1.0593,-1.0593,-1.0593,-1.0593,-1.0593,-1.0593,-1.0593,-1.0593,-1.0593,-1.0593,-1.0593,-1.0593,-1.0593,-1.0593,-1.0593,-1.0832,-1.1437,-1.15,-1.1748,-1.2336,-1.2573,-1.2795,-1.2978,-1.3191,-1.3394,-1.3614,-1.3606,-1.3914,-1.451,-1.451,-1.4862,-1.5576,-1.5576,-1.5811,0.3818,0.3531,0.3209,0.3209,0.3603,0.4053,0.4238,0.4659,0.5098,0.5351,0.5395,0.5395,0.5395,0.5586,0.0,0.0,0.0,0.0,0.6542,0.6705,0.6597,0.0,0.6069,0.0,0.5218,0.3984,0.3084,0.0,0.0962,0.0,0.0,0.0,0.0,0.0,0.0,0.0,0.0,0.0,-0.0314,-0.0902,-0.1372,-0.2218,-0.3383,-0.4129,-0.4827,-0.5371,0.0,-0.5928,-0.5942,-0.6095,-0.6159,-0.6159,-0.6159,-0.6159,-0.6139,-0.5986,-0.5928,-0.5918,-0.583,-0.5915,-0.617,-0.6723,-0.7166,-0.7681,-0.8673,-0.9558,-1.0213,-1.0343,-1.0669,-1.0922,-1.0667,-1.0593,-1.0593,-1.0593,-1.0593,-1.0593,-1.0593,-1.0593,-1.0593,-1.0593,-1.0593,-1.0593,-1.0593,-1.0593,-1.0593,-1.0593,-1.0593,-1.0593,-1.0593,-1.0593,-1.0593,-1.0593,-1.0593,-1.0776,-1.1226,-1.1257,-1.1476,-1.1903,-1.2274,-1.2481,-1.2481,-1.2826,-1.3009,-1.3009,-1.3009,-1.3221,-1.3666,-1.3666,-1.3914,-1.4362,-1.4362,-1.448,0.4491,0.4491,0.4491,0.4491,0.4491,0.4573,0.485,0.4887,0.5003,0.5334,0.0,0.5395,0.5395,0.5521,0.5637,0.5779,0.0,0.6378,0.6658,0.6797,0.6886,0.7048,0.7051,0.7038,0.7038,0.5832,0.4694,0.3837,0.1551,0.0171,0.0,0.0,0.0,0.0,0.0,0.0,0.0,0.0,0.0,0.0,-0.0934,-0.1458,-0.1653,-0.3324,-0.4232,-0.4505,0.0,0.0,-0.5786,-0.5935,-0.5963,-0.5963,-0.5963,-0.5963,-0.5942,-0.583,-0.5772,-0.5769,-0.5749,-0.5742,-0.5749,-0.5789,-0.6297,-0.7114,-0.8096,-0.8913,-0.9679,-1.0551,-1.0798,-1.0745,-1.0628,-1.0593,-1.0593,-1.0593,-1.0593,-1.0593,-1.0593,-1.0593,-1.0593,-1.0593,-1.0593,-1.0593,-1.0593,-1.0593,-1.0593,-1.0593,-1.0593,-1.0593,-1.0593,-1.0593,-1.0593,-1.0593,-1.0593,-1.0593,-1.0593,-1.0593,-1.0593,-1.0593,-1.1257,-1.1648,-1.1648,-1.2297,-1.2673,-1.2673,-1.2673,-1.2734,-1.2856,-1.2856,-1.2917,-1.3009,-1.3009,-1.3009,0.4491,0.4491,0.4491,0.4491,0.4491,0.4573,0.485,0.4887,0.0,0.0,0.5395,0.5395,0.5395,0.5521,0.5637,0.5779,0.5952,0.6217,0.6641,0.6614,0.6654,0.0,0.6854,0.6776,0.6776,0.0,0.0,0.0,0.0,0.0944,0.0041,0.0,0.0,0.0,0.0,0.0,0.0,0.0,0.0,0.0,-0.0186,-0.0736,-0.1609,-0.1788,-0.2717,-0.4249,0.0,0.0,-0.5637,-0.5783,-0.584,-0.584,-0.584,-0.584,-0.5823,-0.5681,-0.5627,-0.561,-0.5515,-0.547,-0.5511,-0.5722,-0.5907,-0.6194,-0.7078,-0.7386,-0.7757,-0.9309,-0.9688,-0.9751,-1.0441,-1.0593,-1.0593,-1.0593,-1.0593,-1.0593,-1.0593,-1.0593,-1.0593,-1.0593,-1.0593,-1.0593,-1.0593,-1.0593,-1.0593,-1.0593,-1.0593,-1.0593,-1.0593,-1.0593,-1.0593,-1.0593,-1.0593,-1.0593,-1.0593,-1.0593,-1.0593,-1.0593,-1.0744,-1.0807,-1.0807,-1.0926,-1.1021,-1.1021,-1.1021,-1.1358,-1.202,-1.202,-1.2358,-1.3009,-1.3009,-1.3009,0.4351,0.4433,0.447,0.4368,0.4433,0.4573,0.485,0.0,0.0,0.0,0.5395,0.5395,0.5395,0.5521,0.0,0.5681,0.5949,0.6251,0.6539,0.6586,0.6675,0.6859,0.6793,0.6702,0.0,0.0,0.0,0.0,0.0,0.0,0.0934,0.0322,0.0,0.0,0.0,0.0,0.0,0.0,0.0,0.0,0.0,-0.0253,-0.0785,-0.1125,-0.2078,-0.3449,0.0,0.0,-0.5518,-0.563,-0.5691,-0.5691,-0.5691,-0.5691,-0.5674,-0.5559,-0.5504,-0.5494,-0.5423,-0.5395,-0.5419,-0.5562,-0.591,-0.6348,-0.6758,-0.7164,-0.7655,-0.8481,-0.8999,-0.9402,-0.9817,-1.0269,-1.0593,-1.0593,-1.0593,-1.0593,-1.0593,-1.0593,-1.0593,-1.0593,-1.0593,-1.0593,-1.0593,-1.0593,-1.0593,-1.0593,-1.0593,-1.0593,-1.0593,-1.0593,-1.0593,-1.0593,-1.0593,-1.0593,-1.0593,-1.0593,-1.0593,-1.0593,-1.0593,-1.0593,-1.0593,-1.0593,-1.0593,-1.0593,-1.0593,-1.0776,-1.1163,-1.1163,-1.1382,-1.1756,-1.1756,-1.1756,0.4157,0.4304,0.4389,0.425,0.4382,0.4667,0.509,0.506,0.0,0.5825,0.5818,0.5686,0.5686,0.5925,0.6059,0.0,0.6379,0.6804,0.6799,0.6898,0.6954,0.0,0.6746,0.0,0.661,0.0,0.0,0.0,0.0,0.0,0.1718,0.059,0.0,0.0,0.0,0.0,0.0,0.0,0.0,0.0,0.0,0.0,-0.0035,-0.0694,-0.154,-0.2444,0.0,0.0,0.0,-0.542,-0.5542,-0.5542,-0.5542,-0.5542,-0.5562,-0.544,-0.5395,-0.5395,-0.5395,-0.5395,-0.5395,-0.5395,-0.5848,-0.6461,-0.6654,-0.7046,-0.7507,-0.7897,-0.8355,-0.878,-0.8979,-0.9658,-1.0364,-1.0561,-1.0593,-1.0593,-1.0593,-1.0593,-1.0593,-1.0593,-1.0593,-1.0593,-1.0593,-1.0593,-1.0593,-1.0593,-1.0593,-1.0593,-1.0593,-1.0593,-1.0593,-1.0593,-1.0593,-1.0593,-1.0593,-1.0593,-1.0593,-1.0593,-1.0593,-1.0593,-1.0593,-1.0593,-1.0593,-1.0593,-1.0593,-1.0593,-1.0593,-1.0593,-1.0593,-1.0593,-1.0593,-1.0593,0.4051,0.4126,0.421,0.42,0.4432,0.4915,0.5883,0.0,0.5597,0.7395,0.7144,0.6593,0.6593,0.7228,0.7565,0.6878,0.0,0.8216,0.7745,0.7788,0.7584,0.6826,0.0,0.0,0.6354,0.0,0.0,0.0,0.0,0.0,0.0,0.057,0.0,0.0,0.0,0.0,0.0,0.0,0.0,0.0,0.0,0.0,0.0,-0.0068,-0.0607,-0.1474,0.0,0.0,0.0,-0.507,-0.5416,-0.5416,-0.5416,-0.5416,-0.5416,-0.5399,-0.5395,-0.5395,-0.5395,-0.5395,-0.5395,-0.5395,-0.5458,-0.5653,-0.6461,-0.6207,-0.5984,-0.754,-0.7502,-0.7111,-0.7929,-0.878,-0.9626,-1.0396,-1.0593,-1.0593,-1.0593,-1.0593,-1.0593,-1.0593,-1.0593,-1.0593,-1.0593,-1.0593,-1.0593,-1.0593,-1.0593,-1.0593,-1.0593,-1.0593,-1.0593,-1.0593,-1.0593,-1.0593,-1.0593,-1.0593,-1.0593,-1.0593,-1.0593,-1.0593,-1.0593,-1.0593,-1.0593,-1.0593,-1.0593,-1.0593,-1.0593,-1.0593,-1.0593,-1.0593,-1.0593,-1.0593,0.4807,0.4576,0.4358,0.4244,0.4849,0.5615,0.6092,0.6428,0.693,0.7814,0.773,0.747,0.747,0.7762,0.7967,0.0,0.8235,0.8631,0.8703,0.8233,0.7799,0.7504,0.6828,0.0,0.0,0.0,0.0,0.0,0.0,0.0,0.0,0.2264,0.1445,0.0818,0.0782,0.0529,0.0,0.0,0.0,0.0,0.0,0.0,0.0,0.0,-0.0471,-0.1307,0.0,0.0,0.0,-0.4184,-0.4553,-0.4619,-0.5193,-0.5395,-0.5395,-0.5395,-0.5395,-0.5395,-0.5395,-0.5395,-0.5395,-0.5395,-0.5395,-0.5458,-0.5815,-0.5686,-0.5557,-0.6239,-0.6957,-0.7567,-0.7897,-0.9032,-1.0174,-1.053,-1.0593,-1.0593,-1.0593,-1.0593,-1.0593,-1.0593,-1.0593,-1.0593,-1.0593,-1.0593,-1.0593,-1.0593,-1.0593,-1.0593,-1.0593,-1.0593,-1.0593,-1.0593,-1.0593,-1.0593,-1.0593,-1.0593,-1.0593,-1.0593,-1.0593,-1.0593,-1.0593,-1.0593,-1.0593,-1.0593,-1.0593,-1.0593,-1.0593,-1.0593,-1.0593,-1.0593,-1.0593,-1.0593,0.5259,0.4989,0.4734,0.4698,0.5524,0.6503,0.6921,0.7434,0.7986,0.8639,0.8581,0.8388,0.8388,0.8581,0.876,0.0,0.9088,0.9466,0.9511,0.9171,0.8804,0.0,0.0,0.0,0.0,0.0,0.0,0.0,0.0,0.0,0.0,0.4049,0.3072,0.1762,0.1725,0.13,0.0404,0.037,0.0269,0.0,0.0,0.0,0.0,0.0,-0.0337,-0.094,0.0,0.0,0.0,-0.3245,-0.378,-0.4048,-0.4722,-0.516,-0.5395,-0.5395,-0.5395,-0.5395,-0.5395,-0.5395,-0.5395,-0.5395,-0.5395,-0.5395,-0.5395,-0.5395,-0.5395,-0.5395,-0.6272,-0.7344,-0.7864,-0.8898,-0.997,-1.0491,-1.0593,-1.0593,-1.0593,-1.0593,-1.0593,-1.0593,-1.0593,-1.0593,-1.0593,-1.0593,-1.0593,-1.0593,-1.0593,-1.0593,-1.0593,-1.0593,-1.0593,-1.0593,-1.0593,-1.0593,-1.0593,-1.0593,-1.0593,-1.0593,-1.0593,-1.0593,-1.0593,-1.0593,-1.0593,-1.0593,-1.0593,-1.0593,-1.0593,-1.0593,-1.0593,-1.0593,-1.0593,-1.0593,0.5147,0.5187,0.5375,0.5693,0.654,0.7584,0.8712,0.8465,0.8479,1.0231,0.9881,0.9274,0.9274,0.9983,1.0301,0.9434,1.0478,1.1067,1.0198,1.0879,1.1072,0.0,0.0,0.0,0.0,0.0,0.0,0.0,0.0,0.0,0.0,0.5593,0.4691,0.2748,0.2678,0.2243,0.1307,0.1273,0.0839,0.0,0.0,0.0,0.0,0.0,0.0,0.0,0.0,0.0,0.0,-0.2344,-0.3211,-0.4015,-0.4015,-0.4586,-0.5395,-0.5395,-0.5395,-0.5395,-0.5395,-0.5395,-0.5395,-0.5395,-0.5395,-0.5395,-0.5395,-0.5395,-0.5395,-0.5395,-0.5428,-0.5818,-0.754,-0.8027,-0.8447,-1.0199,-1.0593,-1.0593,-1.0593,-1.0593,-1.0593,-1.0593,-1.0593,-1.0593,-1.0593,-1.0593,-1.0593,-1.0593,-1.0593,-1.0593,-1.0593,-1.0593,-1.0593,-1.0593,-1.0593,-1.0593,-1.0593,-1.0593,-1.0593,-1.0593,-1.0593,-1.0593,-1.0593,-1.0593,-1.0593,-1.0593,-1.0593,-1.0593,-1.0593,-1.0593,-1.0593,-1.0593,-1.0593,-1.0593,0.7171,0.6872,0.6597,0.6893,0.7725,0.8556,0.8912,0.9387,0.9939,1.0491,1.0364,1.0174,1.0174,1.0396,1.0624,1.0716,1.1298,0.0,0.0,0.0,0.0,1.0835,0.0,0.0,0.0,0.0,0.0,0.0,0.0,0.0,0.0,0.5467,0.4901,0.3616,0.358,0.3145,0.2277,0.1608,0.1173,0.0873,0.0269,0.0,0.0,0.0,0.0,0.0,0.0,0.0,0.0,-0.1374,-0.1909,-0.2277,-0.3513,-0.4184,-0.4519,-0.516,-0.5395,-0.5395,-0.5395,-0.5395,-0.5395,-0.5395,-0.5395,-0.5395,-0.5395,-0.5395,-0.5524,-0.6108,-0.6301,-0.656,-0.7697,-0.7994,-0.8285,-0.9428,-0.9722,-0.9881,-1.0466,-1.0593,-1.0593,-1.0593,-1.0593,-1.0593,-1.0593,-1.0593,-1.0593,-1.0593,-1.0593,-1.0593,-1.0593,-1.0593,-1.0593,-1.0593,-1.0593,-1.0593,-1.0593,-1.0593,-1.0593,-1.0593,-1.0593,-1.0593,-1.0593,-1.0593,-1.0593,-1.0593,-1.0593,-1.0593,-1.0593,-1.0593,-1.0593,-1.0593,-1.0593,-1.0593,0.8381,0.8023,0.7734,0.7998,0.8757,0.9456,0.9562,1.0108,1.0593,1.0593,1.0593,1.0593,1.0593,1.0593,1.0747,1.1189,1.151,0.0,0.0,0.0,0.0,1.1812,0.0,0.0,0.0,0.0,0.0,0.0,0.0,0.0,0.0,0.0,0.5126,0.4553,0.4519,0.4082,0.3211,0.2609,0.1976,0.1307,0.0739,0.0303,0.0,0.0,0.0,0.0,0.0,0.0,0.0,-0.0572,-0.1006,-0.1407,-0.2544,-0.3211,-0.3613,-0.4519,-0.4855,-0.4921,-0.5292,-0.5395,-0.5395,-0.5395,-0.5395,-0.5395,-0.5395,-0.5395,-0.5524,-0.6042,-0.6203,-0.64,-0.7274,-0.7502,-0.773,-0.8613,-0.9075,-0.9466,-0.9983,-1.0364,-1.0593,-1.0593,-1.0593,-1.0593,-1.0593,-1.0593,-1.0593,-1.0593,-1.0593,-1.0593,-1.0593,-1.0593,-1.0593,-1.0593,-1.0593,-1.0593,-1.0593,-1.0593,-1.0593,-1.0593,-1.0593,-1.0593,-1.0593,-1.0593,-1.0593,-1.0593,-1.0593,-1.0593,-1.0593,-1.0593,-1.0593,-1.0593,-1.0593,-1.0593,0.0,0.8681,0.8741,0.9047,0.9603,1.0194,1.0526,1.0593,0.0,1.0593,1.0593,1.06,1.062,1.0626,1.0727,1.1002,1.1316,0.0,0.0,1.2442,0.0,0.0,0.0,0.0,0.0,0.0,0.0,0.0,0.0,0.0,0.0,0.0,0.5395,0.5395,0.5395,0.499,0.4115,0.4048,0.3145,0.1507,0.1374,0.0873,0.0101,0.0034,0.0,0.0,0.0,0.0,0.0,0.0,-0.0471,-0.1207,-0.1273,-0.1842,-0.2711,-0.358,-0.3915,-0.4048,-0.499,-0.5292,-0.5329,-0.5395,-0.5395,-0.5395,-0.5395,-0.5395,-0.5395,-0.5395,-0.5395,-0.5591,-0.6396,-0.6654,-0.6915,-0.78,-0.8683,-0.9306,-0.937,-1.0047,-1.0593,-1.0593,-1.0593,-1.0593,-1.0593,-1.0593,-1.0593,-1.0593,-1.0593,-1.0593,-1.0593,-1.0593,-1.0593,-1.0593,-1.0593,-1.0593,-1.0593,-1.0593,-1.0593,-1.0593,-1.0593,-1.0593,-1.0593,-1.0593,-1.0593,-1.0593,-1.0593,-1.0593,-1.0593,-1.0593,-1.0593,-1.0593,-1.0593,-1.0593,0.9738,0.0,0.9564,1.0104,1.0157,1.0194,0.0,1.0593,1.0593,1.0593,1.0593,1.066,1.0881,1.0928,1.1095,1.1618,0.0,0.0,1.2569,0.0,0.0,0.0,0.0,0.0,0.0,0.0,0.0,0.0,0.0,0.0,0.0,0.0,0.5395,0.5395,0.5395,0.5292,0.5057,0.435,0.3782,0.3347,0.1975,0.1207,0.0973,0.0303,0.0,0.0,0.0,0.0,0.0,0.0,-0.0135,-0.037,-0.104,-0.1441,-0.1742,-0.2678,-0.3011,-0.3145,-0.4015,-0.4317,-0.4453,-0.516,-0.5395,-0.5395,-0.5395,-0.5395,-0.5395,-0.5395,-0.5395,-0.5462,-0.5653,-0.6203,-0.6915,-0.78,-0.8683,-0.9498,-1.0142,-1.046,-1.0593,-1.0593,-1.0593,-1.0593,-1.0593,-1.0593,-1.0593,-1.0593,-1.0593,-1.0593,-1.0593,-1.0593,-1.0593,-1.0593,-1.0593,-1.0593,-1.0593,-1.0593,-1.0593,-1.0593,-1.0593,-1.0593,-1.0593,-1.0593,-1.0593,-1.0593,-1.0593,-1.0593,-1.0593,-1.0593,-1.0593,-1.0593,-1.0593,-1.0593,0.9873,1.0,1.0191,1.0512,1.0472,1.0392,1.0553,1.0593,1.0593,1.0593,1.0593,1.068,1.0942,1.0995,1.1189,0.0,1.2174,0.0,0.0,0.0,0.0,0.0,0.0,0.0,0.0,0.0,0.0,0.0,0.0,0.0,0.0,0.0,0.5395,0.5395,0.5395,0.5395,0.5395,0.4891,0.4417,0.3982,0.3011,0.2108,0.1273,0.0806,0.0,0.0,0.0,0.0,0.0,0.0,0.0,-0.0034,-0.0504,-0.0706,-0.0806,-0.1708,-0.2043,-0.2177,-0.3078,-0.368,-0.4151,-0.509,-0.5395,-0.5395,-0.5395,-0.5395,-0.5395,-0.5395,-0.5395,-0.5395,-0.5395,-0.5752,-0.6239,-0.6695,-0.7474,-0.835,-0.9224,-0.9716,-1.011,-1.0523,-1.0593,-1.0593,-1.0593,-1.0593,-1.0593,-1.0593,-1.0593,-1.0593,-1.0593,-1.0593,-1.0593,-1.0593,-1.0593,-1.0593,-1.0593,-1.0593,-1.0593,-1.0593,-1.0593,-1.0593,-1.0593,-1.0593,-1.0593,-1.0593,-1.0593,-1.0593,-1.0593,-1.0593,-1.0593,-1.0593,-1.0593,-1.0593,0.9673,1.011,1.0539,1.0579,1.0559,1.0539,1.0579,1.0593,1.0593,1.0593,1.0593,1.0693,1.0995,1.1056,0.0,0.0,0.0,0.0,0.0,0.0,0.0,0.0,0.0,0.0,0.0,0.0,0.0,0.0,0.0,0.0,0.0,0.0,0.0,0.5591,0.5458,0.5395,0.5395,0.5395,0.499,0.4215,0.4082,0.3211,0.1708,0.1574,0.0,0.0,0.0,0.0,0.0,0.0,0.0,0.0,0.0,0.0,-0.0101,-0.0839,-0.1106,-0.124,-0.2177,-0.3078,-0.3949,-0.4888,-0.5193,-0.5226,-0.5359,-0.5395,-0.5395,-0.5395,-0.5395,-0.5395,-0.5395,-0.5491,-0.5591,-0.5591,-0.6268,-0.7111,-0.7832,-0.8581,-0.9332,-1.0072,-1.0199,-1.0199,-1.0199,-1.0199,-1.0199,-1.0199,-1.0333,-1.0396,-1.0396,-1.053,-1.0593,-1.0593,-1.0593,-1.0593,-1.0593,-1.0593,-1.0593,-1.0593,-1.0593,-1.0593,-1.0593,-1.0593,-1.0593,-1.0593,-1.0593,-1.0593,-1.0593,-1.0593,-1.0593,-1.0593,-1.0593,-1.0593,0.9613,0.9927,1.0247,1.0526,1.0405,1.0247,1.0533,1.0593,1.0593,0.0,0.0,0.0,0.0,1.1329,1.155,0.0,0.0,0.0,0.0,0.0,0.0,0.0,0.0,0.0,0.0,0.0,0.0,0.0,0.0,0.0,0.0,0.0,0.0,0.6494,0.5782,0.5395,0.5395,0.5395,0.5329,0.5193,0.4384,0.3849,0.3547,0.2811,0.1976,0.0,0.0,0.0672,0.0,0.0,0.0,0.0,0.0,0.0,0.0,-0.0135,-0.0202,-0.0337,-0.1208,-0.211,-0.3045,-0.3915,-0.4215,-0.435,-0.516,-0.5395,-0.5395,-0.5395,-0.5395,-0.5395,-0.5395,-0.5943,-0.6494,-0.6494,-0.7177,-0.7832,-0.7962,-0.8091,-0.8253,-0.8382,-0.8415,-0.8415,-0.8415,-0.8415,-0.8415,-0.8415,-0.9037,-0.9498,-0.9498,-1.0142,-1.0593,-1.0593,-1.0593,-1.0593,-1.0593,-1.0593,-1.0593,-1.0593,-1.0593,-1.0593,-1.0593,-1.0593,-1.0593,-1.0593,-1.0593,-1.0593,-1.0593,-1.0593,-1.0593,-1.0593,-1.0593,-1.0593,0.9337,0.9659,0.9953,1.0247,1.0341,1.0425,1.0559,1.0593,1.0593,0.0,0.0,0.0,0.0,0.0,1.1582,1.2204,0.0,0.0,0.0,0.0,0.0,0.0,0.0,0.0,0.0,0.0,0.0,0.0,0.0,0.0,0.0,0.0,0.0,0.0,0.656,0.6104,0.6104,0.562,0.5395,0.5395,0.4957,0.4483,0.3982,0.358,0.2911,0.2043,0.0,0.1542,0.0706,0.0706,0.0437,0.0,0.0,0.0,0.0,0.0,0.0,-0.0135,-0.1006,-0.1574,-0.2108,-0.3011,-0.3311,-0.348,-0.4384,-0.4652,-0.4755,-0.5259,-0.5395,-0.5395,-0.5395,-0.5686,-0.6009,-0.6009,-0.6305,-0.6728,-0.7209,-0.7307,-0.7437,-0.7897,-0.7994,-0.7994,-0.7994,-0.8388,-0.8716,-0.8716,-0.9428,-1.0009,-1.0009,-1.0333,-1.0593,-1.0593,-1.0593,-1.0593,-1.0593,-1.0174,-1.011,-1.0561,-1.0593,-1.0593,-1.0593,-1.0593,-1.0593,-1.0593,-1.0593,-1.0364,-0.9888,-0.9888,-0.9652,-0.9192,-0.9684,-0.9888,0.9076,0.9459,0.9753,1.0047,1.0341,1.0613,1.068,1.0693,1.0693,0.0,0.0,0.0,0.0,1.1342,0.0,1.2118,0.0,0.0,0.0,0.0,0.0,0.0,0.0,0.0,0.0,0.0,0.0,0.0,0.0,0.0,0.0,0.0,0.0,0.0,0.747,0.6915,0.6687,0.6042,0.5591,0.5395,0.5395,0.5024,0.4317,0.4317,0.3846,0.3011,0.3011,0.2476,0.1608,0.1407,0.0906,0.0269,0.0067,0.0,0.0,0.0,0.0,-0.0101,-0.0772,-0.1006,-0.114,-0.2076,-0.2376,-0.2544,-0.3411,-0.3846,-0.4148,-0.4855,-0.5226,-0.5395,-0.5395,-0.5395,-0.5395,-0.5395,-0.5395,-0.5587,-0.6235,-0.6396,-0.6593,-0.7246,-0.7377,-0.7377,-0.7377,-0.7934,-0.8393,-0.8393,-0.9134,-0.9678,-0.9678,-0.9875,-1.0002,-1.0002,-1.0002,-1.0002,-1.0002,-0.9396,-0.9268,-0.9939,-1.0002,-1.0002,-1.0002,-1.0002,-1.0002,-1.0002,-1.0002,-0.9652,-0.9011,-0.9011,-0.8646,-0.8027,-0.8649,-0.892,0.8932,0.9459,0.9753,1.0047,1.0341,1.0667,1.0902,1.0962,1.0962,1.0962,0.0,0.0,0.0,1.1243,1.153,0.0,0.0,0.0,0.0,0.0,0.0,0.0,0.0,0.0,0.0,0.0,0.0,0.0,0.0,0.0,0.0,0.0,0.0,0.0,0.0,0.7502,0.6719,0.6621,0.6203,0.5395,0.5395,0.5362,0.5292,0.5292,0.4788,0.3915,0.3915,0.3413,0.2544,0.1675,0.1274,0.114,0.0303,0.0,0.0,0.0,0.0,0.0,-0.0067,-0.0101,-0.0236,-0.1106,-0.1407,-0.1574,-0.2509,-0.3347,-0.4015,-0.4082,-0.4722,-0.5395,-0.5395,-0.5395,-0.5395,-0.5395,-0.5395,-0.5425,-0.5495,-0.5491,-0.5524,-0.5591,-0.5591,-0.5591,-0.5591,-0.5624,-0.569,-0.569,-0.6433,-0.6981,-0.6981,-0.7697,-0.8188,-0.8188,-0.8188,-0.8188,-0.8188,-0.8124,-0.8124,-0.8188,-0.8188,-0.8188,-0.8188,-0.8188,-0.8188,-0.8188,-0.8188,-0.8156,-0.8091,-0.8091,-0.8059,-0.7989,-0.787,-0.783,0.8723,0.9319,0.9735,0.982,1.0238,1.062,1.0727,1.0894,1.0995,1.0995,1.0995,0.0,0.0,0.0,0.0,0.0,0.0,0.0,0.0,0.0,0.0,0.0,0.0,0.0,0.0,0.0,0.0,0.0,0.0,0.0,0.0,0.0,0.0,0.0,0.0,0.8388,0.7502,0.6981,0.6209,0.522,0.5347,0.5395,0.5395,0.5395,0.5193,0.4855,0.4855,0.435,0.348,0.3111,0.2644,0.2076,0.1174,0.0471,0.0,0.0,0.0,0.0,0.0,0.0,-0.0067,-0.037,-0.0504,-0.0672,-0.1542,-0.2075,-0.2444,-0.3011,-0.3846,-0.4652,-0.5259,-0.5395,-0.5395,-0.5395,-0.5395,-0.5395,-0.5395,-0.5395,-0.5395,-0.5395,-0.5395,-0.5395,-0.5395,-0.5848,-0.6203,-0.6203,-0.6953,-0.7502,-0.7502,-0.78,-0.7994,-0.7994,-0.7994,-0.7795,-0.7242,-0.7177,-0.6953,-0.6404,-0.7409,-0.7994,-0.7994,-0.7994,-0.7994,-0.7994,-0.7994,-0.773,-0.7177,-0.7177,-0.6854,-0.6197,-0.6665,-0.6843,0.8644,0.9372,0.982,0.982,1.0224,1.0593,1.0593,1.0814,1.0995,1.0995,1.0922,1.0855,1.0855,0.0,0.0,0.0,0.0,0.0,0.0,0.0,0.0,0.0,0.0,0.0,0.0,0.0,0.0,0.0,0.0,0.0,0.0,0.0,0.0,0.0,0.0,0.0,0.842,0.7725,0.6853,0.5848,0.5918,0.5725,0.532,0.532,0.5347,0.5395,0.5395,0.5024,0.4417,0.4115,0.348,0.2611,0.1675,0.094,0.037,0.0101,0.0,0.0,0.0,0.0,0.0,0.0,0.0,-0.0101,-0.0706,-0.1073,-0.1507,-0.2444,-0.3311,-0.4215,-0.516,-0.5395,-0.5395,-0.5395,-0.5395,-0.5395,-0.5395,-0.5395,-0.5395,-0.5395,-0.5395,-0.5395,-0.5395,-0.5881,-0.6301,-0.6301,-0.6789,-0.7181,-0.7181,-0.7181,-0.7181,-0.7181,-0.7181,-0.6924,-0.633,-0.6301,-0.6042,-0.5428,-0.6535,-0.7181,-0.7181,-0.7181,-0.7181,-0.7181,-0.7181,-0.6887,-0.6301,-0.6241,-0.5832,-0.5128,-0.562,-0.5813,0.8767,0.9644,1.0083,1.0083,1.0341,1.0593,1.0593,1.0814,1.1022,1.1022,1.0794,1.0593,1.0593,0.0,0.0,0.0,0.0,0.0,0.0,0.0,0.0,0.0,0.0,0.0,0.0,0.0,0.0,0.0,0.0,0.0,0.0,0.0,0.0,0.0,0.0,0.0,0.93,0.8961,0.836,0.7494,0.722,0.6415,0.5096,0.5096,0.5213,0.5392,0.5392,0.5392,0.5326,0.4384,0.3511,0.2608,0.1674,0.1306,0.1206,0.0336,0.0,0.0,0.0,0.0,0.0,0.0,0.0,0.0,0.0,-0.0605,-0.1474,-0.241,-0.3311,-0.4217,-0.5126,-0.5395,-0.5395,-0.5395,-0.5395,-0.5395,-0.5395,-0.5395,-0.5395,-0.5395,-0.5395,-0.5395,-0.5395,-0.5395,-0.5395,-0.5395,-0.5395,-0.5395,-0.5395,-0.5395,-0.5395,-0.5395,-0.5395,-0.5395,-0.5395,-0.5395,-0.5395,-0.5395,-0.5395,-0.5395,-0.5395,-0.5395,-0.5395,-0.5395,-0.5395,-0.5395,-0.5392,-0.5206,-0.5096,-0.509,-0.4826,-0.4691,0.8247,0.9282,1.0083,1.0083,1.0341,0.0,0.0,1.1251,0.0,0.0,1.1332,1.0834,1.0626,0.0,0.0,0.0,0.0,0.0,0.0,0.0,0.0,0.0,0.0,0.0,0.0,0.0,0.0,0.0,0.0,0.0,0.0,0.0,0.0,0.0,0.0,0.0,0.8949,0.8661,0.8021,0.707,0.7006,0.6538,0.5739,0.5825,0.5566,0.5057,0.5155,0.5199,0.5167,0.4906,0.4203,0.331,0.3026,0.2208,0.1137,0.0854,0.0444,0.0,0.0,0.0,0.0,0.0,0.0,0.0,0.0,-0.0168,-0.0437,-0.0706,-0.191,-0.3145,-0.3413,-0.4453,-0.5395,-0.5395,-0.5395,-0.5395,-0.5395,-0.5395,-0.5395,-0.5395,-0.5395,-0.5395,-0.5395,-0.5395,-0.5395,-0.5395,-0.5395,-0.5395,-0.5395,-0.5395,-0.5395,-0.5395,-0.5395,-0.5395,-0.5395,-0.5395,-0.5395,-0.5395,-0.5395,-0.5395,-0.5395,-0.5395,-0.5395,-0.5395,-0.5395,-0.5341,-0.5199,-0.512,-0.4992,-0.4819,-0.4731,-0.4662,0.8247,0.9353,1.0294,1.0294,1.0459,1.0776,1.1421,0.0,0.0,0.0,1.1696,1.1549,1.0746,0.0,0.0,0.0,0.0,0.0,0.0,0.0,0.0,0.0,0.0,0.0,0.0,0.0,0.0,0.0,0.0,0.0,0.0,0.0,0.0,0.0,0.0,0.0,0.9167,0.8872,0.8423,0.7813,0.7716,0.7303,0.6673,0.6224,0.5783,0.5313,0.5099,0.5015,0.5015,0.5015,0.4652,0.4086,0.3747,0.2979,0.1998,0.1353,0.0832,0.0401,0.0093,0.0,0.0,0.0,0.0,0.0,0.0,0.0,-0.0066,-0.043,-0.1298,-0.2242,-0.2611,-0.378,-0.4921,-0.5329,-0.5395,-0.5395,-0.5395,-0.5395,-0.5395,-0.5395,-0.5395,-0.5395,-0.5395,-0.5395,-0.5395,-0.5395,-0.5395,-0.5395,-0.5395,-0.5395,-0.5395,-0.5395,-0.5395,-0.5395,-0.5395,-0.5337,-0.527,-0.527,-0.5216,-0.5209,-0.5267,-0.5361,-0.5395,-0.5395,-0.5395,-0.5284,-0.51,-0.5042,-0.4925,-0.4691,-0.4655,-0.458,0.8461,0.9625,1.0593,1.0593,1.0593,0.0,1.2551,1.2389,1.171,1.1052,0.0,1.2551,0.0,0.0,0.0,0.0,0.0,0.0,0.0,0.0,0.0,0.0,0.0,0.0,0.0,0.0,0.0,0.0,0.0,0.0,0.0,0.0,0.0,0.0,0.0,0.0,0.9646,0.9317,0.9171,0.0,0.8904,0.8454,0.7756,0.6557,0.5981,0.5937,0.5196,0.486,0.4877,0.4864,0.4891,0.4787,0.3989,0.3653,0.3411,0.186,0.125,0.1099,0.0428,0.0214,0.0214,0.0215,0.0154,0.0092,0.0092,0.0063,-0.0161,-0.0963,-0.1241,-0.1497,-0.2366,-0.3234,-0.4105,-0.4951,-0.5292,-0.5395,-0.5395,-0.5395,-0.5395,-0.5395,-0.5395,-0.5395,-0.5395,-0.5395,-0.5395,-0.5395,-0.5395,-0.5395,-0.5395,-0.5395,-0.5395,-0.5395,-0.5395,-0.5395,-0.5395,-0.5233,-0.5113,-0.51,-0.4992,-0.4978,-0.5093,-0.5254,-0.5361,-0.5375,-0.5361,-0.5243,-0.5059,-0.4931,-0.4819,-0.4667,-0.4556,-0.4491,0.7923,0.9244,1.0593,1.0593,1.0593,1.087,1.1834,1.242,1.2879,1.3326,1.3213,0.0,0.0,0.0,0.0,0.0,0.0,0.0,0.0,0.0,0.0,0.0,0.0,0.0,0.0,0.0,0.0,0.0,0.0,0.0,0.0,0.0,0.0,0.0,0.0,0.9311,0.9311,0.9018,0.8871,0.0,0.8838,0.8725,0.8546,0.7782,0.6872,0.5802,0.5056,0.467,0.4597,0.4691,0.467,0.4562,0.4389,0.3959,0.3388,0.2989,0.245,0.1938,0.1767,0.1739,0.1718,0.1733,0.1334,0.0865,0.0856,0.0465,-0.0031,-0.0218,-0.0781,-0.1356,-0.155,-0.2301,-0.3026,-0.3228,-0.4353,-0.5395,-0.5395,-0.5395,-0.5395,-0.5395,-0.5395,-0.5395,-0.5395,-0.5395,-0.5395,-0.5395,-0.5395,-0.5395,-0.5395,-0.5395,-0.5395,-0.5395,-0.5395,-0.5395,-0.5395,-0.5365,-0.526,-0.5106,-0.5216,-0.5226,-0.5103,-0.5053,-0.5067,-0.5147,-0.507,-0.4938,-0.4785,-0.4755,-0.466,-0.4539,-0.4505,-0.4491,0.7587,0.8805,0.0,1.0498,0.0,1.0895,1.2112,1.2536,1.305,1.4225,0.0,0.0,0.0,0.0,0.0,0.0,0.0,0.0,0.0,0.0,0.0,0.0,0.0,0.0,0.0,0.0,0.0,0.0,0.0,0.0,0.0,0.0,0.0,0.0,0.9112,0.9004,0.9004,0.8884,0.8804,0.8804,0.8804,0.8804,0.8785,0.8103,0.7025,0.5634,0.5249,0.4867,0.4498,0.4576,0.4563,0.4491,0.4491,0.4267,0.3876,0.3456,0.3065,0.2676,0.2313,0.2202,0.2209,0.2191,0.1947,0.1552,0.12,0.0833,0.0452,0.0091,-0.0335,-0.0681,-0.0691,-0.1337,-0.2031,-0.203,-0.3084,-0.4217,-0.4652,-0.4722,-0.4855,-0.5329,-0.5395,-0.5395,-0.5395,-0.5395,-0.5395,-0.5395,-0.5395,-0.5395,-0.5395,-0.5395,-0.5226,-0.4788,-0.4722,-0.4553,-0.4148,-0.4051,-0.3961,-0.3867,-0.3876,-0.3878,-0.3842,-0.37,-0.4078,-0.5093,-0.4961,-0.4843,-0.4691,-0.4691,-0.4641,-0.4491,-0.4491,-0.4491,0.7359,0.8518,0.9628,1.0421,1.0593,0.0,1.2379,1.2449,1.2659,1.4204,0.0,0.0,0.0,0.0,0.0,0.0,0.0,0.0,0.0,0.0,0.0,0.0,0.0,0.0,0.0,0.0,0.0,0.0,0.0,0.0,0.0,0.0,0.8982,0.8982,0.881,0.8731,0.8731,0.8684,0.8657,0.8657,0.8711,0.8731,0.8705,0.8137,0.7149,0.5869,0.5733,0.53,0.468,0.468,0.4598,0.4491,0.4491,0.4491,0.4405,0.3763,0.3511,0.3428,0.2815,0.2593,0.2593,0.2593,0.2508,0.2286,0.1675,0.131,0.0961,0.035,0.0089,0.0,0.0,-0.0532,-0.1088,-0.1061,-0.1676,-0.2512,-0.3547,-0.3782,-0.4015,-0.4788,-0.5057,-0.5226,-0.5362,-0.5259,-0.516,-0.516,-0.5024,-0.4921,-0.4921,-0.4921,-0.4622,-0.3849,-0.3782,-0.348,-0.2744,-0.2585,-0.2533,-0.249,-0.2353,-0.2362,-0.249,-0.2354,-0.2997,-0.4606,-0.4512,-0.4388,-0.4272,-0.4272,-0.4213,-0.4098,-0.4236,-0.4294,0.7146,0.0,1.008,0.0,1.0593,1.0763,0.0,0.0,1.1805,0.0,0.0,0.0,0.0,0.0,0.0,0.0,0.0,0.0,0.0,0.0,0.0,0.0,0.0,0.0,0.0,0.0,0.0,0.0,0.0,0.0,0.0,0.9666,0.9666,0.9666,0.8883,0.8456,0.8456,0.8176,0.8025,0.8025,0.831,0.8456,0.8462,0.8586,0.8209,0.7369,0.6718,0.6036,0.5378,0.5378,0.503,0.4491,0.4491,0.4491,0.4491,0.4377,0.4349,0.4322,0.4236,0.4184,0.4184,0.4184,0.3735,0.3121,0.3037,0.2127,0.1069,0.0985,0.0481,0.0,0.0,-0.0091,-0.0188,-0.016,-0.0264,-0.0807,-0.2512,-0.2878,-0.2911,-0.3045,-0.368,-0.4453,-0.5259,-0.4722,-0.4184,-0.4184,-0.3547,-0.3045,-0.3045,-0.3045,-0.3011,-0.2878,-0.2878,-0.2811,-0.2711,-0.2697,-0.2619,-0.2492,-0.2591,-0.259,-0.2497,-0.2488,-0.2592,-0.285,-0.2644,-0.2565,-0.2527,-0.2527,-0.2521,-0.2536,-0.3176,-0.3456,0.7134,0.8917,1.0432,0.0,1.0593,1.0819,1.1727,0.0,1.1866,0.0,0.0,0.0,0.0,0.0,0.0,0.0,0.0,0.0,0.0,0.0,0.0,0.0,0.0,0.0,0.0,0.0,0.0,0.0,0.0,0.0,1.0389,1.0165,0.9888,0.9595,0.8921,0.0,0.813,0.7972,0.7905,0.7905,0.8039,0.813,0.813,0.8232,0.8076,0.7696,0.7369,0.6799,0.6118,0.6118,0.5932,0.5637,0.5222,0.5054,0.5003,0.4653,0.4491,0.4491,0.4491,0.4491,0.4491,0.4491,0.4267,0.3901,0.3428,0.2871,0.2202,0.134,0.0866,0.0533,0.0114,0.0,0.0,0.0,0.0,-0.0231,-0.1005,-0.1575,-0.2075,-0.2611,-0.3011,-0.3396,-0.3801,-0.3561,-0.3266,-0.3266,-0.2934,-0.2715,-0.2701,-0.2706,-0.2499,-0.1972,-0.1909,-0.1732,-0.1214,-0.1181,-0.1177,-0.1112,-0.1165,-0.1147,-0.1116,-0.1102,-0.1102,-0.1086,-0.1828,-0.2202,-0.2202,-0.2202,-0.2202,-0.2202,-0.2536,-0.2676,0.0,0.0,1.0161,1.0396,1.0539,1.0798,0.0,0.0,0.0,0.0,0.0,0.0,0.0,0.0,0.0,0.0,0.0,0.0,0.0,0.0,0.0,0.0,0.0,0.0,0.0,0.0,0.0,0.0,0.0,0.0,1.0762,1.0461,1.0058,0.9491,0.891,0.833,0.7816,0.7712,0.7672,0.7679,0.7752,0.7792,0.7792,0.7872,0.7844,0.7763,0.7763,0.7341,0.666,0.6749,0.6663,0.645,0.5959,0.5787,0.5706,0.5003,0.4759,0.4732,0.457,0.4491,0.4491,0.4491,0.4491,0.4377,0.379,0.3483,0.3121,0.1981,0.1396,0.0978,0.042,0.0144,0.0,0.0,0.0,0.0,0.0,-0.0501,-0.123,-0.2174,-0.235,-0.2414,-0.2667,-0.2517,-0.2348,-0.2348,-0.215,-0.2,-0.2022,-0.2027,-0.1734,-0.1059,-0.0962,-0.0692,-0.0065,0.0,0.0,0.0,0.0,0.0,0.0,0.0,0.0,0.0,-0.109,-0.1647,-0.1647,-0.1647,-0.1647,-0.1647,-0.1842,-0.1925,0.0,0.79,0.0,0.9886,1.0354,0.0,0.0,0.0,0.0,0.0,0.0,0.0,0.0,0.0,0.0,0.0,0.0,0.0,0.0,0.0,0.0,0.0,0.0,0.0,0.0,0.0,0.0,0.0,0.0,0.0,1.0647,1.0584,1.0296,0.9696,0.879,0.8069,0.7533,0.7208,0.7046,0.7053,0.7377,0.7511,0.7524,0.7796,0.7902,0.788,0.788,0.7477,0.6814,0.7128,0.6863,0.6252,0.6445,0.6534,0.6453,0.5706,0.546,0.5351,0.4732,0.4491,0.4491,0.4491,0.4491,0.4491,0.446,0.3901,0.3287,0.3204,0.2174,0.109,0.1062,0.0517,0.0,0.0,0.0,0.0,0.0,-0.0033,-0.0326,-0.1201,-0.138,-0.1651,-0.2553,-0.1977,-0.1389,-0.1389,-0.0679,-0.0154,-0.0155,-0.0155,-0.0125,-0.0064,-0.0065,-0.0065,0.0,0.0,0.0,0.0,0.0,0.0,0.0,0.0,0.0,0.0,-0.0084,-0.0112,-0.0112,-0.0112,-0.0112,-0.014,-0.0838,-0.1146,0.0,0.0,0.0,0.9056,0.9579,1.0035,1.0073,0.0,0.0,0.0,0.0,0.0,0.0,0.0,0.0,0.0,0.0,0.0,0.0,0.0,0.0,0.0,0.0,0.0,0.0,0.0,0.0,0.0,0.0,0.0,1.1236,1.0968,1.0529,0.9982,0.9055,0.8288,0.7766,0.7978,0.7917,0.7579,0.7694,0.7546,0.7188,0.7273,0.7326,0.7326,0.7326,0.7403,0.7511,0.7643,0.7535,0.7284,0.7115,0.7062,0.6974,0.6426,0.59,0.546,0.5218,0.4869,0.4491,0.4491,0.4491,0.4491,0.4491,0.4294,0.3984,0.3483,0.2982,0.2343,0.1369,0.0902,0.0574,0.0119,0.0,0.0,0.0,0.0,-0.0097,-0.0414,-0.0469,-0.0584,-0.0913,-0.0693,-0.0479,-0.0479,-0.0206,0.0,0.0,0.0,0.0,0.0,0.0,0.0,0.0,0.0,0.0,0.0,0.0,0.0,0.0,0.0,0.0,0.0,0.0,0.0,0.0,0.0,0.0,0.0,-0.028,-0.0392,0.5784,0.0,0.0,0.0,0.0,0.9743,0.9902,0.0,0.0,0.0,0.0,0.0,0.0,0.0,0.0,0.0,0.0,0.0,0.0,0.0,0.0,0.0,0.0,0.0,0.0,0.0,0.0,0.0,0.0,0.0,1.1154,1.088,1.045,0.9928,0.9127,0.8521,0.8172,0.8521,0.8439,0.7899,0.7899,0.7683,0.7301,0.7301,0.7301,0.7301,0.7301,0.7407,0.7612,0.7712,0.7776,0.7756,0.7585,0.7572,0.7594,0.7033,0.6572,0.6167,0.5678,0.5218,0.4787,0.457,0.4491,0.4491,0.4491,0.4491,0.4405,0.3901,0.3594,0.3151,0.212,0.1464,0.0915,0.0176,0.0,0.0,0.0,0.0,0.0,0.0,0.0,0.0,0.0,0.0,0.0,0.0,0.0,0.0,0.0,0.0,0.0088,0.0333,0.0364,0.0482,0.0707,0.05,0.0377,0.0365,0.014,0.0,0.0,0.0,0.0,0.0,0.0,0.0,0.0,0.0,0.0,0.0,0.0,0.0,0.0,0.0,0.0,0.0,0.0,0.0,0.0,0.0,0.0,0.0,0.0,0.0,0.0,0.0,0.0,0.0,0.0,0.0,0.0,0.0,0.0,0.0,0.0,0.0,0.0,0.0,0.0,0.0,0.0,1.0303,1.0303,1.0303,1.0059,0.9518,0.9019,0.8736,0.8716,0.8736,0.848,0.7961,0.7961,0.7933,0.7919,0.7919,0.7919,0.7919,0.7919,0.7572,0.7041,0.7357,0.7493,0.7504,0.7772,0.8096,0.8293,0.7583,0.7462,0.7481,0.6045,0.5534,0.5425,0.4759,0.4546,0.4515,0.4515,0.4519,0.4491,0.4491,0.3987,0.34,0.3317,0.2229,0.0939,0.0206,0.003,0.0031,0.0,0.0,0.0,0.0,0.0,0.0,0.0,0.0,0.0,0.0,0.0,0.0,0.0,0.0028,0.0312,0.1023,0.1114,0.1436,0.2136,0.1552,0.1128,0.112,0.0448,0.0056,0.0056,0.0056,0.0056,0.0056,0.0056,0.0056,0.0056,0.0028,0.0,0.0,0.0,0.0,0.4732,0.0,0.0,0.0,0.0,0.0,0.0,0.0,0.0,0.0,0.0,0.0,0.0,0.0,0.0,0.0,0.0,0.0,0.0,0.0,0.0,0.0,0.0,0.0,0.0,0.0,0.0,0.0,1.0303,1.0303,1.0303,1.0303,1.0059,0.9518,0.9736,0.9677,0.9279,0.9657,0.9578,0.9059,0.9059,0.8857,0.848,0.848,0.848,0.848,0.848,0.8172,0.7621,0.7285,0.7141,0.7174,0.7475,0.7672,0.7742,0.7747,0.745,0.7028,0.6854,0.6442,0.6018,0.6022,0.5655,0.5218,0.5218,0.4893,0.4491,0.4491,0.4349,0.407,0.3456,0.2611,0.1698,0.0964,0.08,0.0659,0.0114,0.0,0.0,0.0,0.0,0.0,0.0,0.0,0.0,0.0,0.0,0.0,0.0,0.0476,0.087,0.1076,0.1586,0.198,0.2178,0.2008,0.1888,0.1898,0.1703,0.1591,0.1591,0.1591,0.1591,0.1591,0.1591,0.1591,0.1591,0.0532,0.0,0.0,0.0,0.0,0.4405,0.5003,0.0,0.0,0.0,0.0,0.0,0.848,0.0,0.0,0.0,0.0,0.0,0.0,0.0,0.0,0.0,0.0,0.0,0.0,0.0,0.0,0.0,0.0,0.0,0.0,0.0,0.0,1.0303,1.0303,1.0303,1.0303,1.0157,0.9843,1.0137,1.0147,0.9843,1.0137,1.004,0.9498,0.9498,0.9231,0.8739,0.8739,0.8739,0.8739,0.8739,0.8555,0.8214,0.7855,0.7433,0.702,0.7214,0.7377,0.7511,0.7669,0.7521,0.7254,0.7137,0.6812,0.6439,0.6446,0.6147,0.5757,0.5571,0.5218,0.4869,0.457,0.4491,0.4322,0.3511,0.2982,0.2482,0.173,0.1312,0.0978,0.056,0.0224,0.0,0.0,0.0,0.0,0.0,0.0,0.0,0.0,0.0252,0.0448,0.0448,0.109,0.1675,0.1981,0.2397,0.2788,0.3121,0.2843,0.2676,0.2704,0.2397,0.2202,0.2202,0.2202,0.2202,0.2202,0.2202,0.2202,0.2202,0.134,0.0755,0.0448,0.014,0.0,0.4187,0.4866,0.5429,0.5548,0.0,0.0,0.743,0.753,0.0,0.0,0.0,0.0,0.0,0.0,0.0,0.0,0.0,0.0,0.0,0.0,0.0,0.0,0.0,0.0,0.0,0.0,1.0303,1.0303,1.0303,1.0303,1.0303,1.0303,1.0303,1.0303,1.0303,1.0273,1.0215,1.0215,0.9973,0.945,0.945,0.922,0.8811,0.8811,0.8811,0.8811,0.8811,0.877,0.8718,0.8718,0.8105,0.7189,0.7126,0.7289,0.7533,0.7459,0.7595,0.7712,0.7097,0.6883,0.6829,0.6484,0.6329,0.6186,0.5695,0.5523,0.5326,0.4673,0.4491,0.4349,0.3622,0.3428,0.3262,0.2508,0.1758,0.1202,0.1118,0.0532,0.0,0.0,0.0,0.0,0.0,0.0,0.0028,0.0112,0.0671,0.1118,0.1202,0.187,0.2593,0.3231,0.337,0.3732,0.4436,0.3846,0.3456,0.3511,0.2843,0.2454,0.2454,0.2454,0.2454,0.2454,0.2454,0.2454,0.2454,0.2286,0.187,0.1202,0.056,0.0252,0.3507,0.4095,0.4812,0.5237,0.0,0.0,0.6932,0.7078,0.0,0.0,0.0,0.0,0.0,0.0,0.0,0.0,0.0,0.0,0.0,0.0,0.0,0.0,0.0,0.0,0.0,0.0,1.0303,1.0303,1.0303,1.0303,1.0303,1.0303,1.0303,1.0303,1.0303,1.0107,0.9747,0.9737,0.9517,0.909,0.909,0.9052,0.8966,0.8966,0.8966,0.8966,0.8966,0.8892,0.8784,0.8784,0.8618,0.8329,0.7884,0.7762,0.7757,0.7278,0.7126,0.7184,0.7327,0.7361,0.739,0.7522,0.7158,0.6593,0.6061,0.5562,0.5092,0.4618,0.4491,0.446,0.4294,0.4267,0.407,0.3345,0.2565,0.1813,0.1229,0.0532,0.0,0.0,0.0,0.0,0.0,0.0,0.0196,0.0783,0.1006,0.1312,0.1898,0.2676,0.3204,0.3287,0.3873,0.4322,0.4491,0.4349,0.4267,0.4294,0.4125,0.4042,0.4042,0.4042,0.4042,0.4042,0.4042,0.4042,0.4042,0.2815,0.212,0.1981,0.1842,0.1758,0.3137,0.3624,0.4051,0.4742,0.0,0.0,0.0,0.0,0.6496,0.0,0.0,0.0,0.0,0.0,0.0,0.0,0.0,0.0,0.0,0.0,0.0,0.0,0.0,0.0,0.0,0.0,1.0851,1.0615,1.04,1.0303,1.0303,1.0303,1.0303,1.0303,1.0068,0.9835,0.9592,0.9406,0.9201,0.9004,0.9004,0.8896,0.8708,0.8708,0.8708,0.8708,0.8708,0.8889,0.9198,0.9198,0.9308,0.9419,0.8614,0.8139,0.787,0.7551,0.7252,0.702,0.7194,0.7241,0.7295,0.7602,0.7458,0.7046,0.656,0.5792,0.5006,0.4492,0.4433,0.4491,0.4491,0.4491,0.4405,0.4042,0.3345,0.2538,0.1814,0.1062,0.0448,0.0084,0.0,0.0,0.0,0.0308,0.0671,0.1034,0.173,0.2343,0.276,0.3483,0.3929,0.3901,0.4267,0.4491,0.4491,0.4491,0.4491,0.4491,0.4491,0.4491,0.4491,0.4491,0.4491,0.4491,0.4491,0.4491,0.4491,0.3735,0.3151,0.2788,0.2397,0.2202,0.0,0.0,0.0,0.0,0.0,0.4221,0.0,0.0,0.0,0.6573,0.0,0.0,0.0,0.0,0.0,0.0,0.0,0.0,0.0,0.0,0.0,0.0,0.0,0.0,0.0,0.0,1.131,1.0937,1.0518,1.0332,1.042,1.0352,1.0303,1.0303,0.9941,0.9659,0.9494,0.9162,0.8926,0.8743,0.8743,0.8584,0.8268,0.8268,0.8268,0.8268,0.8268,0.8682,0.9377,0.9464,0.9747,1.0089,0.9193,0.8582,0.8193,0.8098,0.7739,0.7308,0.721,0.7168,0.7194,0.7345,0.7337,0.7189,0.6824,0.5922,0.4923,0.4487,0.4411,0.4453,0.4484,0.4491,0.4491,0.4491,0.3901,0.3148,0.2538,0.173,0.0923,0.0336,0.0084,0.0056,0.0196,0.0699,0.1202,0.1507,0.2538,0.3372,0.3594,0.4125,0.4491,0.4491,0.4491,0.4491,0.4491,0.4491,0.4491,0.4491,0.4491,0.4491,0.4491,0.4491,0.4491,0.4491,0.4491,0.4491,0.4491,0.4491,0.4184,0.3594,0.2954,0.2649,0.0,0.0,0.0,0.0,0.3628,0.0,0.0,0.0,0.4951,0.5419,0.0,0.0,0.0,0.0,0.0,0.0,0.0,0.0,0.0,0.0,0.0,0.0,0.0,0.0,0.0,0.0,0.0,1.0897,1.0518,1.0469,1.082,1.0488,1.0303,1.0303,1.0254,0.9844,0.9065,0.9023,0.8607,0.7841,0.7841,0.7822,0.7788,0.7788,0.7788,0.7788,0.7788,0.8076,0.8561,0.8926,0.9309,0.9672,0.948,0.9379,0.9259,0.8777,0.8574,0.8431,0.7966,0.7808,0.7712,0.7209,0.6734,0.6359,0.6423,0.5641,0.4781,0.4949,0.4617,0.4274,0.4457,0.4491,0.4491,0.4491,0.3929,0.3345,0.3204,0.2091,0.1062,0.0978,0.0448,0.0196,0.0866,0.1034,0.1563,0.2926,0.3231,0.3566,0.4294,0.446,0.4491,0.4491,0.4491,0.4491,0.4491,0.4491,0.4491,0.4491,0.4491,0.4491,0.4491,0.4491,0.4491,0.4491,0.4491,0.4491,0.4491,0.4491,0.446,0.4377,0.4294,0.4236,0.0,0.0,0.0,0.0,0.0,0.0,0.4034,0.0,0.4629,0.0,0.0,0.0,0.0,0.0,0.0,0.0,0.0,0.0,0.0,0.0,0.0,0.0,0.0,0.0,0.0,0.0,0.0,0.0,0.0,1.0723,1.0898,1.0742,1.0537,1.0312,1.0039,0.9601,0.9014,0.877,0.834,0.7695,0.7695,0.7695,0.7695,0.7695,0.7695,0.7695,0.7695,0.7963,0.8404,0.8581,0.8887,0.9271,0.9478,0.9532,0.9478,0.9239,0.8958,0.8663,0.8439,0.816,0.7808,0.7189,0.6852,0.6623,0.6367,0.6007,0.5679,0.5628,0.5493,0.5314,0.512,0.5085,0.4976,0.4598,0.4267,0.3901,0.34,0.248,0.1619,0.1174,0.0838,0.0867,0.1619,0.173,0.2093,0.3176,0.3707,0.4125,0.446,0.4491,0.4491,0.4491,0.4491,0.4491,0.4491,0.4866,0.5085,0.5085,0.5496,0.5719,0.5719,0.5719,0.5719,0.5719,0.5719,0.5719,0.5719,0.5719,0.5719,0.5687,0.4873,0.4708,0.0643,0.0,0.0,0.0,0.0,0.0,0.0,0.0,0.0,0.0,0.0,0.0,0.0,0.0,0.0,0.0,0.0,0.0,0.0,0.0,0.0,0.0,0.0,0.0,0.0,0.0,0.0,0.0,0.0,0.0,1.1238,1.1024,1.0771,1.0459,0.9903,0.9416,0.9014,0.861,0.8164,0.7695,0.7695,0.7695,0.7695,0.7695,0.7695,0.7695,0.7827,0.799,0.8228,0.8446,0.8651,0.8887,0.9406,0.9582,0.9549,0.9679,0.9478,0.9119,0.8978,0.8561,0.8015,0.7447,0.7259,0.7154,0.6583,0.6389,0.6333,0.6248,0.6185,0.6089,0.586,0.5651,0.5378,0.4893,0.4625,0.4349,0.3763,0.3037,0.2371,0.1842,0.1563,0.1647,0.2369,0.2508,0.276,0.3511,0.4125,0.4491,0.4491,0.4653,0.4787,0.4787,0.4952,0.5062,0.5062,0.5519,0.5792,0.5792,0.6312,0.6588,0.6588,0.6588,0.6588,0.6588,0.6588,0.6588,0.6588,0.6588,0.6696,0.6885,0.5632,0.5332,0.0,0.0,0.0,0.1717,0.0,0.0,0.0,0.0,0.3794,0.0,0.0,0.0,0.0,0.0,0.0,0.0,0.0,0.0,0.0,0.0,0.0,0.0,0.0,0.0,0.0,0.0,0.0,0.0,0.0,0.0,1.2116,1.1355,1.0878,1.0868,1.0049,0.9416,0.9014,0.861,0.8164,0.7695,0.7695,0.7695,0.7695,0.7695,0.7695,0.7725,0.8105,0.8072,0.7783,0.8557,0.8704,0.8493,0.9289,0.9602,0.9642,1.0108,1.0264,1.0176,0.9657,0.9119,0.8582,0.8057,0.787,0.7767,0.7154,0.6605,0.6296,0.6666,0.6412,0.6086,0.6473,0.6036,0.5487,0.546,0.4976,0.4491,0.446,0.3876,0.3345,0.3317,0.2704,0.2397,0.3148,0.3259,0.3539,0.4349,0.4491,0.4491,0.4491,0.5058,0.546,0.546,0.6118,0.6534,0.6534,0.6561,0.6561,0.6561,0.6588,0.6588,0.6588,0.6588,0.6588,0.6588,0.6588,0.6588,0.6588,0.6588,0.6966,0.7643,0.6885,0.6534,0.0,0.0,0.151,0.1259,0.0,0.0,0.0,0.0,0.0,0.0,0.0,0.0,0.0,0.0,0.0,0.0,0.0,0.0,0.0,0.0,0.0,0.0,0.0,0.0,0.0,0.0,0.0,0.0,0.0,0.0,0.0,1.166,1.1222,1.0918,1.0361,0.9727,0.9014,0.9124,0.8823,0.8105,0.8322,0.8439,0.8439,0.8439,0.8439,0.8439,0.8568,0.8435,0.8115,0.84,0.8272,0.7993,0.8574,0.8975,0.9289,1.0038,1.0303,1.0225,0.9686,0.9379,0.9079,0.8201,0.7899,0.7787,0.7196,0.7032,0.7135,0.7444,0.7571,0.7546,0.7365,0.7155,0.6713,0.5733,0.5324,0.503,0.4598,0.3873,0.3345,0.34,0.3148,0.301,0.3317,0.3763,0.4181,0.446,0.4491,0.4653,0.5109,0.5351,0.5678,0.6177,0.6453,0.6588,0.6588,0.7047,0.753,0.8023,0.8049,0.8049,0.8049,0.8049,0.8049,0.8049,0.8049,0.8049,0.8049,0.8049,0.8182,0.8427,0.8182,0.7803,0.0,0.0717,0.0,0.1254,0.1967,0.0,0.2705,0.0,0.0,0.0,0.0,0.0,0.0,0.0,0.0,0.0,0.0,0.0,0.0,0.0,0.0,0.0,0.0,0.0,0.0,0.0,1.0655,1.1538,0.0,0.0,0.0,0.0,1.1701,1.1415,1.0676,1.0035,0.9506,0.94,0.9062,0.8521,0.8711,0.8803,0.8803,0.8803,0.8803,0.8816,0.8953,0.8814,0.8491,0.8634,0.8453,0.8146,0.8597,0.8957,0.925,0.9837,1.0166,1.0264,0.9902,0.9784,0.9637,0.8756,0.8337,0.807,0.7489,0.7408,0.7531,0.7709,0.8056,0.8315,0.7878,0.7745,0.7368,0.6073,0.5626,0.5328,0.4653,0.4098,0.3732,0.379,0.3763,0.3732,0.379,0.437,0.4866,0.4866,0.4866,0.5113,0.5792,0.6113,0.647,0.6939,0.7235,0.7375,0.7375,0.7803,0.8295,0.8778,0.8804,0.8804,0.8804,0.8804,0.8804,0.8804,0.8804,0.8804,0.8804,0.8804,0.8804,0.8804,0.8804,0.8533]}]]